[[{"header":{"parameterUnit":"m.s-1","parameterCategory":1,"la1":30.6,"la2":29.2853,"lo1":-89.7004,"lo2":-87.6739,"dy":0.0162,"dx":0.0183,"nx":112,"ny":82,"refTime":"2023-09-09T06:00:00:Z","depth":0,"parameterNumber":2,"parameterNumberName":"U-component_of_WINDS"},"data":[0.0,0.0,0.0,0.0,0.0,0.0,0.0,0.0,0.0,0.0,0.0,0.0,0.0,0.0,0.0,0.0,0.0,0.0,0.0,0.0,0.0,0.0,0.0,0.0,0.0,0.0,0.0,0.0,0.0,0.0,0.0,0.0,0.0,0.0,0.0,0.0,0.0,0.0,0.0,0.0,0.0,0.0,0.0,0.0,0.0,0.0,0.0,0.0,0.0,0.0,0.0,0.0,0.0,0.0,0.0,0.0,0.0,0.0,0.0,0.0,0.0,0.0,0.0,0.0,0.0,0.0,0.0,0.0,0.0,0.0,0.0,0.0,0.0,0.0,0.0,0.0,0.0,0.0,0.0,0.0,0.0,0.0,0.0,0.0,0.0,0.0,0.0,0.0,0.0,0.0,4.0928,4.1423,4.269,4.3497,4.3497,4.3497,4.2121,3.8909,0.0,0.0,0.0,0.0,0.0,0.0,0.0,0.0,0.0,0.0,0.0,0.0,0.0,0.0,0.0,0.0,0.0,0.0,0.0,0.0,0.0,0.0,0.0,0.0,0.0,0.0,0.0,0.0,0.0,0.0,0.0,0.0,0.0,0.0,0.0,0.0,0.0,0.0,0.0,0.0,0.0,0.0,0.0,0.0,0.0,0.0,0.0,0.0,0.0,0.0,0.0,0.0,0.0,0.0,0.0,0.0,0.0,0.0,0.0,0.0,0.0,0.0,0.0,0.0,0.0,0.0,0.0,0.0,0.0,0.0,0.0,0.0,0.0,0.0,0.0,0.0,0.0,0.0,0.0,0.0,0.0,0.0,0.0,0.0,0.0,0.0,0.0,0.0,0.0,0.0,0.0,0.0,0.0,0.0,0.0,0.0,0.0,0.0,0.0,0.0,0.0,0.0,0.0,0.0,4.012,4.2837,4.3332,4.3497,4.3497,4.3497,4.2121,3.8909,0.0,0.0,0.0,0.0,0.0,0.0,0.0,0.0,0.0,0.0,0.0,0.0,0.0,0.0,0.0,0.0,0.0,0.0,0.0,0.0,0.0,0.0,0.0,0.0,0.0,0.0,0.0,0.0,0.0,0.0,0.0,0.0,0.0,0.0,0.0,0.0,0.0,0.0,0.0,0.0,0.0,0.0,0.0,0.0,0.0,0.0,0.0,0.0,0.0,0.0,0.0,0.0,0.0,0.0,0.0,0.0,0.0,0.0,0.0,0.0,0.0,0.0,0.0,0.0,0.0,0.0,0.0,0.0,0.0,0.0,0.0,0.0,0.0,0.0,0.0,0.0,0.0,0.0,0.0,0.0,0.0,0.0,0.0,0.0,0.0,0.0,0.0,0.0,0.0,0.0,0.0,0.0,0.0,0.0,0.0,0.0,0.0,0.0,0.0,0.0,0.0,0.0,0.0,3.9772,4.2029,4.3956,4.4544,4.48,4.48,4.48,4.3424,4.0212,3.9588,0.0,0.0,0.0,0.0,0.0,0.0,0.0,0.0,0.0,0.0,0.0,0.0,0.0,0.0,0.0,0.0,0.0,0.0,0.0,0.0,0.0,0.0,0.0,0.0,0.0,0.0,0.0,0.0,0.0,0.0,0.0,0.0,0.0,0.0,0.0,0.0,0.0,0.0,0.0,0.0,0.0,0.0,0.0,0.0,0.0,0.0,0.0,0.0,0.0,0.0,0.0,0.0,0.0,0.0,0.0,0.0,0.0,0.0,0.0,0.0,0.0,0.0,0.0,0.0,0.0,0.0,0.0,0.0,0.0,0.0,0.0,0.0,0.0,0.0,0.0,0.0,0.0,0.0,0.0,0.0,0.0,0.0,0.0,0.0,0.0,0.0,0.0,0.0,0.0,0.0,0.0,0.0,0.0,0.0,0.0,0.0,0.0,0.0,0.0,0.0,0.0,0.0,4.2084,4.4287,4.4929,4.5535,4.5902,4.5902,4.5553,4.4121,4.1295,4.0175,0.0,0.0,0.0,0.0,0.0,0.0,0.0,0.0,0.0,0.0,0.0,0.0,0.0,0.0,0.0,0.0,0.0,0.0,0.0,0.0,0.0,0.0,0.0,0.0,0.0,0.0,0.0,0.0,0.0,0.0,0.0,0.0,0.0,0.0,0.0,0.0,0.0,0.0,0.0,0.0,0.0,0.0,0.0,0.0,0.0,0.0,0.0,0.0,0.0,0.0,0.0,0.0,0.0,0.0,0.0,0.0,0.0,0.0,0.0,0.0,0.0,0.0,0.0,0.0,0.0,0.0,0.0,0.0,0.0,0.0,0.0,0.0,0.0,0.0,0.0,0.0,0.0,0.0,0.0,0.0,0.0,0.0,0.0,0.0,0.0,0.0,0.0,0.0,0.0,0.0,0.0,0.0,0.0,0.0,0.0,0.0,0.0,0.0,0.0,0.0,0.0,0.0,4.3736,4.5755,4.581,4.5865,4.5902,4.5902,4.4525,4.2928,4.1222,3.9643,0.0,0.0,0.0,0.0,0.0,0.0,0.0,0.0,0.0,0.0,0.0,0.0,0.0,0.0,0.0,0.0,0.0,0.0,0.0,0.0,0.0,0.0,0.0,0.0,0.0,0.0,0.0,0.0,0.0,0.0,0.0,0.0,0.0,0.0,0.0,0.0,0.0,0.0,0.0,0.0,0.0,0.0,0.0,0.0,0.0,0.0,0.0,0.0,0.0,0.0,0.0,0.0,0.0,0.0,0.0,0.0,0.0,0.0,0.0,0.0,0.0,0.0,0.0,0.0,0.0,0.0,0.0,0.0,0.0,0.0,0.0,0.0,0.0,0.0,0.0,0.0,0.0,0.0,0.0,0.0,0.0,0.0,0.0,0.0,0.0,0.0,0.0,0.0,0.0,0.0,0.0,0.0,0.0,0.0,0.0,0.0,0.0,0.0,0.0,0.0,0.0,0.0,4.392,4.6085,0.0,4.7113,4.7407,4.7407,4.6838,4.5388,4.2763,0.0,0.0,0.0,0.0,0.0,0.0,0.0,0.0,0.0,0.0,0.0,0.0,0.0,0.0,0.0,0.0,0.0,0.0,0.0,0.0,0.0,0.0,0.0,0.0,0.0,0.0,0.0,0.0,0.0,0.0,0.0,0.0,0.0,0.0,0.0,0.0,0.0,0.0,0.0,0.0,0.0,0.0,0.0,0.0,0.0,0.0,0.0,0.0,0.0,0.0,0.0,0.0,0.0,0.0,0.0,0.0,0.0,0.0,0.0,0.0,0.0,0.0,0.0,0.0,0.0,0.0,0.0,0.0,0.0,0.0,0.0,0.0,0.0,0.0,0.0,0.0,0.0,0.0,0.0,0.0,0.0,0.0,0.0,0.0,0.0,0.0,0.0,0.0,0.0,0.0,0.0,0.0,0.0,0.0,0.0,0.0,0.0,0.0,0.0,0.0,0.0,0.0,4.1699,4.4672,4.6874,0.0,4.7976,4.8306,4.8306,4.7829,4.6379,4.3663,0.0,0.0,0.0,0.0,0.0,0.0,0.0,0.0,0.0,0.0,0.0,0.0,0.0,0.0,0.0,0.0,0.0,0.0,0.0,0.0,0.0,0.0,0.0,0.0,0.0,0.0,0.0,0.0,0.0,0.0,0.0,0.0,0.0,0.0,0.0,0.0,0.0,0.0,0.0,0.0,0.0,0.0,0.0,0.0,0.0,0.0,0.0,0.0,0.0,0.0,0.0,0.0,0.0,0.0,0.0,0.0,0.0,0.0,0.0,0.0,0.0,0.0,0.0,0.0,0.0,0.0,0.0,0.0,0.0,0.0,0.0,0.0,0.0,0.0,0.0,0.0,0.0,0.0,0.0,0.0,0.0,0.0,0.0,0.0,0.0,0.0,0.0,0.0,0.0,0.0,0.0,0.0,0.0,0.0,0.0,0.0,0.0,0.0,0.0,0.0,0.0,0.0,4.3387,4.6305,4.8306,4.8306,4.8306,4.8306,4.8306,4.6838,4.5223,0.0,0.0,0.0,0.0,0.0,0.0,0.0,0.0,0.0,0.0,0.0,0.0,0.0,0.0,0.0,0.0,0.0,0.0,0.0,0.0,0.0,0.0,0.0,0.0,0.0,0.0,0.0,0.0,0.0,0.0,0.0,0.0,0.0,0.0,0.0,0.0,0.0,0.0,0.0,0.0,0.0,0.0,0.0,0.0,0.0,0.0,0.0,0.0,0.0,0.0,0.0,0.0,0.0,0.0,0.0,0.0,0.0,0.0,0.0,0.0,0.0,0.0,0.0,0.0,0.0,0.0,0.0,0.0,0.0,0.0,0.0,0.0,0.0,0.0,0.0,0.0,0.0,0.0,0.0,0.0,0.0,0.0,0.0,0.0,0.0,0.0,0.0,0.0,0.0,0.0,0.0,0.0,0.0,0.0,0.0,0.0,0.0,0.0,0.0,0.0,0.0,0.0,0.0,4.3387,4.6305,4.8306,4.8306,4.8306,4.8306,4.8306,4.7884,4.6416,4.3663,0.0,0.0,0.0,0.0,0.0,0.0,0.0,0.0,0.0,0.0,0.0,0.0,0.0,0.0,0.0,0.0,0.0,0.0,0.0,0.0,0.0,0.0,0.0,0.0,0.0,0.0,0.0,0.0,0.0,0.0,0.0,0.0,0.0,0.0,0.0,0.0,0.0,0.0,0.0,0.0,0.0,0.0,0.0,0.0,0.0,0.0,0.0,0.0,0.0,0.0,0.0,0.0,0.0,0.0,0.0,0.0,0.0,0.0,0.0,0.0,0.0,0.0,0.0,0.0,0.0,0.0,0.0,0.0,0.0,0.0,0.0,0.0,0.0,0.0,0.0,0.0,0.0,0.0,0.0,0.0,0.0,0.0,0.0,0.0,0.0,0.0,0.0,0.0,0.0,0.0,0.0,0.0,0.0,0.0,0.0,0.0,0.0,0.0,0.0,0.0,0.0,0.0,4.3424,4.6305,4.8306,4.8306,4.8306,4.8306,4.8306,4.8306,4.7205,4.4617,0.0,0.0,0.0,0.0,0.0,0.0,0.0,0.0,0.0,0.0,0.0,0.0,0.0,0.0,0.0,0.0,0.0,0.0,0.0,0.0,0.0,0.0,0.0,0.0,0.0,0.0,0.0,0.0,0.0,0.0,0.0,0.0,0.0,0.0,0.0,0.0,0.0,0.0,0.0,0.0,0.0,0.0,0.0,0.0,0.0,0.0,0.0,0.0,0.0,0.0,0.0,0.0,0.0,0.0,0.0,0.0,0.0,0.0,0.0,0.0,0.0,0.0,0.0,0.0,0.0,0.0,0.0,0.0,0.0,0.0,0.0,0.0,0.0,0.0,0.0,0.0,0.0,0.0,0.0,0.0,0.0,0.0,0.0,0.0,0.0,0.0,0.0,0.0,0.0,0.0,0.0,0.0,0.0,0.0,0.0,0.0,0.0,0.0,0.0,0.0,0.0,0.0,4.3497,4.6305,4.8306,4.8306,4.8306,4.8306,4.8306,4.8306,4.7609,4.5993,0.0,0.0,0.0,0.0,0.0,0.0,0.0,0.0,0.0,0.0,0.0,0.0,0.0,0.0,0.0,0.0,0.0,0.0,0.0,0.0,0.0,0.0,0.0,0.0,0.0,0.0,0.0,0.0,0.0,0.0,0.0,0.0,0.0,0.0,0.0,0.0,0.0,0.0,0.0,0.0,0.0,0.0,0.0,0.0,0.0,0.0,0.0,0.0,0.0,0.0,0.0,0.0,0.0,0.0,0.0,0.0,0.0,0.0,0.0,0.0,3.377,0.0,0.0,0.0,0.0,0.0,0.0,0.0,0.0,0.0,0.0,0.0,0.0,0.0,0.0,0.0,0.0,0.0,0.0,0.0,0.0,0.0,0.0,0.0,0.0,0.0,0.0,0.0,0.0,0.0,0.0,0.0,0.0,0.0,0.0,0.0,0.0,0.0,0.0,0.0,0.0,0.0,4.3497,4.6305,4.8306,4.8306,4.8306,4.8306,4.8306,4.8306,4.7609,4.5993,4.5571,0.0,0.0,0.0,0.0,0.0,0.0,0.0,0.0,0.0,0.0,0.0,0.0,0.0,0.0,0.0,0.0,0.0,0.0,0.0,0.0,0.0,0.0,0.0,0.0,0.0,0.0,0.0,0.0,0.0,0.0,0.0,0.0,0.0,0.0,0.0,0.0,0.0,0.0,0.0,0.0,0.0,0.0,0.0,0.0,0.0,0.0,0.0,0.0,0.0,0.0,0.0,0.0,0.0,0.0,0.0,0.0,0.0,0.0,0.0,0.0,3.4192,0.0,0.0,0.0,0.0,0.0,0.0,0.0,0.0,0.0,0.0,0.0,0.0,0.0,0.0,0.0,0.0,0.0,0.0,0.0,0.0,0.0,0.0,0.0,0.0,0.0,0.0,0.0,0.0,0.0,0.0,0.0,0.0,0.0,0.0,0.0,0.0,0.0,0.0,0.0,0.0,4.4544,4.6783,4.8306,4.8306,4.8306,4.8306,4.8306,4.8306,4.7939,4.7113,4.6324,0.0,0.0,0.0,0.0,0.0,0.0,0.0,0.0,0.0,0.0,0.0,0.0,0.0,0.0,0.0,0.0,0.0,0.0,0.0,0.0,0.0,0.0,0.0,0.0,0.0,0.0,0.0,0.0,0.0,0.0,0.0,0.0,0.0,0.0,0.0,0.0,0.0,0.0,0.0,0.0,0.0,0.0,0.0,0.0,0.0,0.0,0.0,0.0,0.0,0.0,0.0,0.0,0.0,3.8802,3.915,3.9808,3.9808,3.9841,3.9882,3.8248,3.8157,3.8909,3.6193,0.0,0.0,0.0,0.0,0.0,0.0,0.0,0.0,0.0,0.0,0.0,0.0,0.0,0.0,0.0,0.0,0.0,0.0,0.0,0.0,0.0,0.0,0.0,0.0,4.2928,4.2598,4.1405,0.0,0.0,0.0,0.0,0.0,0.0,0.0,0.0,0.0,0.0,0.0,4.5736,4.7297,4.8306,4.8306,4.8306,4.8306,4.8306,4.8306,4.8306,4.8306,4.7058,4.6324,0.0,0.0,0.0,0.0,0.0,0.0,0.0,0.0,0.0,0.0,0.0,0.0,0.0,0.0,0.0,0.0,0.0,0.0,0.0,0.0,0.0,0.0,0.0,0.0,0.0,0.0,0.0,0.0,0.0,0.0,0.0,0.0,3.1691,3.3177,0.0,0.0,0.0,0.0,0.0,0.0,0.0,0.0,0.0,0.0,0.0,0.0,0.0,3.7695,4.069,4.1243,4.2373,4.4017,4.4017,4.4072,4.418,4.418,4.4449,4.4856,4.324,0.0,4.0763,4.0322,0.0,0.0,0.0,0.0,0.0,0.0,0.0,0.0,0.0,0.0,0.0,0.0,0.0,0.0,0.0,0.0,0.0,0.0,0.0,0.0,0.0,0.0,4.5039,4.5351,4.5424,4.5571,0.0,4.3424,4.0928,4.0818,4.135,0.0,0.0,0.0,0.0,0.0,0.0,0.0,4.5865,4.7297,4.8306,4.8306,4.8306,4.8306,4.8306,4.8306,4.8306,4.8306,4.8104,4.7994,4.7994,4.6636,0.0,0.0,0.0,0.0,0.0,0.0,0.0,0.0,0.0,0.0,0.0,0.0,0.0,0.0,0.0,0.0,0.0,0.0,0.0,0.0,0.0,0.0,0.0,0.0,0.0,0.0,0.0,0.0,0.0,3.2222,3.4151,3.5756,3.5605,3.5277,0.0,0.0,0.0,0.0,0.0,0.0,0.0,0.0,0.0,3.8966,3.9261,4.0544,4.2846,4.3112,4.3888,4.5124,4.5124,4.5356,4.5784,4.5784,4.5917,4.6158,4.5414,4.4731,4.3998,4.2904,4.2451,4.2304,0.0,0.0,0.0,0.0,3.9001,3.9111,3.9808,4.1111,0.0,4.1625,0.0,0.0,0.0,0.0,0.0,0.0,0.0,0.0,0.0,0.0,4.4892,4.625,4.6581,4.6801,4.7609,4.6397,4.4892,0.0,4.4085,4.3809,4.2194,0.0,0.0,0.0,0.0,4.6232,4.7131,4.7865,4.8306,4.8306,4.8306,4.8306,4.8306,4.8306,4.8306,4.8306,4.8306,4.8306,4.8306,4.7627,4.6819,0.0,0.0,0.0,0.0,0.0,0.0,0.0,0.0,0.0,0.0,0.0,0.0,0.0,0.0,0.0,0.0,0.0,0.0,0.0,0.0,0.0,0.0,0.0,0.0,0.0,0.0,0.0,0.0,3.3937,3.5865,3.7757,3.7488,3.7184,0.0,0.0,0.0,0.0,0.0,0.0,4.017,3.9869,4.0377,4.2015,4.2251,4.2991,4.4372,4.453,4.4858,4.5281,4.5281,4.5686,4.6442,4.6442,4.6645,4.6967,4.6772,4.6684,4.6584,4.4913,4.4233,4.4196,4.3962,4.314,4.2081,4.2035,4.2029,4.2066,4.2268,4.3112,4.4103,4.4103,4.4103,4.403,4.3608,0.0,0.0,0.0,0.0,4.2616,4.3791,4.4415,4.5186,4.6985,4.7425,4.759,4.8177,4.8306,4.7957,0.0,4.6507,4.5993,4.4378,0.0,0.0,0.0,0.0,4.6948,4.8159,4.8306,4.8306,4.8306,4.8306,4.8306,4.8306,4.8306,4.8306,4.8306,4.8306,4.8306,4.8306,4.8306,4.7737,4.6544,0.0,0.0,0.0,0.0,0.0,0.0,0.0,0.0,0.0,0.0,0.0,0.0,0.0,0.0,0.0,0.0,0.0,0.0,0.0,0.0,0.0,0.0,0.0,0.0,0.0,0.0,0.0,0.0,0.0,3.7994,4.0342,0.0,0.0,0.0,0.0,3.9147,3.9071,3.9555,4.0689,4.0728,4.1538,4.3274,4.3958,4.4609,4.5441,4.5989,4.6007,4.5493,4.5493,4.5875,4.6603,4.6603,4.7299,4.8576,4.7833,4.7533,4.7462,4.6619,4.623,4.6181,4.5264,4.4859,4.4777,4.4602,4.4525,4.4635,4.5388,4.57,4.5773,4.5773,4.5773,4.548,4.3956,4.3975,0.0,0.0,4.3883,4.5681,4.5755,4.6911,4.8104,4.8214,4.8251,4.8251,4.8306,4.8306,4.8288,0.0,4.8177,4.7682,4.6067,0.0,4.7572,4.6122,4.7205,4.8214,4.8306,4.8306,4.8306,4.8306,4.8306,4.8306,4.8306,4.8306,4.8306,4.8306,4.8306,4.8306,4.8306,4.8306,4.8269,4.8196,4.6673,0.0,0.0,0.0,0.0,0.0,0.0,0.0,0.0,0.0,0.0,0.0,0.0,0.0,0.0,0.0,0.0,0.0,0.0,0.0,0.0,0.0,0.0,0.0,0.0,0.0,0.0,0.0,0.0,3.9447,4.0627,0.0,4.1225,4.1128,4.1196,4.149,4.1769,4.2463,4.3748,4.3442,4.3756,4.4857,4.5137,4.5589,4.634,4.6529,4.6529,4.634,4.634,4.6476,4.6732,4.6732,4.7021,4.7468,4.721,4.709,4.7072,4.6797,4.6569,4.6377,4.6059,4.6157,4.6561,4.6454,4.6661,4.7058,4.7352,4.7443,4.7443,4.7443,4.7443,4.7352,4.6764,4.6801,4.6911,4.6324,4.6783,4.7443,4.7443,4.7884,4.8306,4.8306,4.8306,4.8306,4.8306,4.8746,4.9132,4.9132,4.8673,4.8122,4.7553,4.7921,4.8306,4.8269,4.8765,4.9315,4.9848,4.9921,4.9921,4.9921,4.9921,4.9701,4.9169,4.9132,4.8893,4.8343,4.8306,4.8306,4.8306,4.8306,4.8306,4.8306,4.7737,4.6434,0.0,0.0,0.0,0.0,0.0,0.0,0.0,0.0,0.0,0.0,0.0,0.0,0.0,0.0,0.0,0.0,0.0,0.0,0.0,0.0,0.0,0.0,0.0,0.0,0.0,0.0,3.895,4.0672,4.1336,4.1891,4.2457,4.2262,4.2444,4.3319,4.3903,4.4606,4.5539,4.5426,4.5551,4.6058,4.6075,4.6312,4.6786,4.6786,4.6786,4.6786,4.6786,4.6921,4.7175,4.7175,4.731,4.753,4.7276,4.7175,4.7141,4.6904,4.6696,4.655,4.6786,4.7275,4.7895,4.8091,4.8574,4.9114,4.882,4.8545,4.8306,4.8306,4.8306,4.8306,4.8306,4.8306,4.8306,4.8306,4.8508,4.8728,4.8728,4.8948,4.915,4.915,4.915,4.915,4.915,4.9591,4.9994,4.9994,4.9536,4.8967,4.8416,4.8306,4.8306,4.8343,4.8343,4.8526,4.9077,4.9627,4.9958,4.9958,5.0472,5.0582,5.005,4.9481,4.904,4.8765,4.8214,4.8031,4.8306,4.7792,4.7498,4.7498,4.6966,4.5902,4.4305,0.0,0.0,0.0,0.0,0.0,0.0,0.0,0.0,0.0,0.0,0.0,0.0,0.0,0.0,0.0,0.0,0.0,0.0,0.0,0.0,0.0,0.0,0.0,3.7959,3.9301,4.0502,4.1552,4.2704,4.3654,4.4268,4.4514,4.4621,4.4654,4.5331,4.5737,4.5737,4.6413,4.6802,4.6819,4.6853,4.687,4.6887,4.6921,4.6938,4.6938,4.6938,4.731,4.802,4.802,4.8409,4.9035,4.8325,4.802,4.797,4.7225,4.6938,4.6963,4.7464,4.812,4.8834,4.941,5.0112,5.0652,4.9884,4.9077,4.8379,4.8379,4.8379,4.8379,4.8379,4.8379,4.8379,4.8379,4.8985,4.9627,4.9627,5.0215,5.0802,5.0802,5.0802,5.0802,5.0802,5.082,5.0839,5.0839,5.0857,5.0343,4.8673,4.8379,4.7865,4.6324,4.6085,0.0,4.6122,4.7498,4.8434,4.8379,4.9884,5.0839,5.0765,4.9334,4.8765,4.9572,4.8122,4.7572,4.8324,4.6838,4.5993,4.5975,4.4378,4.4342,4.5902,0.0,0.0,0.0,0.0,0.0,0.0,0.0,0.0,0.0,0.0,0.0,0.0,0.0,0.0,0.0,0.0,0.0,0.0,0.0,0.0,0.0,0.0,3.9645,3.958,4.0306,4.1392,4.274,4.3722,4.4524,4.5235,4.5377,4.5618,4.6143,4.638,4.6498,4.6498,4.6684,4.7056,4.7597,4.8122,4.8646,4.9171,4.9729,4.9999,4.9999,4.9999,5.0118,5.0304,5.0304,5.0422,5.0591,5.0405,5.0304,5.0304,5.0084,4.9999,4.9779,4.7835,4.743,4.8014,4.8207,4.9012,5.0032,5.0346,5.0306,5.0105,5.0105,5.0105,5.0105,5.0105,5.0105,5.0105,5.0105,5.0288,5.0472,5.0472,5.0637,5.0802,5.0802,5.0802,5.0802,5.0802,5.1261,5.1665,5.1665,5.2142,5.2032,5.0398,5.0105,5.016,5.0288,5.0306,0.0,5.1132,5.1591,5.1426,5.0251,5.1573,5.1811,5.0013,5.0545,5.0839,5.049,5.005,4.9627,4.9242,4.8802,4.8288,4.7664,4.6067,4.5461,0.0,0.0,0.0,0.0,0.0,0.0,0.0,0.0,0.0,0.0,0.0,0.0,0.0,0.0,0.0,0.0,0.0,0.0,0.0,0.0,0.0,0.0,4.0223,4.1847,4.2388,4.2557,4.3064,4.4231,4.4773,4.5348,4.6092,4.616,4.6346,4.6752,4.7361,4.7716,4.7716,4.8308,4.8849,4.9289,4.9712,5.0135,5.0557,5.0997,5.1217,5.1217,5.1217,5.1217,5.1217,5.1217,5.1217,5.1217,5.1217,5.1217,5.1217,5.1217,5.1217,0.0,0.0,0.0,0.0,0.0,4.9376,4.9865,5.0272,5.0226,4.9981,5.0235,5.0338,5.038,5.0703,5.0802,5.0802,5.0802,5.1041,5.1298,5.1298,5.1555,5.1811,5.1811,5.1811,5.1811,5.1811,5.2179,5.2509,5.2509,5.2626,0.0,5.1504,5.1041,5.0729,5.049,5.0195,5.0276,5.1055,5.126,5.1058,5.0429,5.152,5.1728,5.0299,5.0461,0.0,0.0,0.0,4.9606,4.9077,4.8728,0.0,0.0,0.0,4.5223,4.5902,0.0,0.0,0.0,4.4342,4.3608,0.0,0.0,0.0,0.0,0.0,0.0,0.0,0.0,0.0,0.0,0.0,0.0,0.0,0.0,0.0,0.0,4.1288,4.342,4.5534,4.5246,4.5077,4.5754,4.5821,4.6109,4.6853,4.6989,4.7073,4.7158,4.846,4.9255,4.9255,0.0,0.0,0.0,0.0,5.1336,5.1336,5.142,5.1471,5.1471,5.1471,5.1471,5.1471,5.1471,5.1471,5.1471,5.1471,5.1471,5.1471,5.1471,5.142,5.1268,5.0507,5.0605,5.1205,5.1243,5.077,5.017,5.0134,0.0,0.0,4.979,4.9956,5.0127,5.0858,5.1077,5.1077,5.0977,5.1532,5.2123,5.2022,5.2614,5.3225,5.3316,5.3353,5.3329,5.336,5.3335,5.3335,5.323,5.2763,5.2336,5.227,5.15,5.0464,4.8941,4.8283,4.8158,4.8663,4.8956,4.9208,4.9567,0.0,0.0,5.0941,4.9891,4.9727,5.0948,4.9613,4.8756,4.8708,4.7957,4.6856,4.5424,4.469,4.5021,4.6452,4.6452,4.7186,4.8508,4.5461,4.48,0.0,0.0,0.0,0.0,0.0,0.0,0.0,0.0,0.0,0.0,0.0,0.0,0.0,0.0,0.0,4.2422,4.3961,4.5399,4.643,4.6447,4.6413,4.6566,4.6583,4.687,4.7631,4.824,4.8815,4.9407,5.0287,5.0794,5.0794,5.1065,5.1217,5.1217,5.1792,5.2097,5.2097,5.2739,5.3061,5.3061,0.0,0.0,5.3061,5.3061,5.3061,5.3061,5.3061,5.3061,5.3061,5.3061,5.2672,5.2012,5.1285,5.1044,5.1264,5.182,5.1958,5.1847,5.1756,5.1653,5.1545,5.1604,5.1661,5.1754,5.2523,5.2747,0.0,5.2037,5.236,5.2822,5.2254,5.266,5.3371,5.4014,5.4179,5.4195,5.4212,5.4243,5.4079,5.3403,5.3677,5.3846,5.3158,5.24,5.1756,5.1384,5.1777,5.1901,5.1393,5.1416,5.0809,4.9106,5.0712,5.1383,5.006,5.1429,5.2217,5.1878,5.0948,5.0677,5.1279,5.0508,4.9939,4.9627,4.9462,4.9536,4.9848,4.9848,5.0013,5.027,4.8288,4.7535,0.0,0.0,0.0,0.0,0.0,0.0,0.0,0.0,0.0,0.0,0.0,4.0206,0.0,0.0,4.3098,4.3876,4.5263,4.6515,4.7259,4.7665,4.7767,4.7394,4.7682,4.8189,4.8934,4.9678,5.0253,5.0625,5.1336,5.1758,5.1758,5.2147,5.2367,5.2367,5.2723,5.2909,5.2909,5.3298,5.3687,5.4042,5.4042,5.4245,5.46,5.4228,5.4042,5.4025,5.367,5.3501,5.3501,5.3501,5.3264,5.2858,5.2503,5.1894,5.12,5.1612,5.1782,5.1713,5.1726,5.1689,5.1737,5.2109,5.2183,5.2342,5.3059,5.3548,5.3771,5.3388,5.3818,5.4232,5.3483,5.3548,5.3834,5.3875,5.385,5.386,5.3882,5.3919,5.3797,5.3405,5.3368,5.3276,5.2866,5.2496,5.229,5.2654,5.274,5.274,5.2705,5.2076,5.1217,5.008,5.0622,5.0605,4.9467,5.1066,5.1825,5.112,5.1658,5.2061,5.2061,5.1608,5.1389,5.1389,5.1004,5.0802,5.0802,5.0802,5.0802,5.0784,4.9939,4.9554,0.0,0.0,0.0,0.0,0.0,0.0,0.0,0.0,4.0595,4.0916,4.1085,4.1356,4.1965,4.3166,4.4333,4.5094,4.6346,4.7479,4.824,4.8968,4.9221,4.8629,4.9086,4.9661,5.0253,5.098,5.142,5.142,5.2114,5.2536,5.2536,5.3145,5.3568,5.3704,5.3721,5.3788,5.394,5.394,5.4228,5.4803,5.4803,5.5124,5.57,5.5091,5.4803,5.4769,5.4194,5.3856,5.3721,5.3721,5.3636,5.3501,5.3501,5.2756,5.1657,5.1657,5.1657,5.164,5.1488,5.142,5.1515,5.2106,5.2277,5.2438,5.3074,5.3744,5.4263,5.411,5.4562,5.5,5.4263,5.4161,5.4128,5.3654,5.3508,5.3561,5.3535,5.357,5.3514,5.3361,5.3032,5.271,5.2563,5.2667,5.2827,5.3071,5.2752,5.2654,5.3074,5.2097,5.139,5.1227,5.0813,5.0277,4.9649,5.054,5.0946,5.0462,5.194,5.2662,5.2335,5.2254,5.2234,5.2234,5.1591,5.1279,5.1279,5.1279,5.1279,5.1279,5.1279,5.1096,3.8058,3.7787,3.7922,3.8007,3.8971,4.0257,0.0,0.0,4.2422,4.3792,4.4621,4.5111,4.5179,4.5872,4.6667,4.7428,4.8223,4.9018,4.9746,5.049,5.093,5.0862,5.0913,5.0997,5.1082,5.1742,5.2181,5.2181,5.2926,5.3365,5.3365,5.345,5.3805,5.4448,5.4465,5.4786,5.5463,5.5463,5.5513,5.5598,5.5598,5.5632,5.5716,5.5632,5.5598,5.5581,5.5497,5.5091,5.4465,5.4465,5.4093,5.3501,5.3501,5.3399,5.3247,5.3247,5.3247,5.3145,5.2418,5.2181,5.2194,5.2261,5.2277,5.2438,5.3074,5.3333,5.3296,5.2712,5.3018,5.3405,5.2712,5.298,5.3582,5.4217,5.4394,5.4402,5.4417,5.4452,5.4285,5.3577,5.396,5.4115,5.3479,5.3913,5.3879,5.2587,5.2849,5.3018,5.2497,5.226,5.1915,5.1274,5.1706,5.2004,5.1878,5.1455,5.1362,5.1843,5.1544,5.1874,5.3042,5.3072,5.3078,5.3078,5.2986,5.2949,5.2949,5.2949,5.2949,5.2949,5.2949,5.2179,4.0392,3.9817,3.9597,0.0,4.1593,4.1779,4.3267,4.3961,4.4468,4.5111,4.5821,4.6464,4.6921,4.7242,4.7817,0.0,4.9441,4.9898,5.0642,5.1386,5.1843,5.1843,5.2266,5.2367,5.1894,5.2553,5.301,5.301,5.3704,5.4143,5.4143,5.4549,5.4921,5.5243,5.5243,5.5395,5.5716,5.5716,5.5936,5.6342,5.6342,5.6562,5.6968,5.6545,5.6122,5.5716,5.5716,5.5547,5.5243,5.5243,5.482,5.4143,5.4143,5.3873,5.3501,5.3501,5.3501,5.345,5.3129,5.301,5.3009,5.2997,5.3007,5.3053,5.3335,5.3714,5.398,5.3697,5.4139,5.4525,5.3801,5.3861,5.405,5.3963,5.3925,5.3966,5.3926,5.3929,5.3881,5.3551,5.3783,5.3898,5.3551,5.3783,5.3724,5.3109,5.3227,5.3335,5.3007,5.3007,5.2708,5.1894,5.1741,5.1645,5.1589,5.1751,5.1581,5.0993,5.1793,5.2225,5.2006,5.2353,5.2769,5.3206,5.2769,5.2769,5.3206,5.3206,5.3206,5.3206,5.3206,5.2858,4.1288,0.0,0.0,4.3301,4.3589,4.3521,4.4637,4.5466,4.6007,4.6007,4.6583,4.7276,4.7817,4.824,4.8866,4.9915,5.0422,5.0896,5.1437,5.2164,5.2638,5.2638,5.3145,5.3348,5.2976,5.3467,5.3805,5.3805,5.4482,5.4905,5.4905,5.5429,5.5801,5.6004,5.6021,5.6105,5.6308,5.6325,5.6579,5.7103,5.7103,5.7374,5.7865,5.734,5.6816,5.6325,5.6325,5.6207,5.6021,5.6021,5.5581,5.4905,5.4905,5.4448,5.3805,5.3805,5.367,5.3501,5.3501,5.3501,5.3501,5.3501,5.3501,5.3501,5.3501,5.3881,5.4328,5.4328,5.4651,5.4999,5.4437,5.4328,5.4154,5.3618,5.3501,5.3501,5.3501,5.3501,5.3501,5.3501,5.3501,5.3501,5.3501,5.3501,5.3501,5.3501,5.3501,5.3501,5.3501,5.3501,5.3281,5.2689,5.2164,5.1758,5.1539,5.2027,5.1871,5.0765,5.2119,5.2674,5.207,5.2305,5.2672,5.3222,5.2689,5.2506,5.2617,5.2787,5.2787,5.2635,5.2831,5.3003,3.9783,4.0155,4.0493,4.1982,4.3995,4.5618,4.5669,4.6244,4.6752,4.6752,4.7361,4.7885,4.7919,4.9069,5.0033,5.0084,5.1302,5.2249,5.2266,5.2959,5.3467,5.3467,5.3501,5.3771,0.0,5.4532,5.4566,5.4566,5.526,5.5683,5.5683,5.57,5.6038,5.6748,5.6765,5.7103,5.7814,5.7814,5.7831,5.7865,5.7865,5.7865,5.7881,5.7865,5.7848,5.7814,5.7814,5.7425,5.6765,5.6765,5.6342,5.5683,5.5683,5.5226,5.4566,5.4566,5.411,5.3501,5.3501,5.3501,5.3501,5.3501,5.3501,5.3501,5.3501,5.3501,5.3568,5.3568,5.3568,5.3551,5.3568,5.3568,5.3501,5.3501,5.3501,5.3501,5.3501,5.3501,5.3501,5.3501,5.3501,5.3501,5.3501,5.3501,5.3501,5.3501,5.3501,5.3501,5.3501,5.3501,5.3501,5.3467,5.345,5.3112,5.2334,5.2266,5.2299,5.2235,5.2285,5.2944,5.4309,5.3673,5.3281,5.3315,5.3231,5.2494,5.1138,5.1808,5.1808,5.1189,5.1856,5.2557,4.1153,4.1931,4.2658,4.4181,4.55,4.643,4.643,4.7005,4.753,4.753,4.775,4.7919,4.7919,4.7919,4.8376,4.9847,5.0507,5.1369,5.2892,5.3331,5.3501,5.3501,5.3923,0.0,0.0,0.0,0.0,5.5294,5.6021,5.6444,5.6444,5.6884,5.7273,5.7509,5.7526,5.7645,5.7881,5.7881,5.7881,5.7881,5.7881,5.7881,5.7881,5.7881,5.7881,5.7881,5.7881,5.7746,5.7526,5.7526,5.7103,5.6444,5.6444,5.5987,5.5344,5.5344,5.4871,5.416,5.367,5.3501,5.3501,5.3501,5.3501,5.3501,5.3501,5.3501,5.3501,5.3501,5.3501,5.3501,5.3501,5.3501,5.3501,5.3501,5.3501,5.3501,5.3501,5.3501,5.3501,5.3501,5.3501,5.3501,5.3501,5.3501,5.3501,5.3501,5.3501,5.3501,5.3501,5.3501,5.3501,5.3501,5.3501,5.3399,5.3129,5.3095,5.2889,5.2316,5.275,5.3036,5.3015,5.3241,5.3335,5.3317,5.3317,5.3087,5.2572,5.3337,5.3572,5.3354,5.4088,5.4592,4.2083,4.3047,4.3842,4.5652,4.665,4.7192,4.7192,4.7767,4.8156,4.7631,4.7733,4.775,4.7225,4.7158,4.7834,4.9779,5.0321,5.12,5.3213,5.3501,5.3501,5.3501,5.4143,5.4702,0.0,0.0,0.0,5.6072,5.6782,5.7188,5.7188,5.7628,5.7881,5.7881,5.7881,5.7881,5.7881,5.7881,5.7881,5.7881,5.7881,5.7881,5.7881,5.7881,5.7881,5.7881,5.7881,5.7881,5.7881,5.7881,5.7611,5.7188,5.7188,5.6748,5.6105,5.6105,5.5632,5.4888,5.4143,5.3721,5.3501,5.3501,5.3501,5.3501,5.3501,5.3501,5.3501,5.3501,5.3501,5.3501,5.3501,5.3501,5.3501,5.3501,5.3501,5.3501,5.3501,5.3501,5.3501,5.3501,5.3501,5.3501,5.3501,5.3501,5.3501,5.3501,5.3501,5.3501,5.3501,5.3501,5.3501,5.3501,5.3501,5.3501,5.3501,5.3501,5.3281,5.2756,5.3147,5.3335,5.3151,5.3314,5.341,5.3383,5.3383,5.3129,5.2579,5.3584,5.3814,5.3331,5.4628,5.5098,4.2557,4.3589,4.4164,4.6312,4.7411,4.797,4.797,4.8443,4.8511,4.7141,4.7327,4.7327,0.0,0.0,4.8342,4.9796,5.0693,5.1758,5.3281,5.3501,5.3501,0.0,0.0,0.0,0.0,0.0,0.0,5.6867,0.0,5.7881,5.7881,5.7881,5.7881,5.7881,5.7881,5.7881,5.7881,5.7881,5.7881,5.7881,5.7881,5.7881,5.7881,5.7881,5.7881,5.7881,5.7881,5.7881,5.7881,5.7881,5.7881,5.7881,5.7881,5.7459,5.6867,5.6867,5.6393,5.5683,5.4955,5.4211,5.3568,5.3568,5.3534,5.3501,5.3501,5.3501,5.3501,5.3501,5.3501,5.3501,5.3501,5.3501,5.3501,5.3501,5.3501,5.3501,5.3501,5.3501,5.3501,5.3501,5.3501,5.3501,5.3501,5.3501,5.3501,5.3501,5.3501,5.3501,5.3501,5.3501,5.3501,5.3501,5.3501,5.3501,5.3501,5.3501,5.3501,5.3501,5.3501,5.3832,5.4527,5.3881,5.3557,5.3506,5.3471,5.2774,5.1336,5.2759,5.2759,5.1447,5.3618,5.4296,4.4553,4.594,4.6904,4.7479,4.8189,4.8731,4.8731,4.8003,4.7411,4.7597,4.6464,4.5483,0.0,0.0,0.0,4.9035,5.0371,0.0,5.3281,5.3501,0.0,5.3501,0.0,5.5497,5.57,5.6867,0.0,0.0,5.778,5.7881,5.7881,5.7881,5.7881,5.7881,5.7881,5.7881,5.7881,5.7881,5.7881,5.7881,5.7881,5.7881,5.7881,5.7881,5.7881,5.7881,5.7881,5.7881,5.7881,5.7881,5.7881,5.7881,5.7881,5.778,5.7611,5.7611,5.7154,5.6494,5.6308,5.5395,5.4313,5.4313,5.394,5.3501,5.3501,5.3501,5.3501,5.3501,5.3501,5.3501,5.3501,5.3501,5.3501,5.3501,5.3501,5.3501,5.3501,5.3501,5.3501,5.3501,5.3501,5.3501,5.3501,5.3501,5.3501,5.3501,5.3501,5.3501,5.3501,5.3501,5.3501,5.3501,5.3501,5.3501,5.3501,5.3501,5.3501,5.3501,5.3501,5.3551,5.3783,5.4106,5.4068,5.3494,5.4035,5.3822,5.2926,5.385,5.4122,5.3787,5.4913,5.5302,4.5686,4.7022,4.8003,4.8308,4.8697,4.8832,4.8189,4.7378,4.6532,4.5635,4.4705,4.4198,4.4621,4.5585,4.7005,0.0,0.0,0.0,5.3281,5.3501,5.3501,0.0,5.482,0.0,5.5716,5.7036,5.7881,0.0,5.7881,5.7881,5.7881,5.7881,5.7881,5.7881,5.7881,5.7881,5.7881,5.7881,5.7881,5.7881,5.7881,5.7881,5.7881,5.7881,5.7881,5.7881,0.0,5.7881,5.7881,5.7881,5.7881,5.7881,5.7881,5.7881,5.7881,5.7881,5.7628,5.7273,5.7273,5.6528,5.5463,5.4803,5.4313,5.3923,5.3602,5.3501,5.3501,5.3501,5.3501,5.3501,5.3501,5.3501,5.3501,5.3501,5.3501,5.3501,5.3501,5.3501,5.3501,5.3501,5.3501,5.3501,5.3501,5.3501,5.3501,5.3501,5.3501,5.3501,5.3501,5.3501,5.3501,5.3501,5.3501,5.3501,5.3501,5.3501,5.3501,5.3501,5.3501,5.3501,5.3501,5.3881,5.3946,5.3501,5.3881,5.3881,5.3501,5.4264,5.4419,5.4154,5.522,5.5379,4.6244,4.7344,4.8105,4.8832,4.9001,4.8612,4.7141,4.6633,4.572,4.2997,0.0,4.3217,4.3521,4.4654,4.6549,4.9593,0.0,5.164,5.3281,5.3501,5.3501,5.3501,5.482,5.5716,5.5716,5.7036,5.7881,5.7881,5.7881,5.7881,5.7881,5.7881,5.7881,5.7881,5.7881,5.7881,5.7881,5.7881,5.7881,5.7881,5.7881,5.7881,5.7881,5.7881,5.7881,5.7881,5.7881,5.7881,5.7881,5.7881,5.7881,5.7881,5.7881,5.7881,5.7881,5.7881,5.7881,5.7881,5.7881,5.7476,5.6714,5.5327,5.482,5.46,5.3873,5.3653,5.3636,5.3534,5.3501,5.3501,5.3501,5.3501,5.3501,5.3501,5.3501,5.3501,5.3501,5.3501,5.3501,5.3501,5.3501,5.3501,5.3501,5.3501,5.3501,5.3501,5.3501,5.3501,5.3501,5.3501,5.3501,5.3501,5.3501,5.3501,5.3501,5.3501,5.3501,5.3501,5.3501,5.3501,5.3501,5.3501,5.3501,5.3501,5.3501,5.3501,5.3501,5.4154,5.4106,5.3501,5.4835,5.4713,4.6532,4.7344,4.8105,4.8832,4.9001,4.8612,4.7141,4.5838,0.0,0.0,4.2354,4.2168,4.4028,4.4587,4.594,4.9509,5.0202,5.1031,5.3196,5.3501,5.3501,0.0,5.482,5.5716,5.5716,5.7036,0.0,0.0,5.7881,5.7881,5.7881,5.7881,5.7881,5.7881,5.7881,5.7881,5.7881,5.7881,5.7881,5.7881,5.7881,5.7881,5.7881,5.7881,5.7881,5.7881,5.7881,0.0,5.7881,5.7881,5.7881,5.7881,5.7881,5.7881,5.7881,5.7881,5.7881,5.7881,5.7881,5.7814,5.756,5.6697,5.6021,5.5378,5.4617,5.4397,5.4279,5.367,5.3501,5.3501,5.3501,5.3501,5.3501,5.3501,5.3501,5.3501,5.3501,5.3501,5.3501,5.3501,5.3501,5.3501,5.3501,5.3501,5.3501,5.3501,5.3501,5.3501,5.3501,5.3501,5.3501,5.3501,5.3501,5.3501,5.3501,5.3501,5.3501,5.3501,5.3501,5.3501,5.3501,5.3501,5.3501,5.3501,5.3501,5.3501,5.3501,5.3618,5.3618,5.3501,5.3783,5.3717,4.5652,4.6752,4.8105,4.8832,4.9001,4.8409,4.616,0.0,0.0,0.0,4.1119,4.1187,4.3047,4.3707,0.0,4.7394,4.9086,5.0473,5.1572,5.2756,5.3501,5.3501,5.482,5.5716,5.5716,5.7036,5.7881,5.7881,5.7881,5.7881,5.7881,5.7881,5.7881,5.7881,5.7881,5.7881,5.7881,5.7881,5.7881,5.7881,5.7881,5.7881,5.7881,5.7881,5.7881,5.7881,5.7881,5.7881,5.7881,5.7881,5.7881,5.7881,5.7881,5.7881,5.7881,5.7881,5.7881,5.7881,5.7881,5.7881,5.7763,5.7036,5.6562,5.6072,5.4938,5.4583,5.4448,5.3704,5.3501,5.3501,5.3501,5.3501,5.3501,5.3501,5.3501,5.3501,5.3501,5.3501,5.3501,5.3501,5.3501,5.3501,5.3501,5.3501,5.3501,5.3501,5.3501,5.3501,5.3501,5.3501,5.3501,5.3501,5.3501,5.3501,5.3501,5.3501,5.3501,5.3501,5.3501,5.3501,5.3501,5.3501,5.3501,5.3501,5.3501,5.3501,5.3501,5.3501,5.3501,5.3501,5.3501,5.3501,4.484,4.6109,4.7648,4.8545,4.8765,4.8037,4.5229,4.4451,0.0,4.046,3.9715,4.0121,4.1745,4.2286,4.3183,0.0,4.7513,4.9187,4.9982,5.1775,5.3129,0.0,5.4668,0.0,5.57,5.6884,0.0,5.7881,5.7881,5.7881,5.7881,5.7881,5.7881,5.7881,5.7881,5.7881,5.7881,5.7881,5.7881,5.7881,5.7881,5.7881,5.7881,5.7881,5.7881,5.7881,5.7881,5.7881,5.7881,5.7881,5.7881,5.7881,5.7881,5.7881,5.7881,5.7881,5.7881,5.7865,5.7712,5.7645,5.7543,5.6799,5.6681,5.6528,5.504,5.4583,5.4448,5.3704,5.3501,5.3501,5.3501,5.3501,5.3501,5.3501,5.3501,5.3501,5.3501,5.3501,5.3501,5.3501,5.3501,5.3501,5.3501,5.3501,5.3501,5.3501,5.3501,5.3501,5.3501,5.3501,5.3501,5.3501,5.3501,5.3501,5.3501,5.3501,5.3501,5.3501,5.3501,5.3501,5.3501,5.3501,5.3501,5.3501,5.3501,5.3501,5.3501,5.3501,5.3501,5.3501,5.3501,5.3501,4.506,4.5754,4.6244,4.7665,4.802,4.7411,4.5111,0.0,4.2675,3.9698,3.8565,3.8768,4.0916,4.0257,0.0,0.0,0.0,4.6244,4.9627,5.0862,5.1944,5.3331,0.0,0.0,5.5649,5.6444,5.7171,5.7831,5.7881,5.7881,5.7881,5.7881,5.7881,5.7881,5.7881,5.7881,5.7881,5.7881,5.7881,5.7881,5.7881,5.7881,5.7881,5.7881,5.7881,5.7881,5.7881,5.7881,0.0,5.7881,5.7881,5.7881,5.7881,5.7881,5.7881,5.7881,5.7881,5.7797,5.712,5.69,5.6782,5.6055,5.6258,5.6528,5.504,5.4583,5.4448,5.3704,5.3501,5.3501,5.3501,5.3501,5.3501,5.3501,5.3501,5.3501,5.3501,5.3501,5.3501,5.3501,5.3501,5.3501,5.3501,5.3501,5.3501,5.3501,5.3501,5.3501,5.3501,5.3501,5.3501,5.3501,5.3501,5.3501,5.3501,5.3501,5.3501,5.3501,5.3501,5.3501,5.3501,5.3501,5.3501,5.3501,5.3501,5.3501,5.3501,5.3501,5.3501,5.3501,5.3501,5.3501,4.2878,4.4333,4.5957,4.6989,4.7242,4.6532,4.3826,0.0,4.1897,3.8954,3.8108,3.8176,3.9056,3.9106,0.0,0.0,0.0,0.0,4.7699,4.9509,5.1268,5.3264,5.4143,0.0,0.0,0.0,5.7103,5.7831,5.7881,5.7881,5.7881,5.7881,5.7881,5.7881,5.7881,5.7881,5.7881,5.7881,5.7881,5.7881,5.7881,5.7881,5.7881,5.7881,5.7881,5.7881,5.7881,5.7881,0.0,5.7881,5.7881,5.7881,5.7881,5.7628,5.7239,5.7239,5.6968,5.6528,5.6241,5.6156,5.6038,5.5277,5.5243,5.5361,5.4769,5.4583,5.4448,5.3704,5.3501,5.3501,5.3501,5.3501,5.3501,5.3501,5.3501,5.3501,5.3501,5.3501,5.3501,5.3501,5.3501,5.3501,5.3501,5.3501,5.3501,5.3501,5.3501,5.3501,5.3501,5.3501,5.3501,5.3501,5.3501,5.3501,5.3501,5.3501,5.3501,5.3501,5.3501,5.3501,5.3501,5.3501,5.3501,5.3501,5.3501,5.3501,5.3501,5.3501,5.3501,5.3501,5.3501,5.3501,4.1424,4.3081,4.4976,4.6177,4.6126,4.5179,0.0,0.0,4.0595,3.8091,3.7398,3.7297,3.7533,3.799,3.8481,0.0,0.0,4.3301,4.5788,4.8037,5.0135,5.1944,0.0,5.3873,5.4634,5.597,5.7103,5.7831,5.7881,5.7881,5.7881,5.7881,5.7881,5.7881,5.7881,5.7881,5.7881,5.7881,5.7881,5.7881,5.7881,5.7881,5.7881,5.7881,5.7881,5.7881,5.7881,5.7763,0.0,5.756,5.7442,5.7256,5.7256,5.6934,5.6478,5.6478,5.6156,5.5683,5.5463,5.5378,5.526,5.4515,5.4262,5.4262,5.4262,5.4262,5.416,5.3653,5.3501,5.3501,5.3501,5.3501,5.3501,5.3501,5.3501,5.3501,5.3501,5.3501,5.3501,5.3501,5.3501,5.3501,5.3501,5.3501,5.3501,5.3501,5.3501,5.3501,5.3501,5.3501,5.3501,5.3501,5.3501,5.3501,5.3501,5.3501,5.3501,5.3501,5.3501,5.3501,5.3501,5.3501,5.3501,5.3501,5.3501,5.3501,5.3501,5.3501,5.3501,5.3501,5.3501,5.3501,4.1491,4.2303,4.2878,4.5145,4.457,4.325,0.0,4.0595,3.8599,3.711,3.618,3.5876,3.6637,3.6806,3.728,3.8751,3.9631,0.0,4.4181,4.6532,4.8223,0.0,0.0,5.1539,5.2266,5.504,5.7103,5.7831,5.7881,0.0,5.7881,5.7881,5.7881,5.7881,5.7881,5.7881,5.7881,5.7881,5.7881,5.7881,5.7881,5.7881,5.7881,5.7881,5.7881,5.7881,5.7881,5.7476,0.0,5.6816,5.6393,5.5733,5.5733,5.5733,5.5733,5.5733,5.5733,5.5615,5.4854,5.46,5.4482,5.3754,5.3518,5.3518,5.3518,5.3518,5.3518,5.3501,5.3501,5.3501,5.3501,5.3501,5.3501,5.3501,5.3501,5.3501,5.3501,5.3501,5.3501,5.3501,5.3501,5.3501,5.3501,5.3501,5.3501,5.3501,5.3501,5.3501,5.3501,5.3501,5.3501,5.3501,5.3501,5.3501,5.3501,5.3501,5.3501,5.3501,5.3501,5.3501,5.3501,5.3501,5.3501,5.3501,5.3501,5.3501,5.3501,5.3501,5.3501,5.3501,5.3501,5.3501,3.9039,4.002,4.095,4.1711,4.1508,4.0815,3.958,3.8751,3.7821,3.6299,3.5791,3.569,3.5943,3.6417,3.711,3.8091,3.887,0.0,0.0,0.0,0.0,4.9543,5.1978,5.3619,0.0,0.0,5.69,5.712,5.7611,5.7881,5.7881,5.7881,5.7881,5.7881,5.7881,5.7881,5.7881,5.7881,5.7881,5.7881,5.7391,5.7154,5.712,5.663,5.641,5.641,5.641,5.6275,5.6055,5.6055,5.5919,5.5716,5.5716,5.5395,5.4955,5.4955,5.4634,5.4177,5.3923,5.3856,5.3805,5.3585,5.3501,5.3501,5.3501,5.3501,5.3501,5.3501,5.3501,5.3501,5.3501,5.3501,5.3501,5.3501,5.3501,5.3501,5.3501,5.3501,5.3501,5.3501,5.3501,5.3501,5.3501,5.3501,5.3501,5.3501,5.3501,5.3501,5.3501,5.3501,5.3501,5.3501,5.3501,5.3501,5.3501,5.3501,5.3501,5.3501,5.3501,5.3501,5.3501,5.3501,5.3501,5.3501,5.3501,5.3501,5.3501,5.3501,5.3501,5.3501,5.3501,5.3501,0.0,3.8565,3.9394,3.9969,3.9681,0.0,0.0,3.7466,3.6772,3.5825,3.5622,3.5622,3.5622,3.6011,3.6688,3.7736,3.8294,3.9529,0.0,0.0,0.0,4.939,0.0,0.0,0.0,5.5091,5.6089,5.6376,5.6816,5.707,5.707,5.707,5.707,5.707,5.734,5.7476,5.7476,5.7205,5.707,5.7053,5.6613,5.6393,5.6376,5.5919,5.5716,5.5716,5.5716,5.5547,0.0,5.5294,5.5124,5.4888,5.4888,5.46,5.4177,5.4177,5.389,5.3501,5.3501,5.3501,5.3501,5.3501,5.3501,5.3501,5.3501,5.3501,5.3501,5.3501,5.3501,5.3501,5.3501,5.3501,5.3501,5.3501,5.3501,5.3501,5.3501,5.3501,5.3501,5.3501,5.3501,5.3501,5.3501,5.3501,5.3501,5.3501,5.3501,5.3501,5.3501,5.3501,5.3501,5.3501,5.3501,5.3501,5.3501,5.3501,5.3501,5.3501,5.3501,5.3501,5.3501,5.3501,5.3501,5.3501,5.3501,5.3501,5.3501,5.3501,5.3501,5.3501,5.3501,5.3501,0.0,3.7753,3.8075,3.9428,3.8751,0.0,0.0,0.0,0.0,3.5622,3.5622,3.5622,3.5622,3.5622,3.6113,3.7652,3.7905,3.865,0.0,4.3217,0.0,0.0,5.0439,0.0,5.2317,5.3721,5.4871,5.5581,5.5683,5.5716,5.5716,5.5716,5.5716,5.5716,5.6325,5.6664,5.6731,5.6055,5.5716,5.5716,5.5666,5.5632,5.5632,5.5581,5.5564,0.0,5.5564,5.5158,5.4515,5.4515,5.411,5.3501,5.3501,5.3501,5.3501,5.3501,5.3501,5.3501,5.3501,5.3501,5.3501,5.3501,5.3501,5.3501,5.3501,5.3501,5.3501,5.3501,5.3501,5.3501,5.3501,5.3501,5.3501,5.3501,5.3501,5.3501,5.3501,5.3501,5.3501,5.3501,5.3501,5.3501,5.3501,5.3501,5.3501,5.3501,5.3501,5.3501,5.3501,5.3501,5.3501,5.3501,5.3501,5.3501,5.3501,5.3501,5.3501,5.3501,5.3501,5.3501,5.3501,5.3501,5.3501,5.3501,5.3501,5.3501,5.3501,5.3501,5.3501,5.3501,5.3501,5.3501,3.6062,0.0,3.6231,3.6586,3.6417,3.6163,0.0,0.0,0.0,0.0,0.0,3.5622,3.5622,3.5622,3.6113,3.7652,3.7905,3.8481,4.0121,4.3758,0.0,4.9543,5.1691,5.3044,5.3213,5.4059,5.4668,5.4854,5.5395,5.5716,5.5716,5.5716,5.5716,5.5716,5.5327,5.5395,5.597,5.5801,5.5716,5.5716,5.5141,5.4854,5.4837,5.4279,5.4025,5.4025,5.4025,5.3923,5.3754,5.3754,5.367,5.3501,5.3501,5.3501,5.3501,5.3501,5.3501,5.3501,5.3501,5.3501,5.3501,5.3501,5.3501,5.3501,5.3501,5.3501,5.3501,5.3501,5.3501,5.3501,5.3501,5.3501,5.3501,5.3501,5.3501,5.3501,5.3501,5.3501,5.3501,5.3501,5.3501,5.3501,5.3501,5.3501,5.3501,5.3501,5.3501,5.3501,5.3501,5.3501,5.3501,5.3501,5.3501,5.3501,5.3501,5.3501,5.3501,5.3501,5.3501,5.3501,5.3501,5.3501,5.3501,5.3501,5.3501,5.3501,5.3501,5.3501,5.3501,5.3501,5.3501,5.3501,3.5622,3.5622,3.5622,3.5622,3.5622,3.5622,3.5622,0.0,0.0,0.0,0.0,3.5622,3.5622,3.5622,3.6113,3.7652,3.8481,3.9918,0.0,0.0,4.8027,5.0308,5.185,5.2956,0.0,5.3856,5.4093,5.4093,5.4482,5.4702,5.4702,5.4702,5.4702,5.4702,5.4313,5.4448,5.5192,5.4871,5.4702,5.4702,5.4296,5.4093,5.4076,5.3687,5.3501,5.3501,5.3501,5.3501,5.3501,5.3501,5.3501,5.3501,5.3501,5.3501,5.3501,5.3501,5.3501,5.3501,5.3501,5.3501,5.3501,5.3501,5.3501,5.3501,5.3501,5.3501,5.3501,5.3501,5.3501,5.3501,5.3501,5.3501,5.3501,5.3501,5.3501,5.3501,5.3501,5.3501,5.3501,5.3501,5.3501,5.3501,5.3501,5.3501,5.3501,5.3501,5.3501,5.3501,5.3501,5.3501,5.3501,5.3501,5.3501,5.3501,5.3501,5.3501,5.3501,5.3501,5.3501,5.3501,5.3501,5.3501,5.3501,5.3501,5.3501,5.3501,5.3501,5.3501,5.3501,5.3501,5.3501,5.3501,3.5622,3.5622,3.5622,3.5622,3.5622,3.5622,3.5622,0.0,0.0,0.0,0.0,0.0,0.0,3.5977,0.0,0.0,0.0,0.0,4.5715,4.7012,4.8364,5.0419,5.1408,0.0,5.3416,5.3501,5.3501,5.3501,5.3501,5.3501,5.3501,5.3501,5.3501,5.3501,5.3501,5.3805,5.4431,5.3805,5.3501,5.3501,5.3501,5.3501,5.3501,5.3501,5.3501,5.3501,0.0,0.0,5.3501,5.3501,5.3501,5.3501,5.3501,5.3501,5.3501,5.3501,5.3501,5.3501,5.3501,5.3501,5.3501,5.3501,5.3501,5.3501,5.3501,5.3501,5.3501,5.3501,5.3501,5.3501,5.3501,5.3501,5.3501,5.3501,5.3501,5.3501,5.3501,5.3501,5.3501,5.3501,5.3501,5.3501,5.3501,5.3501,5.3501,5.3501,5.3501,5.3501,5.3501,5.3501,5.3501,5.3501,5.3501,5.3501,5.3501,5.3501,5.3501,5.3501,5.3501,5.3501,5.3501,5.3501,5.3501,5.3501,5.3501,5.3501,5.3501,5.3501,5.3501,5.3501,5.3501,5.3501,3.5622,3.5622,3.5622,3.5622,3.5622,3.5622,3.5622,0.0,0.0,0.0,0.0,0.0,0.0,3.7567,3.8447,0.0,0.0,4.3855,0.0,0.0,4.791,4.8117,0.0,5.2589,5.3433,5.3501,5.3501,5.3501,5.3501,5.3501,5.3501,5.3501,5.3501,5.3501,5.3501,5.3551,5.367,5.3568,5.3501,5.3501,5.3501,5.3501,5.3501,5.3501,5.3501,5.3501,0.0,5.3501,5.3501,5.3501,5.3501,5.3501,5.3501,5.3501,5.3501,5.3501,5.3501,5.3501,5.3501,5.3501,5.3501,5.3501,5.3501,5.3501,5.3501,5.3501,5.3501,5.3501,5.3501,5.3501,5.3501,5.3501,5.3501,5.3501,5.3501,5.3501,5.3501,5.3501,5.3501,5.3501,5.3501,5.3501,5.3501,5.3501,5.3501,5.3501,5.3501,5.3501,5.3501,5.3501,5.3501,5.3501,5.3501,5.3501,5.3501,5.3501,5.3501,5.3501,5.3501,5.3501,5.3501,5.3501,5.3501,5.3501,5.3501,5.3501,5.3501,5.3501,5.3501,5.3501,5.3501,5.3501,3.5622,3.5622,3.5825,3.6637,3.6231,3.5622,3.5622,0.0,0.0,0.0,0.0,0.0,0.0,0.0,3.914,4.2912,0.0,4.6043,4.6809,4.7675,4.8592,0.0,0.0,5.143,5.2707,5.2858,5.3044,5.3467,5.3501,5.3501,5.3501,5.3501,5.3501,5.3501,5.3501,5.3501,5.3501,5.3078,5.3078,5.3501,5.3501,5.3501,5.3501,5.3501,5.3501,5.3501,0.0,5.3501,5.3501,5.3501,5.3501,5.3501,5.3501,5.3501,5.3501,5.3501,5.3501,5.3501,5.3501,5.3501,5.3501,5.3501,5.3501,5.3501,5.3501,5.3501,5.3501,5.3501,5.3501,5.3501,5.3501,5.3501,5.3501,5.3501,5.3501,5.3501,5.3501,5.3501,5.3501,5.3501,5.3501,5.3501,5.3501,5.3501,5.3501,5.3501,5.3501,5.3501,5.3501,5.3501,5.3501,5.3501,5.3501,5.3501,5.3501,5.3501,5.3501,5.3501,5.3501,5.3501,5.3501,5.3501,5.3501,5.3501,5.3501,5.3501,5.3501,5.3501,5.3501,5.3501,5.3501,5.3501,3.5622,3.5622,3.5893,3.7077,3.6772,3.6248,3.6586,0.0,0.0,0.0,0.0,0.0,0.0,3.9377,0.0,4.4045,4.5974,4.7639,4.9274,4.9059,4.9194,5.044,5.0159,5.0376,5.1913,5.2046,5.23,5.2926,5.2976,5.2976,5.2976,5.2976,5.2976,5.2976,5.2976,5.2976,5.2976,5.235,5.2452,5.3213,5.3044,5.2976,5.2976,5.2976,5.2976,5.2976,5.2976,5.2976,5.2976,5.2976,5.2976,5.2976,5.2976,5.2976,5.2976,5.2976,5.2976,5.2976,5.2976,5.2976,5.2976,5.2976,5.2976,5.2976,5.2976,5.2976,5.2976,5.2976,5.2976,5.3044,5.3416,5.3501,5.3501,5.3501,5.3501,5.3501,5.3501,5.3501,5.3501,5.3501,5.3501,5.3501,5.3501,5.3501,5.3501,5.3501,5.3501,5.3501,5.3501,5.3501,5.3501,5.3501,5.3501,5.3501,5.3501,5.3501,5.3501,5.3501,5.3501,5.3501,5.3501,5.3501,5.3501,5.3501,5.3501,5.3501,5.3501,5.3501,5.3501,5.3501,5.3501,5.3501,3.5622,3.5622,3.5656,3.5757,3.6772,0.0,3.9445,3.9766,0.0,3.98,0.0,0.0,0.0,4.3707,4.5026,4.4637,4.6413,4.7782,4.7753,0.0,4.8946,4.8895,4.9605,5.0392,5.1217,5.1302,5.1319,5.1369,5.1386,5.1386,5.1386,5.1386,5.1386,5.1386,5.1386,5.1386,5.1386,5.1319,5.1657,5.2384,5.1708,5.1386,5.1386,5.1386,5.1386,5.1386,5.1386,5.1386,5.1386,5.1386,5.1386,5.1386,5.1386,5.1386,5.1386,5.1386,5.1386,5.1386,5.1386,5.1386,5.1386,5.1386,5.1386,5.1386,5.1386,5.1386,5.1386,5.1386,5.1386,5.1708,5.3129,5.3501,5.3501,5.3501,5.3501,5.3501,5.3501,5.3501,5.3501,5.3501,5.3501,5.3501,5.3501,5.3501,5.3501,5.3501,5.3501,5.3501,5.3501,5.3501,5.3501,5.3501,5.3501,5.3501,5.3501,5.3501,5.3501,5.3501,5.3501,5.3501,5.3501,5.3501,5.3501,5.3501,5.3501,5.3501,5.3501,5.3501,5.3501,5.3501,5.3501,5.3501,3.5622,3.6315,3.7263,3.8159,0.0,0.0,0.0,0.0,0.0,4.0121,4.0104,0.0,0.0,0.0,4.5754,4.5923,4.7056,4.8034,4.8413,4.8798,4.8962,4.8899,4.9203,4.9712,5.0439,5.0524,5.071,5.1183,5.1217,5.1217,5.1217,5.1217,5.1217,5.1217,5.1217,5.1217,5.1217,5.076,5.0659,5.093,5.1116,5.1217,5.1217,5.1217,5.1217,5.1217,5.1217,5.1217,5.1217,5.1217,5.1217,5.1217,5.1217,5.1217,5.1217,5.1217,5.1217,5.1217,5.1217,5.1217,5.1217,5.1217,5.1217,5.1217,5.1217,5.1217,5.1217,5.1217,5.1217,5.1352,5.1928,5.208,5.2198,5.2655,5.2756,5.2892,5.3399,5.3501,5.3501,5.3501,5.3501,5.3501,5.3501,5.3501,5.3501,5.3501,5.3501,5.3501,5.3501,5.3501,5.3501,5.3501,5.3501,5.3501,5.3501,5.3501,5.3501,5.3501,5.3501,5.3501,5.3501,5.3501,5.3501,5.3501,5.3501,5.3501,5.3501,5.3501,5.3501,5.3501,5.3501,5.3501,3.5622,3.6738,3.8142,0.0,0.0,0.0,0.0,0.0,0.0,4.0713,4.117,0.0,0.0,0.0,0.0,0.0,4.6752,4.7817,4.8562,4.8849,4.9001,4.9001,4.9001,4.9204,4.9695,4.9746,4.9965,5.049,5.0524,5.0524,5.0524,5.0524,5.0524,5.0524,5.0524,5.0524,5.0524,4.9999,4.9746,4.9746,5.027,5.0524,5.0524,5.0524,5.0524,5.0524,5.0524,5.0524,5.0524,5.0524,5.0524,5.0524,5.0524,5.0524,5.0524,5.0524,5.0524,5.0524,5.0524,5.0524,5.0524,5.0524,5.0524,5.0524,5.0524,5.0524,5.0524,5.0524,5.0524,5.0524,5.0524,5.0862,5.1352,5.1843,5.1961,5.2114,5.2655,5.2959,5.3129,5.3129,5.3331,5.3501,5.3501,5.3501,5.3501,5.3501,5.3501,5.3501,5.3501,5.3501,5.3501,5.3501,5.3501,5.3501,5.3501,5.3501,5.3501,5.3501,5.3501,5.3501,5.3501,5.3501,5.3501,5.3501,5.3501,5.3501,5.3501,5.3501,5.3501,5.3501,5.3501,5.3501,3.5639,3.6772,0.0,0.0,0.0,0.0,4.2286,4.1153,4.051,4.1965,0.0,4.4113,4.2574,4.3538,0.0,4.3572,4.5314,4.7056,4.78,4.8528,4.8984,4.8984,4.9001,4.9001,4.9001,4.9001,4.9001,4.9001,4.9001,4.9001,4.9001,4.9001,4.9001,4.9001,4.9001,4.9001,4.9001,4.9001,4.9001,4.9001,4.9001,4.9001,4.9001,4.9001,4.9001,4.9001,4.9001,4.9001,4.9001,4.9001,4.9001,4.9001,4.9001,4.9001,4.9001,4.9001,4.9001,4.9001,4.9001,4.9001,4.9001,4.9001,4.9001,4.9001,4.9001,4.9001,4.9001,4.9001,4.9001,4.9001,4.9001,5.0084,5.12,5.12,5.12,5.12,5.1217,5.1775,5.2283,5.2283,5.2942,5.3484,5.3501,5.3501,5.3501,5.3501,5.3501,5.3501,5.3501,5.3501,5.3501,5.3501,5.3501,5.3501,5.3501,5.3501,5.3501,5.3501,5.3501,5.3501,5.3501,5.3501,5.3501,5.3501,5.3501,5.3501,5.3501,5.3501,5.3501,5.3501,5.3501,5.3501,3.7077,3.9073,0.0,4.0984,0.0,0.0,0.0,4.1948,0.0,0.0,4.2777,4.4113,4.2574,0.0,0.0,4.4976,4.5602,4.6278,4.7022,4.7767,4.824,4.824,4.8697,4.9001,4.9001,4.9001,4.9001,4.9001,4.9001,4.9001,4.9001,4.9001,4.9001,4.9001,4.9001,4.9001,4.9001,4.9001,4.9001,4.9001,4.9001,4.9001,4.9001,4.9001,4.9001,4.9001,4.9001,4.9001,4.9001,4.9001,4.9001,4.9001,4.9001,4.9001,4.9001,4.9001,4.9001,4.9001,4.9001,4.9001,4.9001,4.9001,4.9001,4.9001,4.9001,4.9001,4.9001,4.9001,4.9001,4.9001,4.9001,4.9323,4.9796,5.0304,5.0422,5.0574,5.1099,5.1386,5.1539,5.1539,5.1725,5.2063,5.257,5.2655,5.2858,5.3416,5.3501,5.3501,5.3501,5.3501,5.3501,5.3501,5.3501,5.3501,5.3501,5.3501,5.3501,5.3501,5.3501,5.3501,5.3501,5.3501,5.3501,5.3501,5.3501,5.3501,5.3501,5.3501,5.3501,5.3501,5.3501,5.3501,3.7702,0.0,0.0,4.2286,4.2743,4.3047,4.2422,0.0,0.0,0.0,0.0,4.4299,4.3369,4.3961,0.0,4.5179,4.5517,4.5855,4.6295,4.7005,4.7462,4.7462,4.7868,4.8122,4.8122,4.8122,4.8122,4.8122,4.8122,4.8122,4.8122,4.8122,4.8122,4.8122,4.8122,4.8122,4.8122,4.8122,4.8274,4.8578,4.8578,4.8731,4.9001,4.9001,4.9001,4.9001,4.9001,4.9001,4.9001,4.9001,4.9001,4.9001,4.9001,4.9001,4.9001,4.9001,4.9001,4.9001,4.9001,4.9001,4.9001,4.9001,4.9001,4.9001,4.9001,4.9001,4.9001,4.9001,4.9001,4.9001,4.9001,4.9001,4.912,4.956,4.9661,4.9779,5.0236,5.0574,5.076,5.076,5.1014,5.1352,5.1792,5.186,5.2131,5.2909,5.3298,5.3501,5.3501,5.3501,5.3501,5.3501,5.3501,5.3501,5.3501,5.3501,5.3501,5.3501,5.3501,5.3501,5.3501,5.3501,5.3501,5.3501,5.3501,5.3501,5.3501,5.3501,5.3501,5.3501,5.3501,5.3501,3.777,0.0,0.0,4.2455,4.3538,0.0,4.2811,4.2506,4.2422,4.2151,0.0,4.4536,4.4401,4.4485,4.4587,4.4587,4.5162,4.5602,4.5602,4.6227,4.6701,4.6701,4.6752,4.6786,4.6786,4.6786,4.6786,4.6786,4.6786,4.6786,4.6786,4.6786,4.6786,4.6786,4.6786,4.6786,4.6786,4.6786,4.7141,4.7817,4.7817,4.8156,4.8798,4.8934,4.9001,4.9001,4.9001,4.9001,4.9001,4.9001,4.9001,4.9001,4.9001,4.9001,4.9001,4.9001,4.9001,4.9001,4.9001,4.9001,4.9001,4.9001,4.9001,4.9001,4.9001,4.9001,4.9001,4.9001,4.9001,4.9001,4.9001,4.9001,4.9001,4.9001,4.9001,4.9001,4.9001,4.9526,4.9999,4.9999,5.0541,5.1031,5.1099,5.1116,5.1352,5.2097,5.2824,5.3315,5.3382,5.3399,5.3416,5.3501,5.3501,5.3501,5.3501,5.3501,5.3501,5.3501,5.3501,5.3501,5.3501,5.3501,5.3501,5.3501,5.3501,5.3501,5.3501,5.3501,5.3501,5.3501,5.3501,5.3501,3.8227,4.0476,0.0,0.0,4.4333,4.4485,4.4164,4.4096,4.3403,4.1035,4.2692,4.4215,4.3014,4.3758,4.4587,4.4587,4.4705,4.4823,4.4823,4.5466,4.594,4.594,4.6447,4.6786,4.6786,4.6786,4.6786,4.6786,4.6786,4.6786,4.6786,4.6786,4.6786,4.6786,4.6786,4.6786,4.6786,4.6786,4.687,4.7039,4.7039,4.7124,4.731,4.8477,4.9001,4.9001,4.9001,4.9001,4.9001,4.9001,4.9001,4.9001,4.9001,4.9001,4.9001,4.9001,4.9001,4.9001,4.9001,4.9001,4.9001,4.9001,4.9001,4.9001,4.9001,4.9001,4.9001,4.9001,4.9001,4.9001,4.9001,4.9001,4.9001,4.9001,4.9001,4.9001,4.9001,4.912,4.9238,4.9238,4.9373,4.9661,5.0236,5.0338,5.0591,5.1336,5.1589,5.1911,5.2486,5.2553,5.2807,5.3433,5.3501,5.3501,5.3501,5.3501,5.3501,5.3501,5.3501,5.3501,5.3501,5.3501,5.3501,5.3501,5.3501,5.3501,5.3501,5.3501,5.3501,5.3501,5.3501,5.3501,3.8379,0.0,0.0,4.4198,0.0,4.4587,4.4587,4.4587,4.413,4.2557,4.3487,4.4333,4.3538,4.4045,4.4587,4.4587,4.4587,4.4587,4.4587,4.4925,4.5162,4.5162,4.55,4.5737,4.5737,4.5737,4.5737,4.5737,4.5737,4.5737,4.5737,4.5737,4.5737,4.5737,4.5737,4.5737,4.5737,4.5737,4.5906,4.6261,4.6261,4.6447,4.6819,4.7597,4.7953,4.7953,4.7953,4.7953,4.7953,4.7953,4.8156,4.8477,4.8477,4.8697,4.9001,4.9001,4.9001,4.9001,4.9001,4.9001,4.9001,4.9001,4.9001,4.9001,4.9001,4.9001,4.9001,4.9001,4.9001,4.9001,4.9001,4.9001,4.9001,4.9001,4.9001,4.9001,4.9001,4.9001,4.9001,4.9001,4.9001,4.912,4.9509,4.9864,5.0219,5.0625,5.098,5.1352,5.1725,5.1775,5.1944,5.2367,5.2723,5.2926,5.2926,5.3281,5.3501,5.3501,5.3501,5.3501,5.3501,5.3501,5.3501,5.3501,5.3501,5.3501,5.3501,5.3501,5.3501,5.3501,5.3501,5.3501,3.7804,0.0,4.2625,4.4028,4.4485,0.0,4.4587,4.4587,4.4587,4.4587,4.4587,4.4587,4.4587,4.4587,4.4587,4.4587,4.4587,4.4587,4.4587,4.4587,4.4587,4.4587,4.4587,4.4587,4.4587,4.4587,4.4587,4.4587,4.4587,4.4587,4.4587,4.4587,4.4587,4.4587,4.4587,4.4587,4.4587,4.4587,4.4891,4.5517,4.5517,4.5821,4.6413,4.6413,4.6549,4.6786,4.6786,4.6786,4.6786,4.6786,4.7158,4.7733,4.7733,4.8088,4.8629,4.8629,4.8629,4.8629,4.8629,4.8629,4.8629,4.8629,4.8629,4.8646,4.8781,4.8815,4.8849,4.8968,4.9001,4.9001,4.9001,4.9001,4.9001,4.9001,4.9001,4.9001,4.9001,4.9001,4.9001,4.9001,4.9001,4.9001,4.9001,4.9509,4.9898,4.9898,5.0439,5.0879,5.0997,5.1014,5.1065,5.12,5.1758,5.2114,5.2114,5.2723,5.3112,5.3112,5.323,5.3298,5.3298,5.3433,5.3501,5.3501,5.3501,5.3501,5.3501,5.3501,5.3501,5.3501,5.3501,5.3501,0.0,0.0,4.2489,0.0,4.4079,4.4587,0.0,0.0,4.4587,0.0,4.4587,4.4587,4.4587,4.4587,4.4587,4.4587,4.4587,4.4587,4.4587,4.4587,4.4587,4.4587,4.4587,4.4587,4.4587,4.4587,4.4587,4.4587,4.4587,4.4587,4.4587,4.4587,4.4587,4.4587,4.4587,4.4587,4.4587,4.4587,4.4621,4.4722,4.4722,4.4773,4.4874,4.4874,4.5585,4.6786,4.6786,4.6786,4.6786,4.6786,4.6853,4.6938,4.6938,4.7005,4.709,4.709,4.709,4.709,4.709,4.709,4.709,4.709,4.709,4.7208,4.7868,4.8071,4.8189,4.8832,4.9001,4.9001,4.9001,4.9001,4.9001,4.9001,4.9001,4.9001,4.9001,4.9001,4.9001,4.9001,4.9001,4.9001,4.9001,4.9086,4.9154,4.9154,4.9238,4.9526,5.0152,5.0236,5.049,5.115,5.1302,5.1369,5.1369,5.1471,5.1522,5.1522,5.2114,5.2469,5.2469,5.3129,5.3501,5.3501,5.3501,5.3501,5.3501,5.3501,5.3501,5.3501,5.3501,5.3501,3.5013,3.8278,4.1136,0.0,4.2743,4.3927,4.3927,4.4265,4.4587,4.4587,4.4587,4.4587,4.4587,4.4587,4.4587,4.4587,4.4587,4.4587,4.4587,4.4587,4.4587,4.4587,4.4587,4.4587,4.4587,4.4587,4.4587,4.4587,4.4587,4.4587,4.4587,4.4587,4.4587,4.4587,4.4587,4.4587,4.4587,4.4587,4.4587,4.4587,4.4587,4.4587,4.4587,4.4587,4.4925,4.5551,4.5551,4.5551,4.5551,4.5551,4.5805,4.6177,4.6177,4.643,4.6786,4.6786,4.6786,4.6786,4.6786,4.6786,4.6786,4.6786,4.6786,4.6853,4.7192,4.7293,4.7344,4.7682,4.7767,4.7851,4.8291,4.8392,4.8494,4.89,4.9001,4.9001,4.9001,4.9001,4.9001,4.9001,4.9001,4.9001,4.9001,4.9001,4.9001,4.9001,4.9001,4.912,4.9441,4.9475,4.961,4.9932,5.0338,5.0591,5.0591,5.098,5.1217,5.1217,5.1522,5.1691,5.1691,5.2029,5.2418,5.2824,5.3281,5.3501,5.3501,5.3501,5.3501,5.3501,5.3501,5.3501,0.0,0.0,3.9089,3.9665,4.1204,4.2675,0.0,0.0,4.4045,0.0,4.4282,4.435,4.4536,4.4587,4.4587,4.4587,4.4587,4.4587,4.4587,4.4587,4.4587,4.4587,4.4587,4.4587,4.4587,4.4587,4.4587,4.4587,4.4587,4.4587,4.4587,4.4587,4.4587,4.4587,4.4587,4.4587,4.4587,4.4587,4.4587,4.4587,4.4587,4.4587,4.4587,4.4587,4.4587,4.4587,4.4587,4.4587,4.4587,4.4587,4.4908,4.5415,4.5415,4.5754,4.6227,4.6227,4.6227,4.6227,4.6227,4.6227,4.6227,4.6227,4.6227,4.6261,4.6447,4.6515,4.6549,4.6735,4.6786,4.6921,4.7479,4.7631,4.7767,4.8308,4.8578,4.8781,4.8968,4.9001,4.9001,4.9001,4.9001,4.9001,4.9001,4.9001,4.9001,4.9001,4.9001,4.9001,4.9001,4.9001,4.9001,4.9001,4.9492,4.9813,4.9813,5.0321,5.0659,5.0659,5.0828,5.093,5.093,5.1116,5.1471,5.2012,5.2621,5.3112,5.3501,5.3501,5.3501,5.3501,5.3501,5.3501,0.0,3.4658,0.0,3.8514,3.9648,0.0,0.0,0.0,4.2608,4.3335,4.347,4.3707,4.4451,4.4587,4.4587,4.4587,4.4587,4.4587,4.4587,4.4587,4.4587,4.4587,4.4587,4.4587,4.4587,4.4587,4.4587,4.4587,4.4587,4.4587,4.4587,4.4587,4.4587,4.4587,4.4587,4.4587,4.4587,4.4587,4.4587,4.4587,4.4587,4.4587,4.4587,4.4587,4.4587,4.4587,4.4587,4.4587,4.4587,4.4587,4.4604,4.4637,4.4637,4.4654,4.4688,4.4688,4.4688,4.4688,4.4688,4.4688,4.4688,4.4688,4.4688,4.4823,4.5551,4.5771,4.5906,4.6599,4.6786,4.6802,4.6836,4.6853,4.6853,4.6904,4.7462,4.8173,4.8849,4.9001,4.9001,4.9001,4.9001,4.9001,4.9001,4.9001,4.9001,4.9001,4.9001,4.9001,4.9001,4.9001,4.9001,4.9001,4.9035,4.9069,4.9069,4.9086,4.912,4.912,4.9763,5.0152,5.0152,5.0828,5.1234,5.1268,5.1319,5.2046,5.3501,5.3501,5.3501,5.3501,5.3501,5.3501,0.0,0.0,0.0,3.5199,3.6688,3.8091,3.8633,3.9851,4.095,4.1238,4.2049,4.2777,4.3064,4.391,4.4587,4.4587,4.4587,4.4587,4.4587,4.4587,4.4587,4.4587,4.4587,4.4587,4.4587,4.4587,4.4587,4.4587,4.4587,4.4587,4.4587,4.4587,4.4587,4.4587,4.4587,4.4587,4.4587,4.4587,4.4587,4.4587,4.4587,4.4587,4.4587,4.4587,4.4587,4.4587,4.4587,4.4587,4.4587,4.4587,4.4587,4.4587,4.4587,4.4587,4.4587,4.4587,4.4587,4.4587,4.4587,4.4587,4.4587,4.4587,4.4587,4.4621,4.4891,4.4976,4.5043,4.5297,4.5382,4.5483,4.5974,4.6092,4.621,4.6684,4.7005,4.7394,4.8139,4.868,4.9001,4.9001,4.9001,4.9001,4.9001,4.9001,4.9001,4.9001,4.9001,4.9001,4.9001,4.9001,4.9001,4.9001,4.9001,4.9001,4.9001,4.9001,4.9001,4.9001,4.9255,4.939,4.939,4.9661,5.0016,5.049,5.049,5.1234,5.2739,5.2739,5.301,5.3501,5.3501,5.3501,3.119,0.0,0.0,0.0,0.0,3.5774,3.6265,3.7922,3.9428,3.9681,4.0899,4.1999,4.2252,4.3132,4.3893,4.4147,4.4198,4.4282,4.4536,4.4587,4.4587,4.4587,4.4587,4.4587,4.4587,4.4587,4.4587,4.4587,4.4587,0.0,4.4587,4.4587,4.4587,4.4587,4.4587,4.4587,4.4587,4.4587,4.4587,4.4587,4.4587,4.4587,4.4587,4.4587,4.4587,4.4587,4.4587,4.4587,4.4587,4.4587,4.4587,4.4587,4.4587,4.4587,4.4587,4.4587,4.4587,4.4587,4.4587,4.4587,4.4587,4.4587,4.4587,4.4587,4.4587,4.4587,4.4587,4.4587,4.4587,4.4688,4.5196,4.5331,4.5517,4.6261,4.643,4.6633,4.7378,4.8122,4.8714,4.8951,4.9001,4.9001,4.9001,4.9001,4.9001,4.9001,4.9001,4.9001,4.9001,4.9001,4.9001,4.9001,4.9001,4.9001,4.9001,4.9001,4.9001,4.9001,4.9001,4.9001,4.9001,4.9001,4.9238,4.9712,4.9729,5.0321,5.1555,5.1809,5.2215,5.2739,5.2993,5.3247,0.0,0.0,0.0,0.0,0.0,0.0,3.5216,0.0,3.8007,3.8802,4.0104,4.1339,4.21,4.2236,4.2472,4.3234,4.3369,4.3656,4.4401,4.4502,4.4502,4.4502,4.4536,4.4536,4.4536,4.457,4.4587,4.4587,4.4587,4.4587,4.4587,4.4587,4.4587,4.4587,4.4587,4.4587,4.4587,4.4587,4.4587,4.4587,4.4626,4.4626,4.4587,4.4626,4.4626,4.4587,4.4587,4.4626,4.4626,4.4626,4.4587,4.4587,4.4587,4.4587,4.4587,4.4587,4.4587,4.4587,4.4587,4.4587,4.4587,4.4587,4.4587,4.4587,4.4587,4.4587,4.4587,4.4587,4.4587,4.4587,4.4587,4.4587,4.4756,4.55,4.5669,4.5872,4.6599,4.7344,4.8071,4.8832,4.8968,4.8984,4.9001,4.9001,4.9001,4.9001,4.9001,4.9001,4.9001,4.9001,4.9001,4.9001,4.9001,4.9001,4.9001,4.9001,4.9001,4.9001,4.9001,4.9001,4.9001,4.9001,4.9001,4.9001,4.9001,4.9357,5.005,5.0811,5.12,5.1234,5.1944,5.2689,3.119,0.0,0.0,0.0,0.0,0.0,3.3677,0.0,3.5334,3.7719,3.8531,3.9208,4.046,4.0696,4.0933,4.1694,4.2252,4.2675,4.2895,4.2929,4.2929,4.2929,4.3403,4.3741,4.3741,4.4248,4.4587,0.0,4.4587,4.4587,4.4587,4.4587,4.4587,4.4587,4.4587,4.4587,4.4587,4.4587,4.4587,4.4643,4.5052,4.5052,4.4626,4.5052,4.4998,4.4587,4.4587,4.4869,4.5232,4.4759,4.4587,4.4587,4.4587,4.4587,4.4587,4.4587,4.4587,4.4587,4.4587,4.4587,4.4587,4.4587,4.4587,4.4587,4.4587,4.4587,4.4587,4.4587,4.4587,4.4587,4.4587,4.4587,4.4621,4.484,4.4891,4.5094,4.5855,4.6177,4.6701,4.797,4.8223,4.8392,4.8917,4.9001,4.9001,4.9001,4.9001,4.9001,4.9001,4.9001,4.9001,4.9001,4.9001,4.9001,4.9001,4.9001,4.9001,4.9001,4.9001,4.9001,4.9001,4.9001,4.9001,4.9001,4.9001,4.9103,4.9306,5.0033,5.0676,5.1217,5.142,5.164,0.0,0.0,0.0,0.0,0.0,0.0,3.229,3.2966,3.4083,3.6468,3.6958,3.7415,3.8903,3.865,3.8565,3.9648,4.0189,4.0882,4.2117,4.2286,4.2286,4.2286,4.2675,4.2946,4.2946,4.3369,4.3758,4.4079,4.4096,4.4231,4.4553,4.4587,4.4587,4.4587,4.4587,4.4587,4.4587,4.4587,4.4587,4.457,4.4961,4.4961,4.4626,4.5232,4.532,4.4998,4.5232,4.5545,4.5833,4.5511,4.5178,4.4944,4.472,4.4587,4.4587,4.4587,4.4587,4.4587,4.4587,4.4587,4.4587,4.4587,4.4587,4.4587,4.4587,4.4587,4.4587,4.4587,4.4587,4.4587,4.4587,4.4587,4.4587,4.4587,4.4587,4.4705,4.5145,4.5229,4.5686,4.7158,4.7699,4.8054,4.8477,4.8798,4.9001,4.9001,4.9001,4.9001,4.9001,4.9001,4.9001,4.9001,4.9001,4.9001,4.9001,4.9001,4.9001,4.9001,4.9001,4.9001,4.9001,4.9001,4.9001,4.9001,4.9001,4.9001,4.9001,4.9424,5.0016,5.0744,5.0744,5.0913,0.0,0.0,0.0,0.0,0.0,0.0,3.1278,3.2258,3.3575,3.5263,3.5464,3.5842,3.7411,3.6581,3.6062,3.7462,3.7835,3.887,4.1644,4.2049,4.2049,4.2049,4.2117,4.2221,4.2274,4.2342,4.2717,4.3433,4.3484,4.3736,4.4393,4.4512,4.4546,4.4451,4.4536,4.4587,4.4587,4.4682,4.472,4.472,4.4869,4.4852,4.4814,4.5407,4.5699,4.5648,4.6143,4.643,4.6524,4.643,4.6094,4.5563,4.4998,4.4776,4.472,4.472,4.4682,4.4587,4.4587,4.4587,4.4587,4.4587,4.4587,4.4587,4.4587,4.4587,4.4587,4.4587,4.4587,4.4587,4.4587,4.4587,4.4587,4.4587,4.4587,4.4587,4.4587,4.4587,4.4976,4.6295,4.7158,4.7699,4.7784,4.8392,4.8883,4.8883,4.8951,4.9001,4.9001,4.9001,4.9001,4.9001,4.9001,4.9001,4.9001,4.9001,4.9001,4.9001,4.9001,4.9001,4.9001,4.9001,4.9001,4.9001,4.9001,4.9001,4.9001,4.9001,4.934,4.9965,4.9965,5.0338,0.0,0.0,0.0,0.0,0.0,0.0,3.1795,3.1582,3.2027,3.5105,3.4747,3.4415,3.6285,3.6059,3.5841,3.6509,3.7354,3.8514,4.0257,4.051,4.051,4.051,4.1052,4.1614,4.2066,4.2666,4.3244,4.3833,4.388,4.3777,4.3509,4.4044,4.4144,4.3639,4.4248,4.4587,4.4587,4.5089,4.532,4.532,4.6353,4.6589,4.6046,4.6728,4.671,4.624,4.6336,4.671,4.715,4.6618,4.6336,4.6192,4.6094,4.5732,4.532,4.532,4.4998,4.4587,4.4587,4.4587,4.4587,4.4587,4.4587,4.4587,4.4587,4.4587,4.4587,4.4587,4.4587,4.4587,4.4587,4.4587,4.4587,4.4587,4.4587,4.4587,4.4587,4.4587,4.4671,4.4959,4.5618,4.6329,4.6904,4.7631,4.8122,4.8122,4.8629,4.9001,4.9001,4.9001,4.9001,4.9001,4.9001,4.9001,4.9001,4.9001,4.9001,4.9001,4.9001,4.9001,4.9001,4.9001,4.9001,4.9001,4.9001,4.9001,4.9001,4.9001,4.9069,4.9221,4.9221,4.9289,0.0,0.0,0.0,3.0168,0.0,0.0,0.0,3.0758,3.1077,3.3547,3.2823,3.2291,3.3987,3.3505,3.317,3.4161,3.5099,3.6232,3.7749,3.9208,4.007,4.007,4.0409,4.0781,4.1047,4.1698,4.2457,4.3358,4.3792,4.3885,4.3623,4.396,4.4025,4.3679,4.4076,4.4508,4.4888,4.5207,4.553,4.5965,4.6589,4.671,4.6413,4.7088,4.7194,4.691,4.7237,4.7554,4.7797,4.7512,4.7367,4.7263,4.6664,4.6192,4.5965,4.5965,4.5732,4.5459,4.5125,4.5052,4.4998,4.472,4.4587,4.4587,4.4587,4.4587,4.4587,4.4587,4.4587,4.4587,4.4587,4.4587,4.4587,4.4587,4.4587,4.4587,4.4587,4.4587,4.4587,4.4587,4.4891,4.5382,4.6126,4.687,4.7361,4.7361,4.7986,4.846,4.846,4.8781,4.9001,4.9001,4.9001,4.9001,4.9001,4.9001,4.9001,4.9001,4.9001,4.9001,4.9001,4.9001,4.9001,4.9001,4.9001,4.9001,4.9001,4.9001,4.9001,4.9001,4.9001,4.9001,0.0,0.0,0.0,0.0,0.0,2.9876,0.0,0.0,0.0,3.1643,3.0928,3.0494,3.1762,3.0953,0.0,3.1603,0.0,0.0,0.0,3.7353,0.0,3.945,3.9515,3.9682,4.0083,4.0913,4.185,4.2917,4.3576,4.3845,4.3757,4.3899,4.3899,4.3792,4.3951,4.4304,4.4968,4.5123,4.5577,4.634,4.6496,4.6613,4.6801,4.7324,4.7572,4.7614,4.8075,4.8306,4.8306,4.8306,4.8306,4.821,4.7176,4.671,4.6571,4.6571,4.6524,4.6336,4.5815,4.5681,4.5597,4.5089,4.4961,4.4906,4.4814,4.4759,4.4776,4.4626,4.4587,4.4587,4.4587,4.4587,4.4587,4.4587,4.4587,4.4587,4.4587,4.4587,4.4587,4.4587,4.4587,4.4773,4.5382,4.6092,4.6583,4.6583,4.7225,4.7699,4.7699,4.8342,4.8798,4.8798,4.8917,4.9001,4.9001,4.9001,4.9001,4.9001,4.9001,4.9001,4.9001,4.9001,4.9001,4.9001,4.9001,4.9001,4.9001,4.9001,4.9001,4.9001,4.9001,4.9001,0.0,0.0,0.0,0.0,2.9113,0.0,0.0,0.0,2.9801,3.0341,0.0,3.0269,3.0854,0.0,0.0,0.0,0.0,0.0,3.2255,3.397,3.5727,3.7193,3.7351,3.8117,3.9991,4.2014,4.3268,4.3414,4.3505,4.3342,4.2868,4.3494,4.359,4.3023,4.365,4.4057,4.4145,4.4754,4.542,4.6212,4.6761,4.7398,4.8075,4.8172,4.821,4.821,4.8267,4.8306,4.8306,4.8306,4.8306,4.8306,4.8114,4.7756,4.7299,4.7299,4.691,4.6383,4.6336,4.6288,4.6288,4.624,4.6192,4.6112,4.5545,4.5425,4.5267,4.4776,4.4587,4.4587,4.4587,4.4587,4.4587,4.4587,4.4587,4.4587,4.4587,4.4587,4.4587,4.4587,4.4587,4.4604,4.4688,4.5331,4.5821,4.5821,4.6447,4.6921,4.6921,4.7581,4.8037,4.8037,4.8612,4.9001,4.9001,4.9001,4.9001,4.9001,4.9001,4.9001,4.9001,4.9001,4.9001,4.9001,4.9001,4.9001,4.9001,4.9001,4.9001,4.9001,4.9001,4.9001,0.0,0.0,0.0,0.0,0.0,0.0,2.9195,0.0,2.9302,0.0,0.0,0.0,0.0,0.0,0.0,0.0,3.0278,3.101,0.0,0.0,3.3476,3.5379,0.0,0.0,3.9949,4.0202,4.0719,4.1996,4.2121,4.2001,4.1757,4.2941,4.3523,4.326,4.3547,4.3945,4.4415,4.4685,4.5219,4.602,4.6286,4.6838,4.7609,4.7609,4.7865,4.8306,4.8306,4.8306,4.8306,4.8306,4.8306,4.8306,4.8306,4.8172,4.7937,4.7937,4.7738,4.7452,4.7088,4.6999,4.691,4.6524,4.6383,4.6336,4.6112,4.6014,4.5915,4.5267,4.5142,4.5052,4.4665,4.4587,4.4587,4.4587,4.4587,4.4587,4.4587,4.4587,4.4587,4.4587,4.4587,4.4587,4.4587,4.484,4.5043,4.5043,4.5686,4.616,4.616,4.6819,4.7445,4.7868,4.8189,4.8545,4.8968,4.9001,4.9001,4.9001,4.9001,4.9001,4.9001,4.9001,4.9001,4.9001,4.9359,4.9563,4.9563,4.9993,5.0202,5.0202,4.9359,4.9001,3.1953,0.0,0.0,0.0,0.0,0.0,0.0,0.0,0.0,0.0,0.0,0.0,0.0,0.0,0.0,0.0,0.0,2.9787,0.0,3.0228,0.0,0.0,0.0,0.0,0.0,3.8138,3.847,4.0308,4.0451,4.0634,4.1093,4.2213,4.3039,4.3479,4.3497,4.3773,4.4378,4.4378,4.4782,4.5571,4.5571,4.5993,4.6783,4.6783,4.7095,4.7664,4.7884,4.7976,4.7994,4.8214,4.8306,4.8306,4.8306,4.8306,4.8306,4.8306,4.8306,4.8229,4.7797,4.7656,4.7572,4.7088,4.6937,4.6847,4.6524,4.6524,4.6524,4.5732,4.5597,4.5648,4.5232,4.4944,4.4869,4.4869,4.472,4.4587,4.4587,4.472,4.4814,4.4626,4.472,4.4814,4.4626,4.4587,4.4587,4.4587,4.5043,4.5399,4.5399,4.6041,4.6701,4.7259,4.7682,4.8139,4.8663,4.8883,4.9001,4.9001,4.9001,4.9107,4.9256,4.9256,4.9359,4.958,5.0033,5.0297,5.0297,5.0823,5.1086,5.1086,5.005,4.958,0.0,0.0,0.0,3.333,0.0,0.0,0.0,0.0,2.8994,0.0,0.0,0.0,0.0,0.0,0.0,0.0,0.0,0.0,0.0,0.0,0.0,0.0,0.0,0.0,0.0,3.6586,3.7863,3.8726,3.8781,3.946,4.1038,4.1167,4.1901,4.3442,4.3497,4.3497,4.3534,4.3534,4.3938,4.4745,4.4745,4.5168,4.5938,4.5938,4.5957,4.6012,4.6819,4.715,4.7223,4.7994,4.8306,4.8306,4.8306,4.8306,4.8306,4.8306,4.8306,4.8306,4.8267,4.8267,4.8267,4.8267,4.8249,4.8017,4.6756,4.6847,4.7106,4.5833,4.5915,4.6383,4.6336,4.5915,4.5459,4.5459,4.5052,4.4587,4.4587,4.5035,4.5267,4.472,4.5089,4.5284,4.472,4.4587,4.4587,4.4587,4.4604,4.4621,4.4621,4.528,4.5754,4.5771,4.7073,4.7936,4.7953,4.8595,4.9001,4.9001,4.9001,4.9316,4.9919,4.9976,5.0297,5.1034,5.1034,5.1086,5.1086,5.1086,5.1086,5.1086,5.1034,5.1034,0.0,0.0,3.4761,3.5312,0.0,0.0,0.0,0.0,0.0,0.0,0.0,0.0,0.0,0.0,0.0,0.0,0.0,0.0,0.0,0.0,2.9195,0.0,0.0,0.0,0.0,0.0,3.4229,3.6119,3.6237,3.7221,3.9405,4.0524,4.1846,4.3442,4.3497,4.3497,4.3497,4.3497,4.3626,4.3901,4.3901,4.4323,4.5112,4.5112,4.5406,4.592,4.6195,4.6305,4.6379,4.7186,4.7517,4.7572,4.8104,4.8306,4.8306,4.8306,4.8306,4.8306,4.8306,4.8306,4.8306,4.8306,4.8306,4.821,4.7797,4.7838,4.7797,4.6999,4.691,4.6955,4.6524,4.624,4.6014,4.5597,4.532,4.5089,4.4682,4.4759,4.4869,4.4626,4.5089,4.5459,4.5232,4.5511,4.5511,4.472,4.4587,4.4587,4.4587,4.4807,4.5162,4.5652,4.616,4.7037,4.8461,4.9712,5.0407,5.0407,5.0407,5.0517,5.0716,5.0716,5.0823,5.1086,5.1544,5.1741,5.1741,5.2242,5.2481,5.2481,5.2481,5.1988,3.6853,3.6743,0.0,3.7019,3.5459,0.0,3.3238,0.0,3.0723,0.0,0.0,0.0,0.0,0.0,0.0,0.0,0.0,0.0,0.0,2.8994,0.0,0.0,0.0,0.0,0.0,3.1586,3.1733,3.3587,3.3733,3.5055,3.8102,3.9258,4.0946,4.3406,4.3497,4.3497,4.3497,4.3497,4.3497,4.3497,4.3497,4.3754,4.4268,4.4268,4.4562,4.5057,4.5351,4.548,4.5535,4.6342,4.6673,4.6764,4.7572,4.7884,4.7921,4.8196,4.8306,4.8306,4.8306,4.8306,4.8306,4.8306,4.8306,4.8267,4.8035,4.8132,4.8172,4.7572,4.7572,4.7614,4.7176,4.691,4.6664,4.6257,4.5965,4.5648,4.5052,4.5089,4.5178,4.4944,4.5425,4.5833,4.5833,4.6143,4.6161,4.5372,4.5232,4.5232,4.5232,4.5232,4.5421,4.592,4.6212,4.7188,4.9079,5.0136,5.0803,5.1068,5.1086,5.1189,5.1444,5.1444,5.1562,5.1825,5.2289,5.249,5.249,5.298,5.3206,5.3206,5.3206,5.2725]},{"header":{"parameterUnit":"m.s-1","parameterCategory":1,"la1":30.6,"la2":29.2853,"lo1":-89.7004,"lo2":-87.6739,"dy":0.0162,"dx":0.0183,"nx":112,"ny":82,"refTime":"2023-09-09T06:00:00:Z","depth":0,"parameterNumber":3,"parameterNumberName":"V-component_of_WINDS"},"data":[0.0,0.0,0.0,0.0,0.0,0.0,0.0,0.0,0.0,0.0,0.0,0.0,0.0,0.0,0.0,0.0,0.0,0.0,0.0,0.0,0.0,0.0,0.0,0.0,0.0,0.0,0.0,0.0,0.0,0.0,0.0,0.0,0.0,0.0,0.0,0.0,0.0,0.0,0.0,0.0,0.0,0.0,0.0,0.0,0.0,0.0,0.0,0.0,0.0,0.0,0.0,0.0,0.0,0.0,0.0,0.0,0.0,0.0,0.0,0.0,0.0,0.0,0.0,0.0,0.0,0.0,0.0,0.0,0.0,0.0,0.0,0.0,0.0,0.0,0.0,0.0,0.0,0.0,0.0,0.0,0.0,0.0,0.0,0.0,0.0,0.0,0.0,0.0,0.0,0.0,1.4897,1.5077,1.5538,1.5832,1.5832,1.5832,1.5331,1.4162,0.0,0.0,0.0,0.0,0.0,0.0,0.0,0.0,0.0,0.0,0.0,0.0,0.0,0.0,0.0,0.0,0.0,0.0,0.0,0.0,0.0,0.0,0.0,0.0,0.0,0.0,0.0,0.0,0.0,0.0,0.0,0.0,0.0,0.0,0.0,0.0,0.0,0.0,0.0,0.0,0.0,0.0,0.0,0.0,0.0,0.0,0.0,0.0,0.0,0.0,0.0,0.0,0.0,0.0,0.0,0.0,0.0,0.0,0.0,0.0,0.0,0.0,0.0,0.0,0.0,0.0,0.0,0.0,0.0,0.0,0.0,0.0,0.0,0.0,0.0,0.0,0.0,0.0,0.0,0.0,0.0,0.0,0.0,0.0,0.0,0.0,0.0,0.0,0.0,0.0,0.0,0.0,0.0,0.0,0.0,0.0,0.0,0.0,0.0,0.0,0.0,0.0,0.0,0.0,1.4603,1.5591,1.5772,1.5832,1.5832,1.5832,1.5331,1.4162,0.0,0.0,0.0,0.0,0.0,0.0,0.0,0.0,0.0,0.0,0.0,0.0,0.0,0.0,0.0,0.0,0.0,0.0,0.0,0.0,0.0,0.0,0.0,0.0,0.0,0.0,0.0,0.0,0.0,0.0,0.0,0.0,0.0,0.0,0.0,0.0,0.0,0.0,0.0,0.0,0.0,0.0,0.0,0.0,0.0,0.0,0.0,0.0,0.0,0.0,0.0,0.0,0.0,0.0,0.0,0.0,0.0,0.0,0.0,0.0,0.0,0.0,0.0,0.0,0.0,0.0,0.0,0.0,0.0,0.0,0.0,0.0,0.0,0.0,0.0,0.0,0.0,0.0,0.0,0.0,0.0,0.0,0.0,0.0,0.0,0.0,0.0,0.0,0.0,0.0,0.0,0.0,0.0,0.0,0.0,0.0,0.0,0.0,0.0,0.0,0.0,0.0,0.0,1.4476,1.5297,1.5999,1.6213,1.6306,1.6306,1.6306,1.5805,1.4636,1.4409,0.0,0.0,0.0,0.0,0.0,0.0,0.0,0.0,0.0,0.0,0.0,0.0,0.0,0.0,0.0,0.0,0.0,0.0,0.0,0.0,0.0,0.0,0.0,0.0,0.0,0.0,0.0,0.0,0.0,0.0,0.0,0.0,0.0,0.0,0.0,0.0,0.0,0.0,0.0,0.0,0.0,0.0,0.0,0.0,0.0,0.0,0.0,0.0,0.0,0.0,0.0,0.0,0.0,0.0,0.0,0.0,0.0,0.0,0.0,0.0,0.0,0.0,0.0,0.0,0.0,0.0,0.0,0.0,0.0,0.0,0.0,0.0,0.0,0.0,0.0,0.0,0.0,0.0,0.0,0.0,0.0,0.0,0.0,0.0,0.0,0.0,0.0,0.0,0.0,0.0,0.0,0.0,0.0,0.0,0.0,0.0,0.0,0.0,0.0,0.0,0.0,0.0,1.5317,1.6119,1.6353,1.6573,1.6707,1.6707,1.658,1.6059,1.503,1.4623,0.0,0.0,0.0,0.0,0.0,0.0,0.0,0.0,0.0,0.0,0.0,0.0,0.0,0.0,0.0,0.0,0.0,0.0,0.0,0.0,0.0,0.0,0.0,0.0,0.0,0.0,0.0,0.0,0.0,0.0,0.0,0.0,0.0,0.0,0.0,0.0,0.0,0.0,0.0,0.0,0.0,0.0,0.0,0.0,0.0,0.0,0.0,0.0,0.0,0.0,0.0,0.0,0.0,0.0,0.0,0.0,0.0,0.0,0.0,0.0,0.0,0.0,0.0,0.0,0.0,0.0,0.0,0.0,0.0,0.0,0.0,0.0,0.0,0.0,0.0,0.0,0.0,0.0,0.0,0.0,0.0,0.0,0.0,0.0,0.0,0.0,0.0,0.0,0.0,0.0,0.0,0.0,0.0,0.0,0.0,0.0,0.0,0.0,0.0,0.0,0.0,0.0,1.5919,1.6653,1.6673,1.6693,1.6707,1.6707,1.6206,1.5625,1.5003,1.4429,0.0,0.0,0.0,0.0,0.0,0.0,0.0,0.0,0.0,0.0,0.0,0.0,0.0,0.0,0.0,0.0,0.0,0.0,0.0,0.0,0.0,0.0,0.0,0.0,0.0,0.0,0.0,0.0,0.0,0.0,0.0,0.0,0.0,0.0,0.0,0.0,0.0,0.0,0.0,0.0,0.0,0.0,0.0,0.0,0.0,0.0,0.0,0.0,0.0,0.0,0.0,0.0,0.0,0.0,0.0,0.0,0.0,0.0,0.0,0.0,0.0,0.0,0.0,0.0,0.0,0.0,0.0,0.0,0.0,0.0,0.0,0.0,0.0,0.0,0.0,0.0,0.0,0.0,0.0,0.0,0.0,0.0,0.0,0.0,0.0,0.0,0.0,0.0,0.0,0.0,0.0,0.0,0.0,0.0,0.0,0.0,0.0,0.0,0.0,0.0,0.0,0.0,1.5985,1.6774,0.0,1.7148,1.7255,1.7255,1.7048,1.652,1.5565,0.0,0.0,0.0,0.0,0.0,0.0,0.0,0.0,0.0,0.0,0.0,0.0,0.0,0.0,0.0,0.0,0.0,0.0,0.0,0.0,0.0,0.0,0.0,0.0,0.0,0.0,0.0,0.0,0.0,0.0,0.0,0.0,0.0,0.0,0.0,0.0,0.0,0.0,0.0,0.0,0.0,0.0,0.0,0.0,0.0,0.0,0.0,0.0,0.0,0.0,0.0,0.0,0.0,0.0,0.0,0.0,0.0,0.0,0.0,0.0,0.0,0.0,0.0,0.0,0.0,0.0,0.0,0.0,0.0,0.0,0.0,0.0,0.0,0.0,0.0,0.0,0.0,0.0,0.0,0.0,0.0,0.0,0.0,0.0,0.0,0.0,0.0,0.0,0.0,0.0,0.0,0.0,0.0,0.0,0.0,0.0,0.0,0.0,0.0,0.0,0.0,0.0,1.5177,1.6259,1.7061,0.0,1.7462,1.7582,1.7582,1.7408,1.6881,1.5892,0.0,0.0,0.0,0.0,0.0,0.0,0.0,0.0,0.0,0.0,0.0,0.0,0.0,0.0,0.0,0.0,0.0,0.0,0.0,0.0,0.0,0.0,0.0,0.0,0.0,0.0,0.0,0.0,0.0,0.0,0.0,0.0,0.0,0.0,0.0,0.0,0.0,0.0,0.0,0.0,0.0,0.0,0.0,0.0,0.0,0.0,0.0,0.0,0.0,0.0,0.0,0.0,0.0,0.0,0.0,0.0,0.0,0.0,0.0,0.0,0.0,0.0,0.0,0.0,0.0,0.0,0.0,0.0,0.0,0.0,0.0,0.0,0.0,0.0,0.0,0.0,0.0,0.0,0.0,0.0,0.0,0.0,0.0,0.0,0.0,0.0,0.0,0.0,0.0,0.0,0.0,0.0,0.0,0.0,0.0,0.0,0.0,0.0,0.0,0.0,0.0,0.0,1.5792,1.6854,1.7582,1.7582,1.7582,1.7582,1.7582,1.7048,1.646,0.0,0.0,0.0,0.0,0.0,0.0,0.0,0.0,0.0,0.0,0.0,0.0,0.0,0.0,0.0,0.0,0.0,0.0,0.0,0.0,0.0,0.0,0.0,0.0,0.0,0.0,0.0,0.0,0.0,0.0,0.0,0.0,0.0,0.0,0.0,0.0,0.0,0.0,0.0,0.0,0.0,0.0,0.0,0.0,0.0,0.0,0.0,0.0,0.0,0.0,0.0,0.0,0.0,0.0,0.0,0.0,0.0,0.0,0.0,0.0,0.0,0.0,0.0,0.0,0.0,0.0,0.0,0.0,0.0,0.0,0.0,0.0,0.0,0.0,0.0,0.0,0.0,0.0,0.0,0.0,0.0,0.0,0.0,0.0,0.0,0.0,0.0,0.0,0.0,0.0,0.0,0.0,0.0,0.0,0.0,0.0,0.0,0.0,0.0,0.0,0.0,0.0,0.0,1.5792,1.6854,1.7582,1.7582,1.7582,1.7582,1.7582,1.7428,1.6894,1.5892,0.0,0.0,0.0,0.0,0.0,0.0,0.0,0.0,0.0,0.0,0.0,0.0,0.0,0.0,0.0,0.0,0.0,0.0,0.0,0.0,0.0,0.0,0.0,0.0,0.0,0.0,0.0,0.0,0.0,0.0,0.0,0.0,0.0,0.0,0.0,0.0,0.0,0.0,0.0,0.0,0.0,0.0,0.0,0.0,0.0,0.0,0.0,0.0,0.0,0.0,0.0,0.0,0.0,0.0,0.0,0.0,0.0,0.0,0.0,0.0,0.0,0.0,0.0,0.0,0.0,0.0,0.0,0.0,0.0,0.0,0.0,0.0,0.0,0.0,0.0,0.0,0.0,0.0,0.0,0.0,0.0,0.0,0.0,0.0,0.0,0.0,0.0,0.0,0.0,0.0,0.0,0.0,0.0,0.0,0.0,0.0,0.0,0.0,0.0,0.0,0.0,0.0,1.5805,1.6854,1.7582,1.7582,1.7582,1.7582,1.7582,1.7582,1.7181,1.6239,0.0,0.0,0.0,0.0,0.0,0.0,0.0,0.0,0.0,0.0,0.0,0.0,0.0,0.0,0.0,0.0,0.0,0.0,0.0,0.0,0.0,0.0,0.0,0.0,0.0,0.0,0.0,0.0,0.0,0.0,0.0,0.0,0.0,0.0,0.0,0.0,0.0,0.0,0.0,0.0,0.0,0.0,0.0,0.0,0.0,0.0,0.0,0.0,0.0,0.0,0.0,0.0,0.0,0.0,0.0,0.0,0.0,0.0,0.0,0.0,0.0,0.0,0.0,0.0,0.0,0.0,0.0,0.0,0.0,0.0,0.0,0.0,0.0,0.0,0.0,0.0,0.0,0.0,0.0,0.0,0.0,0.0,0.0,0.0,0.0,0.0,0.0,0.0,0.0,0.0,0.0,0.0,0.0,0.0,0.0,0.0,0.0,0.0,0.0,0.0,0.0,0.0,1.5832,1.6854,1.7582,1.7582,1.7582,1.7582,1.7582,1.7582,1.7328,1.674,0.0,0.0,0.0,0.0,0.0,0.0,0.0,0.0,0.0,0.0,0.0,0.0,0.0,0.0,0.0,0.0,0.0,0.0,0.0,0.0,0.0,0.0,0.0,0.0,0.0,0.0,0.0,0.0,0.0,0.0,0.0,0.0,0.0,0.0,0.0,0.0,0.0,0.0,0.0,0.0,0.0,0.0,0.0,0.0,0.0,0.0,0.0,0.0,0.0,0.0,0.0,0.0,0.0,0.0,0.0,0.0,0.0,0.0,0.0,0.0,1.2291,0.0,0.0,0.0,0.0,0.0,0.0,0.0,0.0,0.0,0.0,0.0,0.0,0.0,0.0,0.0,0.0,0.0,0.0,0.0,0.0,0.0,0.0,0.0,0.0,0.0,0.0,0.0,0.0,0.0,0.0,0.0,0.0,0.0,0.0,0.0,0.0,0.0,0.0,0.0,0.0,0.0,1.5832,1.6854,1.7582,1.7582,1.7582,1.7582,1.7582,1.7582,1.7328,1.674,1.6587,0.0,0.0,0.0,0.0,0.0,0.0,0.0,0.0,0.0,0.0,0.0,0.0,0.0,0.0,0.0,0.0,0.0,0.0,0.0,0.0,0.0,0.0,0.0,0.0,0.0,0.0,0.0,0.0,0.0,0.0,0.0,0.0,0.0,0.0,0.0,0.0,0.0,0.0,0.0,0.0,0.0,0.0,0.0,0.0,0.0,0.0,0.0,0.0,0.0,0.0,0.0,0.0,0.0,0.0,0.0,0.0,0.0,0.0,0.0,0.0,1.2445,0.0,0.0,0.0,0.0,0.0,0.0,0.0,0.0,0.0,0.0,0.0,0.0,0.0,0.0,0.0,0.0,0.0,0.0,0.0,0.0,0.0,0.0,0.0,0.0,0.0,0.0,0.0,0.0,0.0,0.0,0.0,0.0,0.0,0.0,0.0,0.0,0.0,0.0,0.0,0.0,1.6213,1.7027,1.7582,1.7582,1.7582,1.7582,1.7582,1.7582,1.7448,1.7148,1.686,0.0,0.0,0.0,0.0,0.0,0.0,0.0,0.0,0.0,0.0,0.0,0.0,0.0,0.0,0.0,0.0,0.0,0.0,0.0,0.0,0.0,0.0,0.0,0.0,0.0,0.0,0.0,0.0,0.0,0.0,0.0,0.0,0.0,0.0,0.0,0.0,0.0,0.0,0.0,0.0,0.0,0.0,0.0,0.0,0.0,0.0,0.0,0.0,0.0,0.0,0.0,0.0,0.0,1.4508,1.4638,1.4884,1.4884,1.4797,1.4516,1.3921,1.3888,1.4162,1.3173,0.0,0.0,0.0,0.0,0.0,0.0,0.0,0.0,0.0,0.0,0.0,0.0,0.0,0.0,0.0,0.0,0.0,0.0,0.0,0.0,0.0,0.0,0.0,0.0,1.5625,1.5504,1.507,0.0,0.0,0.0,0.0,0.0,0.0,0.0,0.0,0.0,0.0,0.0,1.6647,1.7215,1.7582,1.7582,1.7582,1.7582,1.7582,1.7582,1.7582,1.7582,1.7128,1.686,0.0,0.0,0.0,0.0,0.0,0.0,0.0,0.0,0.0,0.0,0.0,0.0,0.0,0.0,0.0,0.0,0.0,0.0,0.0,0.0,0.0,0.0,0.0,0.0,0.0,0.0,0.0,0.0,0.0,0.0,0.0,0.0,1.4947,1.5825,0.0,0.0,0.0,0.0,0.0,0.0,0.0,0.0,0.0,0.0,0.0,0.0,0.0,1.5614,1.6854,1.5729,1.6054,1.8008,1.8008,1.803,1.8075,1.8075,1.7509,1.6326,1.5738,0.0,1.4836,1.4676,0.0,0.0,0.0,0.0,0.0,0.0,0.0,0.0,0.0,0.0,0.0,0.0,0.0,0.0,0.0,0.0,0.0,0.0,0.0,0.0,0.0,0.0,1.6393,1.6506,1.6533,1.6587,0.0,1.5805,1.4897,1.4856,1.505,0.0,0.0,0.0,0.0,0.0,0.0,0.0,1.6693,1.7215,1.7582,1.7582,1.7582,1.7582,1.7582,1.7582,1.7582,1.7582,1.7508,1.7468,1.7468,1.6974,0.0,0.0,0.0,0.0,0.0,0.0,0.0,0.0,0.0,0.0,0.0,0.0,0.0,0.0,0.0,0.0,0.0,0.0,0.0,0.0,0.0,0.0,0.0,0.0,0.0,0.0,0.0,0.0,0.0,1.4011,1.5205,1.5826,1.5389,1.4612,0.0,0.0,0.0,0.0,0.0,0.0,0.0,0.0,0.0,1.8795,1.8308,1.837,1.9301,1.8746,1.8969,2.0091,2.0091,2.0194,2.0384,2.0384,2.0084,1.9474,1.9277,1.8987,1.8563,1.6362,1.5451,1.5398,0.0,0.0,0.0,0.0,1.4195,1.4235,1.4489,1.4963,0.0,1.515,0.0,0.0,0.0,0.0,0.0,0.0,0.0,0.0,0.0,0.0,1.6339,1.6834,1.6954,1.7034,1.7328,1.6887,1.6339,0.0,1.6046,1.5945,1.5357,0.0,0.0,0.0,0.0,1.6827,1.7154,1.7422,1.7582,1.7582,1.7582,1.7582,1.7582,1.7582,1.7582,1.7582,1.7582,1.7582,1.7582,1.7335,1.7041,0.0,0.0,0.0,0.0,0.0,0.0,0.0,0.0,0.0,0.0,0.0,0.0,0.0,0.0,0.0,0.0,0.0,0.0,0.0,0.0,0.0,0.0,0.0,0.0,0.0,0.0,0.0,0.0,1.511,1.625,1.6319,1.6593,1.6265,0.0,0.0,0.0,0.0,0.0,0.0,1.8201,1.9124,2.0131,2.1177,2.0836,2.0968,2.1522,2.124,2.1276,2.1841,2.1841,2.2036,2.2401,2.2401,2.2249,2.2026,2.1935,2.1893,2.1599,1.8603,1.7312,1.7298,1.6766,1.6344,1.5943,1.5508,1.5297,1.5311,1.5384,1.5691,1.6052,1.6052,1.6052,1.6025,1.5872,0.0,0.0,0.0,0.0,1.5511,1.5939,1.6166,1.6446,1.7101,1.7261,1.7321,1.7535,1.7582,1.7455,0.0,1.6927,1.674,1.6152,0.0,0.0,0.0,0.0,1.7088,1.7528,1.7582,1.7582,1.7582,1.7582,1.7582,1.7582,1.7582,1.7582,1.7582,1.7582,1.7582,1.7582,1.7582,1.7375,1.6941,0.0,0.0,0.0,0.0,0.0,0.0,0.0,0.0,0.0,0.0,0.0,0.0,0.0,0.0,0.0,0.0,0.0,0.0,0.0,0.0,0.0,0.0,0.0,0.0,0.0,0.0,0.0,0.0,0.0,1.802,2.0114,0.0,0.0,0.0,0.0,1.8777,1.8846,1.9722,2.1407,2.1542,2.2553,2.4733,2.3496,2.3098,2.3529,2.2306,2.2315,2.3556,2.3556,2.3754,2.4131,2.4131,2.3712,2.278,2.2432,2.2291,2.2258,2.1615,2.1435,2.1167,1.933,1.8581,1.8319,1.6787,1.6206,1.6246,1.652,1.6633,1.666,1.666,1.666,1.6553,1.5999,1.6005,0.0,0.0,1.5972,1.6627,1.6653,1.7074,1.7508,1.7549,1.7562,1.7562,1.7582,1.7582,1.7575,0.0,1.7535,1.7355,1.6767,0.0,1.7315,1.6787,1.7181,1.7549,1.7582,1.7582,1.7582,1.7582,1.7582,1.7582,1.7582,1.7582,1.7582,1.7582,1.7582,1.7582,1.7582,1.7582,1.7569,1.7542,1.6987,0.0,0.0,0.0,0.0,0.0,0.0,0.0,0.0,0.0,0.0,0.0,0.0,0.0,0.0,0.0,0.0,0.0,0.0,0.0,0.0,0.0,0.0,0.0,0.0,0.0,0.0,0.0,0.0,1.8921,2.0589,0.0,1.9774,2.0506,2.0764,1.9901,2.1744,2.2936,2.3017,2.3833,2.4756,2.5898,2.5408,2.54,2.5819,2.5395,2.5395,2.5819,2.5819,2.5895,2.6037,2.6037,2.5797,2.5506,2.5367,2.5302,2.5293,2.5145,2.3728,2.1626,2.0869,2.007,1.9167,1.8651,1.7911,1.7128,1.7235,1.7268,1.7268,1.7268,1.7268,1.7235,1.7021,1.7034,1.7074,1.686,1.7027,1.7268,1.7268,1.7428,1.7582,1.7582,1.7582,1.7582,1.7582,1.7742,1.7883,1.7883,1.7716,1.7515,1.7308,1.7442,1.7582,1.7569,1.7749,1.7949,1.8143,1.817,1.817,1.817,1.817,1.809,1.7896,1.7883,1.7796,1.7595,1.7582,1.7582,1.7582,1.7582,1.7582,1.7582,1.7375,1.6901,0.0,0.0,0.0,0.0,0.0,0.0,0.0,0.0,0.0,0.0,0.0,0.0,0.0,0.0,0.0,0.0,0.0,0.0,0.0,0.0,0.0,0.0,0.0,0.0,0.0,0.0,2.0601,1.9618,2.1518,2.2391,2.1168,2.2235,2.2806,2.2191,2.4211,2.5237,2.4597,2.557,2.6299,2.6592,2.6602,2.6738,2.7012,2.7012,2.7012,2.7012,2.7012,2.709,2.7236,2.7236,2.7314,2.7441,2.7295,2.7236,2.7217,2.708,2.5618,2.3463,2.2945,2.1919,2.0578,2.0166,1.9134,1.7876,1.7769,1.7669,1.7582,1.7582,1.7582,1.7582,1.7582,1.7582,1.7582,1.7582,1.7655,1.7736,1.7736,1.7816,1.7889,1.7889,1.7889,1.7889,1.7889,1.805,1.8196,1.8196,1.8029,1.7822,1.7622,1.7582,1.7582,1.7595,1.7595,1.7662,1.7862,1.8063,1.8183,1.8183,1.837,1.841,1.8217,1.8009,1.7849,1.7749,1.7549,1.7482,1.7582,1.7395,1.7288,1.7288,1.7094,1.6707,1.6126,0.0,0.0,0.0,0.0,0.0,0.0,0.0,0.0,0.0,0.0,0.0,0.0,0.0,0.0,0.0,0.0,0.0,0.0,0.0,0.0,0.0,0.0,0.0,1.8719,2.1228,2.2451,2.0266,2.3066,2.4698,2.3538,2.4802,2.5762,2.5781,2.6172,2.6406,2.6406,2.6797,2.7021,2.7031,2.7051,2.706,2.707,2.709,2.71,2.71,2.71,2.7314,2.7725,2.7725,2.7949,2.831,2.79,2.7725,2.7695,2.7266,2.71,2.6978,2.5637,2.4123,2.2642,2.1356,1.9866,1.8561,1.8156,1.7862,1.7609,1.7609,1.7609,1.7609,1.7609,1.7609,1.7609,1.7609,1.7829,1.8063,1.8063,1.8277,1.849,1.849,1.849,1.849,1.849,1.8497,1.8504,1.8504,1.851,1.8323,1.7716,1.7609,1.7422,1.686,1.6774,0.0,1.6787,1.7288,1.7629,1.7609,1.8156,1.8504,1.8477,1.7956,1.7749,1.8043,1.7515,1.7315,1.7589,1.7048,1.674,1.6734,1.6152,1.6139,1.6707,0.0,0.0,0.0,0.0,0.0,0.0,0.0,0.0,0.0,0.0,0.0,0.0,0.0,0.0,0.0,0.0,0.0,0.0,0.0,0.0,0.0,0.0,2.2659,2.1939,2.292,2.3657,2.3691,2.4737,2.5577,2.5593,2.5935,2.6338,2.6641,2.6777,2.6846,2.6846,2.6953,2.7168,2.748,2.7783,2.8086,2.8389,2.8711,2.8867,2.8867,2.8867,2.8935,2.9043,2.9043,2.9111,2.9209,2.9101,2.9043,2.9043,2.8916,2.8867,2.874,2.7064,2.5618,2.4333,2.3904,2.2207,1.9961,1.8824,1.831,1.8237,1.8237,1.8237,1.8237,1.8237,1.8237,1.8237,1.8237,1.8303,1.837,1.837,1.843,1.849,1.849,1.849,1.849,1.849,1.8657,1.8804,1.8804,1.8978,1.8938,1.8343,1.8237,1.8257,1.8303,1.831,0.0,1.8611,1.8778,1.8718,1.829,1.8771,1.8858,1.8203,1.8397,1.8504,1.8377,1.8217,1.8063,1.7923,1.7762,1.7575,1.7348,1.6767,1.6547,0.0,0.0,0.0,0.0,0.0,0.0,0.0,0.0,0.0,0.0,0.0,0.0,0.0,0.0,0.0,0.0,0.0,0.0,0.0,0.0,0.0,0.0,2.3223,2.416,2.4473,2.457,2.4863,2.5537,2.585,2.6182,2.6611,2.665,2.6758,2.6992,2.7344,2.7549,2.7549,2.7891,2.8203,2.8457,2.8701,2.8945,2.9189,2.9443,2.957,2.957,2.957,2.957,2.957,2.957,2.957,2.957,2.957,2.957,2.957,2.957,2.957,0.0,0.0,0.0,0.0,0.0,2.3419,2.1682,2.0823,2.042,2.0194,1.9661,1.9449,1.9339,1.8705,1.849,1.849,1.849,1.8577,1.8671,1.8671,1.8764,1.8858,1.8858,1.8858,1.8858,1.8858,1.8991,1.9112,1.9112,1.9807,0.0,1.99,1.9084,1.8464,1.8377,1.8892,1.9174,1.8709,1.9934,2.0499,1.9484,2.0554,2.1031,2.045,2.0516,0.0,0.0,0.0,1.8794,1.7862,1.7736,0.0,0.0,0.0,1.646,1.6707,0.0,0.0,0.0,1.6139,1.5872,0.0,0.0,0.0,0.0,0.0,0.0,0.0,0.0,0.0,0.0,0.0,0.0,0.0,0.0,0.0,0.0,2.3838,2.5068,2.6289,2.6123,2.6025,2.6416,2.6455,2.6621,2.7051,2.7129,2.7178,2.7226,2.7978,2.8437,2.8437,0.0,0.0,0.0,0.0,2.9639,2.9639,2.9687,2.9717,2.9717,2.9717,2.9717,2.9717,2.9717,2.9717,2.9717,2.9717,2.9717,2.9717,2.9717,2.9687,2.96,2.916,2.8195,2.6798,2.4855,2.408,2.3796,2.3645,0.0,0.0,2.1263,2.082,2.0508,1.9015,1.8591,1.8591,1.8807,1.8883,1.8971,1.9192,1.928,1.9372,1.9406,1.9419,1.9542,1.9685,1.9809,1.9809,2.0034,2.0917,2.1812,2.1919,2.0286,1.8617,1.8177,1.9019,1.9335,1.8194,2.078,2.2296,2.104,0.0,0.0,2.3484,2.2868,2.214,2.1233,2.0677,1.9575,1.7849,1.7455,1.7054,1.6533,1.6266,1.6386,1.6907,1.6907,1.7174,1.7655,1.6547,1.6306,0.0,0.0,0.0,0.0,0.0,0.0,0.0,0.0,0.0,0.0,0.0,0.0,0.0,0.0,0.0,2.4492,2.5381,2.6211,2.6807,2.6816,2.6797,2.6885,2.6894,2.706,2.75,2.7851,2.8184,2.8525,2.9033,2.9326,2.9326,2.9482,2.957,2.957,2.9902,3.0078,3.0078,3.0449,3.0635,3.0635,0.0,0.0,3.0635,3.0635,3.0635,3.0635,3.0635,3.0635,3.0635,3.0635,3.041,3.0029,2.9609,2.9322,2.8857,2.7264,2.6617,2.6275,2.4825,2.4223,2.3899,2.2038,2.1399,2.1173,1.9638,1.9199,0.0,2.0629,2.023,1.9618,2.0715,2.0214,1.9426,1.9659,1.972,2.0128,2.1765,2.2053,2.24,2.3777,2.32,2.2856,2.4225,2.2513,2.0911,2.0891,2.0005,1.9793,2.0764,2.1429,2.1961,2.2379,2.2182,2.1811,2.1378,2.0518,2.0437,2.1489,2.1233,2.0346,1.8664,1.8384,1.8176,1.8063,1.8003,1.8029,1.8143,1.8143,1.8203,1.8297,1.7575,1.7301,0.0,0.0,0.0,0.0,0.0,0.0,0.0,0.0,0.0,0.0,0.0,2.3213,0.0,0.0,2.4883,2.5332,2.6133,2.6855,2.7285,2.7519,2.7578,2.7363,2.7529,2.7822,2.8252,2.8682,2.9014,2.9228,2.9639,2.9883,2.9883,3.0107,3.0234,3.0234,3.0439,3.0547,3.0547,3.0771,3.0996,3.1201,3.1201,3.1318,3.1523,3.1309,3.1201,3.1191,3.0986,3.0889,3.0889,3.0889,3.0752,3.0518,3.0312,2.9961,2.956,2.8756,2.8408,2.8371,2.7359,2.7051,2.6789,2.4994,2.4472,2.413,2.2659,2.1635,2.1181,2.1978,2.1064,2.0142,2.1744,2.1635,2.1342,2.2178,2.2443,2.2723,2.3709,2.3866,2.4093,2.4903,2.5028,2.5269,2.6071,2.518,2.4244,2.3443,2.3344,2.3344,2.3328,2.47,2.5396,2.4833,2.5101,2.5093,2.4529,2.2736,2.2266,2.3702,2.1662,2.0246,2.0246,1.9296,1.8704,1.8704,1.8564,1.849,1.849,1.849,1.849,1.8484,1.8176,1.8036,0.0,0.0,0.0,0.0,0.0,0.0,0.0,0.0,2.3437,2.3623,2.3721,2.3877,2.4228,2.4922,2.5596,2.6035,2.6758,2.7412,2.7851,2.8271,2.8418,2.8076,2.834,2.8672,2.9014,2.9434,2.9687,2.9687,3.0088,3.0332,3.0332,3.0684,3.0928,3.1006,3.1016,3.1055,3.1143,3.1143,3.1309,3.1641,3.1641,3.1826,3.2158,3.1807,3.1641,3.1621,3.1289,3.1094,3.1016,3.1016,3.0967,3.0889,3.0889,3.0459,2.9824,2.9824,2.9824,2.9814,2.9726,2.9687,2.9443,2.7851,2.7359,2.7007,2.56,2.421,2.3173,2.3528,2.2461,2.1526,2.3173,2.341,2.3535,2.4877,2.5236,2.5261,2.5678,2.5695,2.5812,2.617,2.6875,2.7585,2.7948,2.7709,2.7062,2.5741,2.6301,2.654,2.56,2.7701,2.8633,2.7381,2.8021,2.8301,2.7663,2.5613,2.4573,2.516,2.2047,2.0479,2.1145,1.9797,1.9011,1.9011,1.8778,1.8664,1.8664,1.8664,1.8664,1.8664,1.8664,1.8597,2.1973,2.1816,2.1894,2.1943,2.25,2.3242,0.0,0.0,2.4492,2.5283,2.5762,2.6045,2.6084,2.6484,2.6943,2.7383,2.7842,2.8301,2.8721,2.915,2.9404,2.9365,2.9394,2.9443,2.9492,2.9873,3.0127,3.0127,3.0557,3.081,3.081,3.0859,3.1064,3.1435,3.1445,3.1631,3.2021,3.2021,3.2051,3.21,3.21,3.2119,3.2168,3.2119,3.21,3.209,3.2041,3.1807,3.1445,3.1445,3.123,3.0889,3.0889,3.083,3.0742,3.0742,3.0742,3.0684,3.0264,3.0127,2.9831,2.7934,2.7359,2.7007,2.56,2.5011,2.5136,2.6425,2.5716,2.4903,2.6425,2.584,2.4986,2.5426,2.5509,2.5948,2.7727,2.8045,2.841,3.0004,2.9146,2.8773,3.0257,2.9273,2.8048,2.7229,2.6062,2.5716,2.6893,2.735,2.8041,2.9157,2.822,2.6784,2.5023,2.5795,2.519,2.2274,2.2814,2.2153,1.97,1.9448,1.9319,1.9319,1.9285,1.9272,1.9272,1.9272,1.9272,1.9272,1.9272,1.8991,2.332,2.2988,2.2861,0.0,2.4014,2.4121,2.498,2.5381,2.5674,2.6045,2.6455,2.6826,2.709,2.7275,2.7607,0.0,2.8545,2.8809,2.9238,2.9668,2.9932,2.9932,3.0176,3.0234,2.9961,3.0342,3.0605,3.0605,3.1006,3.126,3.126,3.1494,3.1709,3.1894,3.1894,3.1982,3.2168,3.2168,3.2295,3.2529,3.2529,3.2656,3.2891,3.2646,3.2402,3.2168,3.2168,3.207,3.1894,3.1894,3.165,3.126,3.126,3.1103,3.0889,3.0889,3.0889,3.0859,3.0674,3.0605,3.0451,2.968,2.9382,2.9257,2.8658,2.7813,2.7208,2.7804,2.6845,2.6007,2.7561,2.7443,2.7243,2.8392,2.8673,2.8845,2.9738,2.9893,3.002,3.0762,3.0274,3.003,3.0762,3.0274,2.978,2.9439,2.89,2.8658,2.9382,2.9382,2.9518,2.9961,2.9125,2.8333,2.7575,2.7227,2.6709,2.5842,2.4014,2.2573,2.1941,2.1152,2.0256,1.9366,2.0256,2.0256,1.9366,1.9366,1.9366,1.9366,1.9366,1.9239,2.3838,0.0,0.0,2.5,2.5166,2.5127,2.5771,2.625,2.6562,2.6562,2.6894,2.7295,2.7607,2.7851,2.8213,2.8818,2.9111,2.9385,2.9697,3.0117,3.0391,3.0391,3.0684,3.0801,3.0586,3.0869,3.1064,3.1064,3.1455,3.1699,3.1699,3.2002,3.2217,3.2334,3.2344,3.2393,3.251,3.2519,3.2666,3.2969,3.2969,3.3125,3.3408,3.3105,3.2803,3.2519,3.2519,3.2451,3.2344,3.2344,3.209,3.1699,3.1699,3.1435,3.1064,3.1064,3.0986,3.0889,3.0889,3.0889,3.0889,3.0889,3.0889,3.0889,3.0889,3.002,2.9039,2.9039,2.8298,2.7572,2.8792,2.9039,2.9403,3.0645,3.0889,3.0889,3.0889,3.0889,3.0889,3.0889,3.0889,3.0889,3.0889,3.0889,3.0889,3.0889,3.0889,3.0889,3.0889,3.0889,3.0762,3.042,3.0117,2.9883,2.9756,2.8691,2.8163,2.843,2.542,2.359,2.3456,2.2879,2.1817,2.0164,2.1154,2.1347,2.0594,2.0263,2.0263,2.0601,2.0148,2.0081,2.2969,2.3184,2.3379,2.4238,2.54,2.6338,2.6367,2.6699,2.6992,2.6992,2.7344,2.7646,2.7666,2.833,2.8887,2.8916,2.9619,3.0166,3.0176,3.0576,3.0869,3.0869,3.0889,3.1045,0.0,3.1484,3.1504,3.1504,3.1904,3.2148,3.2148,3.2158,3.2353,3.2764,3.2773,3.2969,3.3379,3.3379,3.3389,3.3408,3.3408,3.3408,3.3418,3.3408,3.3398,3.3379,3.3379,3.3154,3.2773,3.2773,3.2529,3.2148,3.2148,3.1885,3.1504,3.1504,3.124,3.0889,3.0889,3.0889,3.0889,3.0889,3.0889,3.0889,3.0889,3.0889,3.0772,3.0772,3.0772,3.0762,3.0772,3.0772,3.0889,3.0889,3.0889,3.0889,3.0889,3.0889,3.0889,3.0889,3.0889,3.0889,3.0889,3.0889,3.0889,3.0889,3.0889,3.0889,3.0889,3.0889,3.0889,3.0869,3.0859,3.0664,3.0215,3.0176,2.9289,2.7482,2.7218,2.5823,2.2913,2.4178,2.4001,2.1948,2.2049,2.2689,2.371,2.2258,2.2258,2.3599,2.2145,2.1636,2.376,2.4209,2.4629,2.5508,2.6269,2.6807,2.6807,2.7139,2.7441,2.7441,2.7568,2.7666,2.7666,2.7666,2.793,2.8779,2.916,2.9658,3.0537,3.0791,3.0889,3.0889,3.1133,0.0,0.0,0.0,0.0,3.1924,3.2344,3.2588,3.2588,3.2842,3.3066,3.3203,3.3213,3.3281,3.3418,3.3418,3.3418,3.3418,3.3418,3.3418,3.3418,3.3418,3.3418,3.3418,3.3418,3.334,3.3213,3.3213,3.2969,3.2588,3.2588,3.2324,3.1953,3.1953,3.168,3.1269,3.0986,3.0889,3.0889,3.0889,3.0889,3.0889,3.0889,3.0889,3.0889,3.0889,3.0889,3.0889,3.0889,3.0889,3.0889,3.0889,3.0889,3.0889,3.0889,3.0889,3.0889,3.0889,3.0889,3.0889,3.0889,3.0889,3.0889,3.0889,3.0889,3.0889,3.0889,3.0889,3.0889,3.0889,3.0889,3.083,3.0674,3.0654,3.0228,2.9298,2.8344,2.7169,2.5857,2.5252,2.4729,2.4017,2.4017,2.4193,2.4655,2.3053,2.2602,2.3061,2.1442,2.0683,2.4297,2.4853,2.5312,2.6357,2.6934,2.7246,2.7246,2.7578,2.7803,2.75,2.7559,2.7568,2.7266,2.7226,2.7617,2.874,2.9053,2.956,3.0723,3.0889,3.0889,3.0889,3.126,3.1582,0.0,0.0,0.0,3.2373,3.2783,3.3018,3.3018,3.3271,3.3418,3.3418,3.3418,3.3418,3.3418,3.3418,3.3418,3.3418,3.3418,3.3418,3.3418,3.3418,3.3418,3.3418,3.3418,3.3418,3.3418,3.3418,3.3262,3.3018,3.3018,3.2764,3.2393,3.2393,3.2119,3.1689,3.126,3.1016,3.0889,3.0889,3.0889,3.0889,3.0889,3.0889,3.0889,3.0889,3.0889,3.0889,3.0889,3.0889,3.0889,3.0889,3.0889,3.0889,3.0889,3.0889,3.0889,3.0889,3.0889,3.0889,3.0889,3.0889,3.0889,3.0889,3.0889,3.0889,3.0889,3.0889,3.0889,3.0889,3.0889,3.0889,3.0889,3.0889,3.0762,3.0459,2.9612,2.8658,2.7669,2.7311,2.6775,2.6037,2.6037,2.62,2.6646,2.4561,2.4101,2.5153,2.2349,2.1704,2.457,2.5166,2.5498,2.6738,2.7373,2.7695,2.7695,2.7969,2.8008,2.7217,2.7324,2.7324,0.0,0.0,2.791,2.875,2.9268,2.9883,3.0762,3.0889,3.0889,0.0,0.0,0.0,0.0,0.0,0.0,3.2832,0.0,3.3418,3.3418,3.3418,3.3418,3.3418,3.3418,3.3418,3.3418,3.3418,3.3418,3.3418,3.3418,3.3418,3.3418,3.3418,3.3418,3.3418,3.3418,3.3418,3.3418,3.3418,3.3418,3.3418,3.3418,3.3174,3.2832,3.2832,3.2559,3.2148,3.1728,3.1299,3.0928,3.0928,3.0908,3.0889,3.0889,3.0889,3.0889,3.0889,3.0889,3.0889,3.0889,3.0889,3.0889,3.0889,3.0889,3.0889,3.0889,3.0889,3.0889,3.0889,3.0889,3.0889,3.0889,3.0889,3.0889,3.0889,3.0889,3.0889,3.0889,3.0889,3.0889,3.0889,3.0889,3.0889,3.0889,3.0889,3.0889,3.0889,3.0889,3.0147,2.8536,3.002,2.984,2.8002,2.7984,2.8505,2.9639,2.6593,2.6593,2.9405,2.486,2.4459,2.5723,2.6523,2.708,2.7412,2.7822,2.8135,2.8135,2.7715,2.7373,2.748,2.6826,2.626,0.0,0.0,0.0,2.831,2.9082,0.0,3.0762,3.0889,0.0,3.0889,0.0,3.2041,3.2158,3.2832,0.0,0.0,3.3359,3.3418,3.3418,3.3418,3.3418,3.3418,3.3418,3.3418,3.3418,3.3418,3.3418,3.3418,3.3418,3.3418,3.3418,3.3418,3.3418,3.3418,3.3418,3.3418,3.3418,3.3418,3.3418,3.3418,3.3418,3.3359,3.3262,3.3262,3.2998,3.2617,3.251,3.1982,3.1357,3.1357,3.1143,3.0889,3.0889,3.0889,3.0889,3.0889,3.0889,3.0889,3.0889,3.0889,3.0889,3.0889,3.0889,3.0889,3.0889,3.0889,3.0889,3.0889,3.0889,3.0889,3.0889,3.0889,3.0889,3.0889,3.0889,3.0889,3.0889,3.0889,3.0889,3.0889,3.0889,3.0889,3.0889,3.0889,3.0889,3.0889,3.0889,3.0762,3.0274,2.953,2.9356,3.0112,2.8882,2.9071,3.0557,2.8482,2.7875,2.8599,2.6192,2.5641,2.6377,2.7148,2.7715,2.7891,2.8115,2.8193,2.7822,2.7353,2.6865,2.6348,2.581,2.5518,2.5762,2.6318,2.7139,0.0,0.0,0.0,3.0762,3.0889,3.0889,0.0,3.165,0.0,3.2168,3.293,3.3418,0.0,3.3418,3.3418,3.3418,3.3418,3.3418,3.3418,3.3418,3.3418,3.3418,3.3418,3.3418,3.3418,3.3418,3.3418,3.3418,3.3418,3.3418,3.3418,0.0,3.3418,3.3418,3.3418,3.3418,3.3418,3.3418,3.3418,3.3418,3.3418,3.3271,3.3066,3.3066,3.2637,3.2021,3.1641,3.1357,3.1133,3.0947,3.0889,3.0889,3.0889,3.0889,3.0889,3.0889,3.0889,3.0889,3.0889,3.0889,3.0889,3.0889,3.0889,3.0889,3.0889,3.0889,3.0889,3.0889,3.0889,3.0889,3.0889,3.0889,3.0889,3.0889,3.0889,3.0889,3.0889,3.0889,3.0889,3.0889,3.0889,3.0889,3.0889,3.0889,3.0889,3.0889,3.002,2.9903,3.0889,3.002,3.002,3.0889,2.9157,2.8783,2.9403,2.7082,2.6712,2.6699,2.7334,2.7773,2.8193,2.8291,2.8066,2.7217,2.6924,2.6396,2.4824,0.0,2.4951,2.5127,2.5781,2.6875,2.8633,0.0,2.9814,3.0762,3.0889,3.0889,3.0889,3.165,3.2168,3.2168,3.293,3.3418,3.3418,3.3418,3.3418,3.3418,3.3418,3.3418,3.3418,3.3418,3.3418,3.3418,3.3418,3.3418,3.3418,3.3418,3.3418,3.3418,3.3418,3.3418,3.3418,3.3418,3.3418,3.3418,3.3418,3.3418,3.3418,3.3418,3.3418,3.3418,3.3418,3.3418,3.3418,3.3418,3.3184,3.2744,3.1943,3.165,3.1523,3.1103,3.0976,3.0967,3.0908,3.0889,3.0889,3.0889,3.0889,3.0889,3.0889,3.0889,3.0889,3.0889,3.0889,3.0889,3.0889,3.0889,3.0889,3.0889,3.0889,3.0889,3.0889,3.0889,3.0889,3.0889,3.0889,3.0889,3.0889,3.0889,3.0889,3.0889,3.0889,3.0889,3.0889,3.0889,3.0889,3.0889,3.0889,3.0889,3.0889,3.0889,3.0889,3.0889,2.9403,2.953,3.0889,2.794,2.8179,2.6865,2.7334,2.7773,2.8193,2.8291,2.8066,2.7217,2.6465,0.0,0.0,2.4453,2.4346,2.542,2.5742,2.6523,2.8584,2.8984,2.9463,3.0713,3.0889,3.0889,0.0,3.165,3.2168,3.2168,3.293,0.0,0.0,3.3418,3.3418,3.3418,3.3418,3.3418,3.3418,3.3418,3.3418,3.3418,3.3418,3.3418,3.3418,3.3418,3.3418,3.3418,3.3418,3.3418,3.3418,3.3418,0.0,3.3418,3.3418,3.3418,3.3418,3.3418,3.3418,3.3418,3.3418,3.3418,3.3418,3.3418,3.3379,3.3232,3.2734,3.2344,3.1973,3.1533,3.1406,3.1338,3.0986,3.0889,3.0889,3.0889,3.0889,3.0889,3.0889,3.0889,3.0889,3.0889,3.0889,3.0889,3.0889,3.0889,3.0889,3.0889,3.0889,3.0889,3.0889,3.0889,3.0889,3.0889,3.0889,3.0889,3.0889,3.0889,3.0889,3.0889,3.0889,3.0889,3.0889,3.0889,3.0889,3.0889,3.0889,3.0889,3.0889,3.0889,3.0889,3.0889,3.0645,3.0645,3.0889,3.0274,3.0392,2.6357,2.6992,2.7773,2.8193,2.8291,2.7949,2.665,0.0,0.0,0.0,2.374,2.3779,2.4853,2.5234,0.0,2.7363,2.834,2.9141,2.9775,3.0459,3.0889,3.0889,3.165,3.2168,3.2168,3.293,3.3418,3.3418,3.3418,3.3418,3.3418,3.3418,3.3418,3.3418,3.3418,3.3418,3.3418,3.3418,3.3418,3.3418,3.3418,3.3418,3.3418,3.3418,3.3418,3.3418,3.3418,3.3418,3.3418,3.3418,3.3418,3.3418,3.3418,3.3418,3.3418,3.3418,3.3418,3.3418,3.3418,3.3418,3.335,3.293,3.2656,3.2373,3.1719,3.1514,3.1435,3.1006,3.0889,3.0889,3.0889,3.0889,3.0889,3.0889,3.0889,3.0889,3.0889,3.0889,3.0889,3.0889,3.0889,3.0889,3.0889,3.0889,3.0889,3.0889,3.0889,3.0889,3.0889,3.0889,3.0889,3.0889,3.0889,3.0889,3.0889,3.0889,3.0889,3.0889,3.0889,3.0889,3.0889,3.0889,3.0889,3.0889,3.0889,3.0889,3.0889,3.0889,3.0889,3.0889,3.0889,3.0889,2.5889,2.6621,2.751,2.8027,2.8154,2.7734,2.6113,2.5664,0.0,2.3359,2.293,2.3164,2.4102,2.4414,2.4932,0.0,2.7432,2.8398,2.8857,2.9893,3.0674,0.0,3.1562,0.0,3.2158,3.2842,0.0,3.3418,3.3418,3.3418,3.3418,3.3418,3.3418,3.3418,3.3418,3.3418,3.3418,3.3418,3.3418,3.3418,3.3418,3.3418,3.3418,3.3418,3.3418,3.3418,3.3418,3.3418,3.3418,3.3418,3.3418,3.3418,3.3418,3.3418,3.3418,3.3418,3.3418,3.3408,3.332,3.3281,3.3223,3.2793,3.2725,3.2637,3.1777,3.1514,3.1435,3.1006,3.0889,3.0889,3.0889,3.0889,3.0889,3.0889,3.0889,3.0889,3.0889,3.0889,3.0889,3.0889,3.0889,3.0889,3.0889,3.0889,3.0889,3.0889,3.0889,3.0889,3.0889,3.0889,3.0889,3.0889,3.0889,3.0889,3.0889,3.0889,3.0889,3.0889,3.0889,3.0889,3.0889,3.0889,3.0889,3.0889,3.0889,3.0889,3.0889,3.0889,3.0889,3.0889,3.0889,3.0889,2.6016,2.6416,2.6699,2.7519,2.7725,2.7373,2.6045,0.0,2.4639,2.292,2.2266,2.2383,2.3623,2.3242,0.0,0.0,0.0,2.6699,2.8652,2.9365,2.999,3.0791,0.0,0.0,3.2129,3.2588,3.3008,3.3389,3.3418,3.3418,3.3418,3.3418,3.3418,3.3418,3.3418,3.3418,3.3418,3.3418,3.3418,3.3418,3.3418,3.3418,3.3418,3.3418,3.3418,3.3418,3.3418,3.3418,0.0,3.3418,3.3418,3.3418,3.3418,3.3418,3.3418,3.3418,3.3418,3.3369,3.2978,3.2851,3.2783,3.2363,3.248,3.2637,3.1777,3.1514,3.1435,3.1006,3.0889,3.0889,3.0889,3.0889,3.0889,3.0889,3.0889,3.0889,3.0889,3.0889,3.0889,3.0889,3.0889,3.0889,3.0889,3.0889,3.0889,3.0889,3.0889,3.0889,3.0889,3.0889,3.0889,3.0889,3.0889,3.0889,3.0889,3.0889,3.0889,3.0889,3.0889,3.0889,3.0889,3.0889,3.0889,3.0889,3.0889,3.0889,3.0889,3.0889,3.0889,3.0889,3.0889,3.0889,2.4756,2.5596,2.6533,2.7129,2.7275,2.6865,2.5303,0.0,2.4189,2.249,2.2002,2.2041,2.2549,2.2578,0.0,0.0,0.0,0.0,2.7539,2.8584,2.96,3.0752,3.126,0.0,0.0,0.0,3.2969,3.3389,3.3418,3.3418,3.3418,3.3418,3.3418,3.3418,3.3418,3.3418,3.3418,3.3418,3.3418,3.3418,3.3418,3.3418,3.3418,3.3418,3.3418,3.3418,3.3418,3.3418,0.0,3.3418,3.3418,3.3418,3.3418,3.3271,3.3047,3.3047,3.2891,3.2637,3.2471,3.2422,3.2353,3.1914,3.1894,3.1963,3.1621,3.1514,3.1435,3.1006,3.0889,3.0889,3.0889,3.0889,3.0889,3.0889,3.0889,3.0889,3.0889,3.0889,3.0889,3.0889,3.0889,3.0889,3.0889,3.0889,3.0889,3.0889,3.0889,3.0889,3.0889,3.0889,3.0889,3.0889,3.0889,3.0889,3.0889,3.0889,3.0889,3.0889,3.0889,3.0889,3.0889,3.0889,3.0889,3.0889,3.0889,3.0889,3.0889,3.0889,3.0889,3.0889,3.0889,3.0889,2.3916,2.4873,2.5967,2.666,2.6631,2.6084,0.0,0.0,2.3437,2.1992,2.1592,2.1533,2.167,2.1934,2.2217,0.0,0.0,2.5,2.6435,2.7734,2.8945,2.999,0.0,3.1103,3.1543,3.2314,3.2969,3.3389,3.3418,3.3418,3.3418,3.3418,3.3418,3.3418,3.3418,3.3418,3.3418,3.3418,3.3418,3.3418,3.3418,3.3418,3.3418,3.3418,3.3418,3.3418,3.3418,3.335,0.0,3.3232,3.3164,3.3057,3.3057,3.2871,3.2607,3.2607,3.2422,3.2148,3.2021,3.1973,3.1904,3.1475,3.1328,3.1328,3.1328,3.1328,3.1269,3.0976,3.0889,3.0889,3.0889,3.0889,3.0889,3.0889,3.0889,3.0889,3.0889,3.0889,3.0889,3.0889,3.0889,3.0889,3.0889,3.0889,3.0889,3.0889,3.0889,3.0889,3.0889,3.0889,3.0889,3.0889,3.0889,3.0889,3.0889,3.0889,3.0889,3.0889,3.0889,3.0889,3.0889,3.0889,3.0889,3.0889,3.0889,3.0889,3.0889,3.0889,3.0889,3.0889,3.0889,3.0889,2.3955,2.4424,2.4756,2.6064,2.5732,2.4971,0.0,2.3437,2.2285,2.1426,2.0889,2.0713,2.1152,2.125,2.1523,2.2373,2.2881,0.0,2.5508,2.6865,2.7842,0.0,0.0,2.9756,3.0176,3.1777,3.2969,3.3389,3.3418,0.0,3.3418,3.3418,3.3418,3.3418,3.3418,3.3418,3.3418,3.3418,3.3418,3.3418,3.3418,3.3418,3.3418,3.3418,3.3418,3.3418,3.3418,3.3184,0.0,3.2803,3.2559,3.2178,3.2178,3.2178,3.2178,3.2178,3.2178,3.2109,3.167,3.1523,3.1455,3.1035,3.0898,3.0898,3.0898,3.0898,3.0898,3.0889,3.0889,3.0889,3.0889,3.0889,3.0889,3.0889,3.0889,3.0889,3.0889,3.0889,3.0889,3.0889,3.0889,3.0889,3.0889,3.0889,3.0889,3.0889,3.0889,3.0889,3.0889,3.0889,3.0889,3.0889,3.0889,3.0889,3.0889,3.0889,3.0889,3.0889,3.0889,3.0889,3.0889,3.0889,3.0889,3.0889,3.0889,3.0889,3.0889,3.0889,3.0889,3.0889,3.0889,3.0889,2.2539,2.3105,2.3643,2.4082,2.3965,2.3564,2.2852,2.2373,2.1836,2.0957,2.0664,2.0605,2.0752,2.1025,2.1426,2.1992,2.2441,0.0,0.0,0.0,0.0,2.8603,3.001,3.0957,0.0,0.0,3.2851,3.2978,3.3262,3.3418,3.3418,3.3418,3.3418,3.3418,3.3418,3.3418,3.3418,3.3418,3.3418,3.3418,3.3135,3.2998,3.2978,3.2695,3.2568,3.2568,3.2568,3.249,3.2363,3.2363,3.2285,3.2168,3.2168,3.1982,3.1728,3.1728,3.1543,3.1279,3.1133,3.1094,3.1064,3.0937,3.0889,3.0889,3.0889,3.0889,3.0889,3.0889,3.0889,3.0889,3.0889,3.0889,3.0889,3.0889,3.0889,3.0889,3.0889,3.0889,3.0889,3.0889,3.0889,3.0889,3.0889,3.0889,3.0889,3.0889,3.0889,3.0889,3.0889,3.0889,3.0889,3.0889,3.0889,3.0889,3.0889,3.0889,3.0889,3.0889,3.0889,3.0889,3.0889,3.0889,3.0889,3.0889,3.0889,3.0889,3.0889,3.0889,3.0889,3.0889,3.0889,3.0889,0.0,2.2266,2.2744,2.3076,2.291,0.0,0.0,2.1631,2.123,2.0684,2.0566,2.0566,2.0566,2.0791,2.1182,2.1787,2.2109,2.2822,0.0,0.0,0.0,2.8516,0.0,0.0,0.0,3.1807,3.2383,3.2549,3.2803,3.2949,3.2949,3.2949,3.2949,3.2949,3.3105,3.3184,3.3184,3.3027,3.2949,3.2939,3.2685,3.2559,3.2549,3.2285,3.2168,3.2168,3.2168,3.207,0.0,3.1924,3.1826,3.1689,3.1689,3.1523,3.1279,3.1279,3.1113,3.0889,3.0889,3.0889,3.0889,3.0889,3.0889,3.0889,3.0889,3.0889,3.0889,3.0889,3.0889,3.0889,3.0889,3.0889,3.0889,3.0889,3.0889,3.0889,3.0889,3.0889,3.0889,3.0889,3.0889,3.0889,3.0889,3.0889,3.0889,3.0889,3.0889,3.0889,3.0889,3.0889,3.0889,3.0889,3.0889,3.0889,3.0889,3.0889,3.0889,3.0889,3.0889,3.0889,3.0889,3.0889,3.0889,3.0889,3.0889,3.0889,3.0889,3.0889,3.0889,3.0889,3.0889,3.0889,0.0,2.1797,2.1982,2.2764,2.2373,0.0,0.0,0.0,0.0,2.0566,2.0566,2.0566,2.0566,2.0566,2.085,2.1738,2.1885,2.2314,0.0,2.4951,0.0,0.0,2.9121,0.0,3.0205,3.1016,3.168,3.209,3.2148,3.2168,3.2168,3.2168,3.2168,3.2168,3.2519,3.2715,3.2754,3.2363,3.2168,3.2168,3.2139,3.2119,3.2119,3.209,3.208,0.0,3.208,3.1846,3.1475,3.1475,3.124,3.0889,3.0889,3.0889,3.0889,3.0889,3.0889,3.0889,3.0889,3.0889,3.0889,3.0889,3.0889,3.0889,3.0889,3.0889,3.0889,3.0889,3.0889,3.0889,3.0889,3.0889,3.0889,3.0889,3.0889,3.0889,3.0889,3.0889,3.0889,3.0889,3.0889,3.0889,3.0889,3.0889,3.0889,3.0889,3.0889,3.0889,3.0889,3.0889,3.0889,3.0889,3.0889,3.0889,3.0889,3.0889,3.0889,3.0889,3.0889,3.0889,3.0889,3.0889,3.0889,3.0889,3.0889,3.0889,3.0889,3.0889,3.0889,3.0889,3.0889,3.0889,2.082,0.0,2.0918,2.1123,2.1025,2.0879,0.0,0.0,0.0,0.0,0.0,2.0566,2.0566,2.0566,2.085,2.1738,2.1885,2.2217,2.3164,2.5264,0.0,2.8603,2.9844,3.0625,3.0723,3.1211,3.1562,3.167,3.1982,3.2168,3.2168,3.2168,3.2168,3.2168,3.1943,3.1982,3.2314,3.2217,3.2168,3.2168,3.1836,3.167,3.166,3.1338,3.1191,3.1191,3.1191,3.1133,3.1035,3.1035,3.0986,3.0889,3.0889,3.0889,3.0889,3.0889,3.0889,3.0889,3.0889,3.0889,3.0889,3.0889,3.0889,3.0889,3.0889,3.0889,3.0889,3.0889,3.0889,3.0889,3.0889,3.0889,3.0889,3.0889,3.0889,3.0889,3.0889,3.0889,3.0889,3.0889,3.0889,3.0889,3.0889,3.0889,3.0889,3.0889,3.0889,3.0889,3.0889,3.0889,3.0889,3.0889,3.0889,3.0889,3.0889,3.0889,3.0889,3.0889,3.0889,3.0889,3.0889,3.0889,3.0889,3.0889,3.0889,3.0889,3.0889,3.0889,3.0889,3.0889,3.0889,3.0889,2.0566,2.0566,2.0566,2.0566,2.0566,2.0566,2.0566,0.0,0.0,0.0,0.0,2.0566,2.0566,2.0566,2.085,2.1738,2.2217,2.3047,0.0,0.0,2.8715,2.9192,3.0847,3.1662,0.0,3.1094,3.123,3.123,3.1455,3.1582,3.1582,3.1582,3.1582,3.1582,3.1357,3.1435,3.1865,3.168,3.1582,3.1582,3.1348,3.123,3.1221,3.0996,3.0889,3.0889,3.0889,3.0889,3.0889,3.0889,3.0889,3.0889,3.0889,3.0889,3.0889,3.0889,3.0889,3.0889,3.0889,3.0889,3.0889,3.0889,3.0889,3.0889,3.0889,3.0889,3.0889,3.0889,3.0889,3.0889,3.0889,3.0889,3.0889,3.0889,3.0889,3.0889,3.0889,3.0889,3.0889,3.0889,3.0889,3.0889,3.0889,3.0889,3.0889,3.0889,3.0889,3.0889,3.0889,3.0889,3.0889,3.0889,3.0889,3.0889,3.0889,3.0889,3.0889,3.0889,3.0889,3.0889,3.0889,3.0889,3.0889,3.0889,3.0889,3.0889,3.0889,3.0889,3.0889,3.0889,3.0889,3.0889,2.0566,2.0566,2.0566,2.0566,2.0566,2.0566,2.0566,0.0,0.0,0.0,0.0,0.0,0.0,2.0771,0.0,0.0,0.0,0.0,2.6794,2.8809,2.9928,2.9699,3.1503,0.0,3.0995,3.0889,3.0889,3.0889,3.0889,3.0889,3.0889,3.0889,3.0889,3.0889,3.0889,3.1064,3.1426,3.1064,3.0889,3.0889,3.0889,3.0889,3.0889,3.0889,3.0889,3.0889,0.0,0.0,3.0889,3.0889,3.0889,3.0889,3.0889,3.0889,3.0889,3.0889,3.0889,3.0889,3.0889,3.0889,3.0889,3.0889,3.0889,3.0889,3.0889,3.0889,3.0889,3.0889,3.0889,3.0889,3.0889,3.0889,3.0889,3.0889,3.0889,3.0889,3.0889,3.0889,3.0889,3.0889,3.0889,3.0889,3.0889,3.0889,3.0889,3.0889,3.0889,3.0889,3.0889,3.0889,3.0889,3.0889,3.0889,3.0889,3.0889,3.0889,3.0889,3.0889,3.0889,3.0889,3.0889,3.0889,3.0889,3.0889,3.0889,3.0889,3.0889,3.0889,3.0889,3.0889,3.0889,3.0889,2.0566,2.0566,2.0566,2.0566,2.0566,2.0566,2.0566,0.0,0.0,0.0,0.0,0.0,0.0,2.1689,2.2197,0.0,0.0,2.5833,0.0,0.0,2.8645,3.0067,0.0,3.0669,3.085,3.0889,3.0889,3.0889,3.0889,3.0889,3.0889,3.0889,3.0889,3.0889,3.0889,3.0918,3.0986,3.0928,3.0889,3.0889,3.0889,3.0889,3.0889,3.0889,3.0889,3.0889,0.0,3.0889,3.0889,3.0889,3.0889,3.0889,3.0889,3.0889,3.0889,3.0889,3.0889,3.0889,3.0889,3.0889,3.0889,3.0889,3.0889,3.0889,3.0889,3.0889,3.0889,3.0889,3.0889,3.0889,3.0889,3.0889,3.0889,3.0889,3.0889,3.0889,3.0889,3.0889,3.0889,3.0889,3.0889,3.0889,3.0889,3.0889,3.0889,3.0889,3.0889,3.0889,3.0889,3.0889,3.0889,3.0889,3.0889,3.0889,3.0889,3.0889,3.0889,3.0889,3.0889,3.0889,3.0889,3.0889,3.0889,3.0889,3.0889,3.0889,3.0889,3.0889,3.0889,3.0889,3.0889,3.0889,2.0566,2.0566,2.0684,2.1152,2.0918,2.0566,2.0566,0.0,0.0,0.0,0.0,0.0,0.0,0.0,2.2598,2.4775,0.0,2.6851,2.8126,2.9072,2.9632,0.0,0.0,3.0902,3.0584,3.0518,3.0625,3.0869,3.0889,3.0889,3.0889,3.0889,3.0889,3.0889,3.0889,3.0889,3.0889,3.0644,3.0644,3.0889,3.0889,3.0889,3.0889,3.0889,3.0889,3.0889,0.0,3.0889,3.0889,3.0889,3.0889,3.0889,3.0889,3.0889,3.0889,3.0889,3.0889,3.0889,3.0889,3.0889,3.0889,3.0889,3.0889,3.0889,3.0889,3.0889,3.0889,3.0889,3.0889,3.0889,3.0889,3.0889,3.0889,3.0889,3.0889,3.0889,3.0889,3.0889,3.0889,3.0889,3.0889,3.0889,3.0889,3.0889,3.0889,3.0889,3.0889,3.0889,3.0889,3.0889,3.0889,3.0889,3.0889,3.0889,3.0889,3.0889,3.0889,3.0889,3.0889,3.0889,3.0889,3.0889,3.0889,3.0889,3.0889,3.0889,3.0889,3.0889,3.0889,3.0889,3.0889,3.0889,2.0566,2.0566,2.0723,2.1406,2.123,2.0928,2.1123,0.0,0.0,0.0,0.0,0.0,0.0,2.2734,0.0,2.543,2.6543,2.7643,2.9025,2.9916,3.0294,3.0008,3.0587,3.087,3.0123,3.0049,3.0195,3.0557,3.0586,3.0586,3.0586,3.0586,3.0586,3.0586,3.0586,3.0586,3.0586,3.0225,3.0283,3.0723,3.0625,3.0586,3.0586,3.0586,3.0586,3.0586,3.0586,3.0586,3.0586,3.0586,3.0586,3.0586,3.0586,3.0586,3.0586,3.0586,3.0586,3.0586,3.0586,3.0586,3.0586,3.0586,3.0586,3.0586,3.0586,3.0586,3.0586,3.0586,3.0586,3.0625,3.084,3.0889,3.0889,3.0889,3.0889,3.0889,3.0889,3.0889,3.0889,3.0889,3.0889,3.0889,3.0889,3.0889,3.0889,3.0889,3.0889,3.0889,3.0889,3.0889,3.0889,3.0889,3.0889,3.0889,3.0889,3.0889,3.0889,3.0889,3.0889,3.0889,3.0889,3.0889,3.0889,3.0889,3.0889,3.0889,3.0889,3.0889,3.0889,3.0889,3.0889,3.0889,2.0566,2.0566,2.0586,2.0644,2.123,0.0,2.2773,2.2959,0.0,2.2978,0.0,0.0,0.0,2.5234,2.5996,2.5771,2.6797,2.8287,2.9985,0.0,2.912,3.0701,2.9806,2.9241,2.957,2.9619,2.9629,2.9658,2.9668,2.9668,2.9668,2.9668,2.9668,2.9668,2.9668,2.9668,2.9668,2.9629,2.9824,3.0244,2.9853,2.9668,2.9668,2.9668,2.9668,2.9668,2.9668,2.9668,2.9668,2.9668,2.9668,2.9668,2.9668,2.9668,2.9668,2.9668,2.9668,2.9668,2.9668,2.9668,2.9668,2.9668,2.9668,2.9668,2.9668,2.9668,2.9668,2.9668,2.9668,2.9853,3.0674,3.0889,3.0889,3.0889,3.0889,3.0889,3.0889,3.0889,3.0889,3.0889,3.0889,3.0889,3.0889,3.0889,3.0889,3.0889,3.0889,3.0889,3.0889,3.0889,3.0889,3.0889,3.0889,3.0889,3.0889,3.0889,3.0889,3.0889,3.0889,3.0889,3.0889,3.0889,3.0889,3.0889,3.0889,3.0889,3.0889,3.0889,3.0889,3.0889,3.0889,3.0889,2.0566,2.0967,2.1514,2.2031,0.0,0.0,0.0,0.0,0.0,2.3164,2.3154,0.0,0.0,0.0,2.6416,2.6514,2.7168,2.8013,2.8946,2.8601,2.8554,2.9236,2.8838,2.8701,2.9121,2.917,2.9277,2.9551,2.957,2.957,2.957,2.957,2.957,2.957,2.957,2.957,2.957,2.9307,2.9248,2.9404,2.9512,2.957,2.957,2.957,2.957,2.957,2.957,2.957,2.957,2.957,2.957,2.957,2.957,2.957,2.957,2.957,2.957,2.957,2.957,2.957,2.957,2.957,2.957,2.957,2.957,2.957,2.957,2.957,2.957,2.9648,2.998,3.0068,3.0137,3.04,3.0459,3.0537,3.083,3.0889,3.0889,3.0889,3.0889,3.0889,3.0889,3.0889,3.0889,3.0889,3.0889,3.0889,3.0889,3.0889,3.0889,3.0889,3.0889,3.0889,3.0889,3.0889,3.0889,3.0889,3.0889,3.0889,3.0889,3.0889,3.0889,3.0889,3.0889,3.0889,3.0889,3.0889,3.0889,3.0889,3.0889,3.0889,2.0566,2.1211,2.2021,0.0,0.0,0.0,0.0,0.0,0.0,2.3506,2.3769,0.0,0.0,0.0,0.0,0.0,2.6992,2.7607,2.8037,2.8203,2.8291,2.8291,2.8291,2.8408,2.8691,2.8721,2.8848,2.915,2.917,2.917,2.917,2.917,2.917,2.917,2.917,2.917,2.917,2.8867,2.8721,2.8721,2.9023,2.917,2.917,2.917,2.917,2.917,2.917,2.917,2.917,2.917,2.917,2.917,2.917,2.917,2.917,2.917,2.917,2.917,2.917,2.917,2.917,2.917,2.917,2.917,2.917,2.917,2.917,2.917,2.917,2.917,2.917,2.9365,2.9648,2.9932,3.0,3.0088,3.04,3.0576,3.0674,3.0674,3.0791,3.0889,3.0889,3.0889,3.0889,3.0889,3.0889,3.0889,3.0889,3.0889,3.0889,3.0889,3.0889,3.0889,3.0889,3.0889,3.0889,3.0889,3.0889,3.0889,3.0889,3.0889,3.0889,3.0889,3.0889,3.0889,3.0889,3.0889,3.0889,3.0889,3.0889,3.0889,2.0576,2.123,0.0,0.0,0.0,0.0,2.4414,2.376,2.3389,2.4228,0.0,2.5469,2.458,2.5137,0.0,2.5156,2.6162,2.7168,2.7598,2.8018,2.8281,2.8281,2.8291,2.8291,2.8291,2.8291,2.8291,2.8291,2.8291,2.8291,2.8291,2.8291,2.8291,2.8291,2.8291,2.8291,2.8291,2.8291,2.8291,2.8291,2.8291,2.8291,2.8291,2.8291,2.8291,2.8291,2.8291,2.8291,2.8291,2.8291,2.8291,2.8291,2.8291,2.8291,2.8291,2.8291,2.8291,2.8291,2.8291,2.8291,2.8291,2.8291,2.8291,2.8291,2.8291,2.8291,2.8291,2.8291,2.8291,2.8291,2.8291,2.8916,2.956,2.956,2.956,2.956,2.957,2.9893,3.0185,3.0185,3.0566,3.0879,3.0889,3.0889,3.0889,3.0889,3.0889,3.0889,3.0889,3.0889,3.0889,3.0889,3.0889,3.0889,3.0889,3.0889,3.0889,3.0889,3.0889,3.0889,3.0889,3.0889,3.0889,3.0889,3.0889,3.0889,3.0889,3.0889,3.0889,3.0889,3.0889,3.0889,2.1406,2.2559,0.0,2.3662,0.0,0.0,0.0,2.4219,0.0,0.0,2.4697,2.5469,2.458,0.0,0.0,2.5967,2.6328,2.6719,2.7148,2.7578,2.7851,2.7851,2.8115,2.8291,2.8291,2.8291,2.8291,2.8291,2.8291,2.8291,2.8291,2.8291,2.8291,2.8291,2.8291,2.8291,2.8291,2.8291,2.8291,2.8291,2.8291,2.8291,2.8291,2.8291,2.8291,2.8291,2.8291,2.8291,2.8291,2.8291,2.8291,2.8291,2.8291,2.8291,2.8291,2.8291,2.8291,2.8291,2.8291,2.8291,2.8291,2.8291,2.8291,2.8291,2.8291,2.8291,2.8291,2.8291,2.8291,2.8291,2.8291,2.8476,2.875,2.9043,2.9111,2.9199,2.9502,2.9668,2.9756,2.9756,2.9863,3.0059,3.0351,3.04,3.0518,3.084,3.0889,3.0889,3.0889,3.0889,3.0889,3.0889,3.0889,3.0889,3.0889,3.0889,3.0889,3.0889,3.0889,3.0889,3.0889,3.0889,3.0889,3.0889,3.0889,3.0889,3.0889,3.0889,3.0889,3.0889,3.0889,3.0889,2.1768,0.0,0.0,2.4414,2.4678,2.4853,2.4492,0.0,0.0,0.0,0.0,2.5576,2.5039,2.5381,0.0,2.6084,2.6279,2.6475,2.6728,2.7139,2.7402,2.7402,2.7637,2.7783,2.7783,2.7783,2.7783,2.7783,2.7783,2.7783,2.7783,2.7783,2.7783,2.7783,2.7783,2.7783,2.7783,2.7783,2.7871,2.8047,2.8047,2.8135,2.8291,2.8291,2.8291,2.8291,2.8291,2.8291,2.8291,2.8291,2.8291,2.8291,2.8291,2.8291,2.8291,2.8291,2.8291,2.8291,2.8291,2.8291,2.8291,2.8291,2.8291,2.8291,2.8291,2.8291,2.8291,2.8291,2.8291,2.8291,2.8291,2.8291,2.8359,2.8613,2.8672,2.874,2.9004,2.9199,2.9307,2.9307,2.9453,2.9648,2.9902,2.9941,3.0098,3.0547,3.0771,3.0889,3.0889,3.0889,3.0889,3.0889,3.0889,3.0889,3.0889,3.0889,3.0889,3.0889,3.0889,3.0889,3.0889,3.0889,3.0889,3.0889,3.0889,3.0889,3.0889,3.0889,3.0889,3.0889,3.0889,3.0889,2.1807,0.0,0.0,2.4512,2.5137,0.0,2.4717,2.4541,2.4492,2.4336,0.0,2.5713,2.5635,2.5684,2.5742,2.5742,2.6074,2.6328,2.6328,2.6689,2.6963,2.6963,2.6992,2.7012,2.7012,2.7012,2.7012,2.7012,2.7012,2.7012,2.7012,2.7012,2.7012,2.7012,2.7012,2.7012,2.7012,2.7012,2.7217,2.7607,2.7607,2.7803,2.8174,2.8252,2.8291,2.8291,2.8291,2.8291,2.8291,2.8291,2.8291,2.8291,2.8291,2.8291,2.8291,2.8291,2.8291,2.8291,2.8291,2.8291,2.8291,2.8291,2.8291,2.8291,2.8291,2.8291,2.8291,2.8291,2.8291,2.8291,2.8291,2.8291,2.8291,2.8291,2.8291,2.8291,2.8291,2.8594,2.8867,2.8867,2.918,2.9463,2.9502,2.9512,2.9648,3.0078,3.0498,3.0781,3.082,3.083,3.084,3.0889,3.0889,3.0889,3.0889,3.0889,3.0889,3.0889,3.0889,3.0889,3.0889,3.0889,3.0889,3.0889,3.0889,3.0889,3.0889,3.0889,3.0889,3.0889,3.0889,3.0889,2.207,2.3369,0.0,0.0,2.5596,2.5684,2.5498,2.5459,2.5059,2.3691,2.4648,2.5527,2.4834,2.5264,2.5742,2.5742,2.581,2.5879,2.5879,2.625,2.6523,2.6523,2.6816,2.7012,2.7012,2.7012,2.7012,2.7012,2.7012,2.7012,2.7012,2.7012,2.7012,2.7012,2.7012,2.7012,2.7012,2.7012,2.706,2.7158,2.7158,2.7207,2.7314,2.7988,2.8291,2.8291,2.8291,2.8291,2.8291,2.8291,2.8291,2.8291,2.8291,2.8291,2.8291,2.8291,2.8291,2.8291,2.8291,2.8291,2.8291,2.8291,2.8291,2.8291,2.8291,2.8291,2.8291,2.8291,2.8291,2.8291,2.8291,2.8291,2.8291,2.8291,2.8291,2.8291,2.8291,2.8359,2.8428,2.8428,2.8506,2.8672,2.9004,2.9062,2.9209,2.9639,2.9785,2.9971,3.0303,3.0342,3.0488,3.085,3.0889,3.0889,3.0889,3.0889,3.0889,3.0889,3.0889,3.0889,3.0889,3.0889,3.0889,3.0889,3.0889,3.0889,3.0889,3.0889,3.0889,3.0889,3.0889,3.0889,2.2158,0.0,0.0,2.5518,0.0,2.5742,2.5742,2.5742,2.5478,2.457,2.5107,2.5596,2.5137,2.543,2.5742,2.5742,2.5742,2.5742,2.5742,2.5937,2.6074,2.6074,2.6269,2.6406,2.6406,2.6406,2.6406,2.6406,2.6406,2.6406,2.6406,2.6406,2.6406,2.6406,2.6406,2.6406,2.6406,2.6406,2.6504,2.6709,2.6709,2.6816,2.7031,2.748,2.7685,2.7685,2.7685,2.7685,2.7685,2.7685,2.7803,2.7988,2.7988,2.8115,2.8291,2.8291,2.8291,2.8291,2.8291,2.8291,2.8291,2.8291,2.8291,2.8291,2.8291,2.8291,2.8291,2.8291,2.8291,2.8291,2.8291,2.8291,2.8291,2.8291,2.8291,2.8291,2.8291,2.8291,2.8291,2.8291,2.8291,2.8359,2.8584,2.8789,2.8994,2.9228,2.9434,2.9648,2.9863,2.9893,2.999,3.0234,3.0439,3.0557,3.0557,3.0762,3.0889,3.0889,3.0889,3.0889,3.0889,3.0889,3.0889,3.0889,3.0889,3.0889,3.0889,3.0889,3.0889,3.0889,3.0889,3.0889,2.1826,0.0,2.4609,2.542,2.5684,0.0,2.5742,2.5742,2.5742,2.5742,2.5742,2.5742,2.5742,2.5742,2.5742,2.5742,2.5742,2.5742,2.5742,2.5742,2.5742,2.5742,2.5742,2.5742,2.5742,2.5742,2.5742,2.5742,2.5742,2.5742,2.5742,2.5742,2.5742,2.5742,2.5742,2.5742,2.5742,2.5742,2.5918,2.6279,2.6279,2.6455,2.6797,2.6797,2.6875,2.7012,2.7012,2.7012,2.7012,2.7012,2.7226,2.7559,2.7559,2.7764,2.8076,2.8076,2.8076,2.8076,2.8076,2.8076,2.8076,2.8076,2.8076,2.8086,2.8164,2.8184,2.8203,2.8271,2.8291,2.8291,2.8291,2.8291,2.8291,2.8291,2.8291,2.8291,2.8291,2.8291,2.8291,2.8291,2.8291,2.8291,2.8291,2.8584,2.8809,2.8809,2.9121,2.9375,2.9443,2.9453,2.9482,2.956,2.9883,3.0088,3.0088,3.0439,3.0664,3.0664,3.0732,3.0771,3.0771,3.085,3.0889,3.0889,3.0889,3.0889,3.0889,3.0889,3.0889,3.0889,3.0889,3.0889,0.0,0.0,2.4531,0.0,2.5449,2.5742,0.0,0.0,2.5742,0.0,2.5742,2.5742,2.5742,2.5742,2.5742,2.5742,2.5742,2.5742,2.5742,2.5742,2.5742,2.5742,2.5742,2.5742,2.5742,2.5742,2.5742,2.5742,2.5742,2.5742,2.5742,2.5742,2.5742,2.5742,2.5742,2.5742,2.5742,2.5742,2.5762,2.582,2.582,2.585,2.5908,2.5908,2.6318,2.7012,2.7012,2.7012,2.7012,2.7012,2.7051,2.71,2.71,2.7139,2.7187,2.7187,2.7187,2.7187,2.7187,2.7187,2.7187,2.7187,2.7187,2.7256,2.7637,2.7754,2.7822,2.8193,2.8291,2.8291,2.8291,2.8291,2.8291,2.8291,2.8291,2.8291,2.8291,2.8291,2.8291,2.8291,2.8291,2.8291,2.8291,2.834,2.8379,2.8379,2.8428,2.8594,2.8955,2.9004,2.915,2.9531,2.9619,2.9658,2.9658,2.9717,2.9746,2.9746,3.0088,3.0293,3.0293,3.0674,3.0889,3.0889,3.0889,3.0889,3.0889,3.0889,3.0889,3.0889,3.0889,3.0889,2.0215,2.21,2.375,0.0,2.4678,2.5361,2.5361,2.5557,2.5742,2.5742,2.5742,2.5742,2.5742,2.5742,2.5742,2.5742,2.5742,2.5742,2.5742,2.5742,2.5742,2.5742,2.5742,2.5742,2.5742,2.5742,2.5742,2.5742,2.5742,2.5742,2.5742,2.5742,2.5742,2.5742,2.5742,2.5742,2.5742,2.5742,2.5742,2.5742,2.5742,2.5742,2.5742,2.5742,2.5937,2.6299,2.6299,2.6299,2.6299,2.6299,2.6445,2.666,2.666,2.6807,2.7012,2.7012,2.7012,2.7012,2.7012,2.7012,2.7012,2.7012,2.7012,2.7051,2.7246,2.7305,2.7334,2.7529,2.7578,2.7627,2.7881,2.7939,2.7998,2.8232,2.8291,2.8291,2.8291,2.8291,2.8291,2.8291,2.8291,2.8291,2.8291,2.8291,2.8291,2.8291,2.8291,2.8359,2.8545,2.8564,2.8643,2.8828,2.9062,2.9209,2.9209,2.9434,2.957,2.957,2.9746,2.9844,2.9844,3.0039,3.0264,3.0498,3.0762,3.0889,3.0889,3.0889,3.0889,3.0889,3.0889,3.0889,0.0,0.0,2.2568,2.29,2.3789,2.4639,0.0,0.0,2.543,0.0,2.5566,2.5605,2.5713,2.5742,2.5742,2.5742,2.5742,2.5742,2.5742,2.5742,2.5742,2.5742,2.5742,2.5742,2.5742,2.5742,2.5742,2.5742,2.5742,2.5742,2.5742,2.5742,2.5742,2.5742,2.5742,2.5742,2.5742,2.5742,2.5742,2.5742,2.5742,2.5742,2.5742,2.5742,2.5742,2.5742,2.5742,2.5742,2.5742,2.5742,2.5928,2.6221,2.6221,2.6416,2.6689,2.6689,2.6689,2.6689,2.6689,2.6689,2.6689,2.6689,2.6689,2.6709,2.6816,2.6855,2.6875,2.6982,2.7012,2.709,2.7412,2.75,2.7578,2.7891,2.8047,2.8164,2.8271,2.8291,2.8291,2.8291,2.8291,2.8291,2.8291,2.8291,2.8291,2.8291,2.8291,2.8291,2.8291,2.8291,2.8291,2.8291,2.8574,2.876,2.876,2.9053,2.9248,2.9248,2.9346,2.9404,2.9404,2.9512,2.9717,3.0029,3.0381,3.0664,3.0889,3.0889,3.0889,3.0889,3.0889,3.0889,0.0,2.001,0.0,2.2236,2.2891,0.0,0.0,0.0,2.46,2.5019,2.5098,2.5234,2.5664,2.5742,2.5742,2.5742,2.5742,2.5742,2.5742,2.5742,2.5742,2.5742,2.5742,2.5742,2.5742,2.5742,2.5742,2.5742,2.5742,2.5742,2.5742,2.5742,2.5742,2.5742,2.5742,2.5742,2.5742,2.5742,2.5742,2.5742,2.5742,2.5742,2.5742,2.5742,2.5742,2.5742,2.5742,2.5742,2.5742,2.5742,2.5752,2.5771,2.5771,2.5781,2.5801,2.5801,2.5801,2.5801,2.5801,2.5801,2.5801,2.5801,2.5801,2.5879,2.6299,2.6426,2.6504,2.6904,2.7012,2.7021,2.7041,2.7051,2.7051,2.708,2.7402,2.7812,2.8203,2.8291,2.8291,2.8291,2.8291,2.8291,2.8291,2.8291,2.8291,2.8291,2.8291,2.8291,2.8291,2.8291,2.8291,2.8291,2.831,2.833,2.833,2.834,2.8359,2.8359,2.873,2.8955,2.8955,2.9346,2.958,2.96,2.9629,3.0049,3.0889,3.0889,3.0889,3.0889,3.0889,3.0889,0.0,0.0,0.0,2.0322,2.1182,2.1992,2.2305,2.3008,2.3643,2.3809,2.4277,2.4697,2.4863,2.5352,2.5742,2.5742,2.5742,2.5742,2.5742,2.5742,2.5742,2.5742,2.5742,2.5742,2.5742,2.5742,2.5742,2.5742,2.5742,2.5742,2.5742,2.5742,2.5742,2.5742,2.5742,2.5742,2.5742,2.5742,2.5742,2.5742,2.5742,2.5742,2.5742,2.5742,2.5742,2.5742,2.5742,2.5742,2.5742,2.5742,2.5742,2.5742,2.5742,2.5742,2.5742,2.5742,2.5742,2.5742,2.5742,2.5742,2.5742,2.5742,2.5742,2.5762,2.5918,2.5967,2.6006,2.6152,2.6201,2.626,2.6543,2.6611,2.668,2.6953,2.7139,2.7363,2.7793,2.8105,2.8291,2.8291,2.8291,2.8291,2.8291,2.8291,2.8291,2.8291,2.8291,2.8291,2.8291,2.8291,2.8291,2.8291,2.8291,2.8291,2.8291,2.8291,2.8291,2.8291,2.8437,2.8516,2.8516,2.8672,2.8877,2.915,2.915,2.958,3.0449,3.0449,3.0605,3.0889,3.0889,3.0889,1.8008,0.0,0.0,0.0,0.0,2.0654,2.0937,2.1894,2.2764,2.291,2.3613,2.4248,2.4394,2.4902,2.5342,2.5488,2.5518,2.5566,2.5713,2.5742,2.5742,2.5742,2.5742,2.5742,2.5742,2.5742,2.5742,2.5742,2.5742,0.0,2.5742,2.5742,2.5742,2.5742,2.5742,2.5742,2.5742,2.5742,2.5742,2.5742,2.5742,2.5742,2.5742,2.5742,2.5742,2.5742,2.5742,2.5742,2.5742,2.5742,2.5742,2.5742,2.5742,2.5742,2.5742,2.5742,2.5742,2.5742,2.5742,2.5742,2.5742,2.5742,2.5742,2.5742,2.5742,2.5742,2.5742,2.5742,2.5742,2.5801,2.6094,2.6172,2.6279,2.6709,2.6807,2.6924,2.7353,2.7783,2.8125,2.8262,2.8291,2.8291,2.8291,2.8291,2.8291,2.8291,2.8291,2.8291,2.8291,2.8291,2.8291,2.8291,2.8291,2.8291,2.8291,2.8291,2.8291,2.8291,2.8291,2.8291,2.8291,2.8291,2.8428,2.8701,2.8711,2.9053,2.9766,2.9912,3.0146,3.0449,3.0596,3.0742,0.0,0.0,0.0,0.0,0.0,0.0,2.0332,0.0,2.1943,2.2402,2.3154,2.3867,2.4307,2.4385,2.4521,2.4961,2.5039,2.5205,2.5635,2.5693,2.5693,2.5693,2.5713,2.5713,2.5713,2.5732,2.5742,2.5742,2.5742,2.5742,2.5742,2.5742,2.5742,2.5742,2.5742,2.5742,2.5742,2.5742,2.5742,2.5742,2.5635,2.5635,2.5742,2.5635,2.5635,2.5742,2.5742,2.5635,2.5635,2.5635,2.5742,2.5742,2.5742,2.5742,2.5742,2.5742,2.5742,2.5742,2.5742,2.5742,2.5742,2.5742,2.5742,2.5742,2.5742,2.5742,2.5742,2.5742,2.5742,2.5742,2.5742,2.5742,2.584,2.6269,2.6367,2.6484,2.6904,2.7334,2.7754,2.8193,2.8271,2.8281,2.8291,2.8291,2.8291,2.8291,2.8291,2.8291,2.8291,2.8291,2.8291,2.8291,2.8291,2.8291,2.8291,2.8291,2.8291,2.8291,2.8291,2.8291,2.8291,2.8291,2.8291,2.8291,2.8291,2.8496,2.8896,2.9336,2.956,2.958,2.999,3.042,1.8008,0.0,0.0,0.0,0.0,0.0,1.9443,0.0,2.04,2.1777,2.2246,2.2637,2.3359,2.3496,2.3633,2.4072,2.4394,2.4639,2.4766,2.4785,2.4785,2.4785,2.5059,2.5254,2.5254,2.5547,2.5742,0.0,2.5742,2.5742,2.5742,2.5742,2.5742,2.5742,2.5742,2.5742,2.5742,2.5742,2.5742,2.5645,2.4716,2.4716,2.5635,2.4716,2.4815,2.5742,2.5742,2.5128,2.4304,2.5323,2.5742,2.5742,2.5742,2.5742,2.5742,2.5742,2.5742,2.5742,2.5742,2.5742,2.5742,2.5742,2.5742,2.5742,2.5742,2.5742,2.5742,2.5742,2.5742,2.5742,2.5742,2.5742,2.5762,2.5889,2.5918,2.6035,2.6475,2.666,2.6963,2.7695,2.7842,2.7939,2.8242,2.8291,2.8291,2.8291,2.8291,2.8291,2.8291,2.8291,2.8291,2.8291,2.8291,2.8291,2.8291,2.8291,2.8291,2.8291,2.8291,2.8291,2.8291,2.8291,2.8291,2.8291,2.8291,2.835,2.8467,2.8887,2.9258,2.957,2.9687,2.9814,0.0,0.0,0.0,0.0,0.0,0.0,1.8643,1.9033,1.9678,2.1055,2.1338,2.1602,2.2461,2.2314,2.2266,2.2891,2.3203,2.3603,2.4316,2.4414,2.4414,2.4414,2.4639,2.4795,2.4795,2.5039,2.5264,2.5449,2.5459,2.5537,2.5723,2.5742,2.5742,2.5742,2.5742,2.5742,2.5742,2.5742,2.5742,2.5732,2.4922,2.4922,2.5635,2.4304,2.4097,2.4815,2.4304,2.3583,2.2976,2.3692,2.4402,2.4913,2.543,2.5742,2.5742,2.5742,2.5742,2.5742,2.5742,2.5742,2.5742,2.5742,2.5742,2.5742,2.5742,2.5742,2.5742,2.5742,2.5742,2.5742,2.5742,2.5742,2.5742,2.5742,2.5742,2.581,2.6064,2.6113,2.6377,2.7226,2.7539,2.7744,2.7988,2.8174,2.8291,2.8291,2.8291,2.8291,2.8291,2.8291,2.8291,2.8291,2.8291,2.8291,2.8291,2.8291,2.8291,2.8291,2.8291,2.8291,2.8291,2.8291,2.8291,2.8291,2.8291,2.8291,2.8291,2.8535,2.8877,2.9297,2.9297,2.9394,0.0,0.0,0.0,0.0,0.0,0.0,1.7696,1.8344,1.919,2.0053,2.0372,2.0693,2.1491,2.1014,2.082,2.152,2.1734,2.2441,2.4043,2.4277,2.4277,2.4277,2.4316,2.4254,2.4161,2.42,2.4291,2.4573,2.4602,2.487,2.5373,2.5441,2.546,2.5664,2.5713,2.5742,2.5742,2.5538,2.543,2.543,2.5128,2.5118,2.5226,2.389,2.3285,2.3384,2.2257,2.1651,2.1448,2.1651,2.2357,2.3592,2.4815,2.5333,2.543,2.543,2.5538,2.5742,2.5742,2.5742,2.5742,2.5742,2.5742,2.5742,2.5742,2.5742,2.5742,2.5742,2.5742,2.5742,2.5742,2.5742,2.5742,2.5742,2.5742,2.5742,2.5742,2.5742,2.5967,2.6728,2.7226,2.7539,2.7588,2.7939,2.8223,2.8223,2.8262,2.8291,2.8291,2.8291,2.8291,2.8291,2.8291,2.8291,2.8291,2.8291,2.8291,2.8291,2.8291,2.8291,2.8291,2.8291,2.8291,2.8291,2.8291,2.8291,2.8291,2.8291,2.8486,2.8848,2.8848,2.9062,0.0,0.0,0.0,0.0,0.0,0.0,1.5939,1.6441,1.6939,1.779,1.8768,1.957,1.9701,2.0194,2.0381,1.9823,2.0919,2.2236,2.3242,2.3389,2.3389,2.3389,2.3701,2.3544,2.2603,2.2806,2.2632,2.1735,2.1639,2.2065,2.3134,2.3542,2.4218,2.5195,2.5547,2.5742,2.5742,2.4609,2.4097,2.4097,2.1862,2.1355,2.2458,2.1049,2.1041,2.2055,2.1853,2.1041,2.0135,2.1245,2.1853,2.2156,2.2357,2.3176,2.4097,2.4097,2.4815,2.5742,2.5742,2.5742,2.5742,2.5742,2.5742,2.5742,2.5742,2.5742,2.5742,2.5742,2.5742,2.5742,2.5742,2.5742,2.5742,2.5742,2.5742,2.5742,2.5742,2.5742,2.5791,2.5957,2.6338,2.6748,2.708,2.75,2.7783,2.7783,2.8076,2.8291,2.8291,2.8291,2.8291,2.8291,2.8291,2.8291,2.8291,2.8291,2.8291,2.8291,2.8291,2.8291,2.8291,2.8291,2.8291,2.8291,2.8291,2.8291,2.8291,2.8291,2.833,2.8418,2.8418,2.8457,0.0,0.0,0.0,1.4148,0.0,0.0,0.0,1.5085,1.541,1.6272,1.6634,1.6899,1.7317,1.7442,1.7451,1.7406,1.8271,1.9265,2.0072,2.1845,2.3135,2.3135,2.333,2.3191,2.2636,2.2171,2.1516,2.0565,2.0654,2.105,2.1631,2.1918,2.2311,2.2981,2.319,2.3293,2.3492,2.2786,2.2577,2.2667,2.1355,2.1041,2.1643,2.0231,2.0033,2.0641,1.993,1.9213,1.8708,1.9317,1.962,1.9819,2.1143,2.2156,2.2667,2.2667,2.3176,2.3791,2.4501,2.4716,2.4815,2.543,2.5742,2.5742,2.5742,2.5742,2.5742,2.5742,2.5742,2.5742,2.5742,2.5742,2.5742,2.5742,2.5742,2.5742,2.5742,2.5742,2.5742,2.5742,2.5918,2.6201,2.6631,2.706,2.7344,2.7344,2.7705,2.7978,2.7978,2.8164,2.8291,2.8291,2.8291,2.8291,2.8291,2.8291,2.8291,2.8291,2.8291,2.8291,2.8291,2.8291,2.8291,2.8291,2.8291,2.8291,2.8291,2.8291,2.8291,2.8291,2.8291,2.8291,0.0,0.0,0.0,0.0,0.0,1.3615,0.0,0.0,0.0,1.4588,1.4504,1.4463,1.498,1.4681,0.0,1.4905,0.0,0.0,0.0,1.9652,0.0,2.2093,2.2016,2.1996,2.1876,2.0846,1.9962,1.9333,1.9629,1.9981,2.0172,2.0238,2.0471,2.0654,2.0729,2.0895,2.1089,2.0802,2.0891,2.1241,2.0945,2.0875,2.0837,1.9723,1.922,1.9117,1.8094,1.7582,1.7582,1.7582,1.7582,1.7786,2.0025,2.1041,2.1347,2.1347,2.1448,2.1853,2.2968,2.3276,2.3484,2.4609,2.4922,2.502,2.5226,2.5323,2.5333,2.5635,2.5742,2.5742,2.5742,2.5742,2.5742,2.5742,2.5742,2.5742,2.5742,2.5742,2.5742,2.5742,2.5742,2.585,2.6201,2.6611,2.6894,2.6894,2.7266,2.7539,2.7539,2.791,2.8174,2.8174,2.8242,2.8291,2.8291,2.8291,2.8291,2.8291,2.8291,2.8291,2.8291,2.8291,2.8291,2.8291,2.8291,2.8291,2.8291,2.8291,2.8291,2.8291,2.8291,2.8291,0.0,0.0,0.0,0.0,1.103,0.0,0.0,0.0,1.242,1.1647,0.0,1.4115,1.3336,0.0,0.0,0.0,0.0,0.0,1.4277,1.6112,1.7813,1.8241,1.8318,1.8079,1.7597,1.6868,1.6393,1.634,1.6374,1.6855,1.7976,1.835,1.9067,2.0176,2.0587,2.0779,2.082,1.9576,1.9163,1.9497,1.8302,1.7839,1.8094,1.7891,1.7786,1.7786,1.7687,1.7582,1.7582,1.7582,1.7582,1.7582,1.7989,1.8812,1.9834,1.9834,2.0641,2.1752,2.1853,2.1954,2.1954,2.2055,2.2156,2.2366,2.3583,2.3899,2.4196,2.5333,2.5742,2.5742,2.5742,2.5742,2.5742,2.5742,2.5742,2.5742,2.5742,2.5742,2.5742,2.5742,2.5742,2.5752,2.5801,2.6172,2.6455,2.6455,2.6816,2.709,2.709,2.7471,2.7734,2.7734,2.8066,2.8291,2.8291,2.8291,2.8291,2.8291,2.8291,2.8291,2.8291,2.8291,2.8291,2.8291,2.8291,2.8291,2.8291,2.8291,2.8291,2.8291,2.8291,2.8291,0.0,0.0,0.0,0.0,0.0,0.0,1.0698,0.0,1.1248,0.0,0.0,0.0,0.0,0.0,0.0,0.0,1.2233,1.2766,0.0,0.0,1.4556,1.697,0.0,0.0,1.6855,1.6243,1.5732,1.5389,1.5331,1.5599,1.6134,1.6591,1.7035,1.7588,1.7816,1.7978,1.8171,1.7602,1.7471,1.7781,1.7191,1.7048,1.7328,1.7328,1.7422,1.7582,1.7582,1.7582,1.7582,1.7582,1.7582,1.7582,1.7582,1.7891,1.8401,1.8401,1.8805,1.9413,2.0231,2.0436,2.0641,2.1448,2.1752,2.1853,2.2366,2.2567,2.2767,2.4196,2.451,2.4716,2.5528,2.5742,2.5742,2.5742,2.5742,2.5742,2.5742,2.5742,2.5742,2.5742,2.5742,2.5742,2.5742,2.5889,2.6006,2.6006,2.6377,2.665,2.665,2.7031,2.7393,2.7637,2.7822,2.8027,2.8271,2.8291,2.8291,2.8291,2.8291,2.8291,2.8291,2.8291,2.8291,2.8291,2.7501,2.7051,2.7051,2.6164,2.5717,2.5717,2.7501,2.8291,1.163,0.0,0.0,0.0,0.0,0.0,0.0,0.0,0.0,0.0,0.0,0.0,0.0,0.0,0.0,0.0,0.0,1.0842,0.0,1.1002,0.0,0.0,0.0,0.0,0.0,1.5409,1.5154,1.4771,1.4723,1.479,1.4957,1.5364,1.5665,1.5825,1.5832,1.5932,1.6152,1.6152,1.6299,1.6587,1.6587,1.674,1.7027,1.7027,1.7141,1.7348,1.7428,1.7462,1.7468,1.7549,1.7582,1.7582,1.7582,1.7582,1.7582,1.7582,1.7582,1.7793,1.8708,1.9013,1.922,2.0231,2.0531,2.0735,2.1448,2.1448,2.1448,2.3176,2.3484,2.3384,2.4304,2.4913,2.5128,2.5128,2.543,2.5742,2.5742,2.543,2.5226,2.5635,2.543,2.5226,2.5635,2.5742,2.5742,2.5742,2.6006,2.6211,2.6211,2.6582,2.6963,2.7285,2.7529,2.7793,2.8096,2.8223,2.8291,2.8291,2.8291,2.8067,2.7726,2.7726,2.7501,2.706,2.6045,2.5489,2.5489,2.4378,2.3822,2.3822,2.6054,2.706,0.0,0.0,0.0,1.2131,0.0,0.0,0.0,0.0,1.0624,0.0,0.0,0.0,0.0,0.0,0.0,0.0,0.0,0.0,0.0,0.0,0.0,0.0,0.0,0.0,0.0,1.3407,1.3781,1.4095,1.4115,1.4362,1.4937,1.4983,1.5251,1.5812,1.5832,1.5832,1.5845,1.5845,1.5992,1.6286,1.6286,1.644,1.672,1.672,1.6727,1.6747,1.7041,1.7161,1.7188,1.7468,1.7582,1.7582,1.7582,1.7582,1.7582,1.7582,1.7582,1.7582,1.7687,1.7687,1.7687,1.7687,1.7681,1.8192,2.0939,2.0735,2.0238,2.2976,2.2767,2.1752,2.1853,2.2767,2.3791,2.3791,2.4716,2.5742,2.5742,2.4707,2.4196,2.543,2.4609,2.4205,2.543,2.5742,2.5742,2.5742,2.5752,2.5762,2.5762,2.6143,2.6416,2.6426,2.7178,2.7676,2.7685,2.8057,2.8291,2.8291,2.8291,2.7618,2.6264,2.6155,2.5489,2.3933,2.3933,2.3822,2.3822,2.3822,2.3822,2.3822,2.3933,2.3933,0.0,0.0,1.2652,1.2852,0.0,0.0,0.0,0.0,0.0,0.0,0.0,0.0,0.0,0.0,0.0,0.0,0.0,0.0,0.0,0.0,1.0698,0.0,0.0,0.0,0.0,0.0,1.2458,1.3146,1.3279,1.3547,1.4342,1.475,1.5231,1.5812,1.5832,1.5832,1.5832,1.5832,1.5879,1.5979,1.5979,1.6132,1.642,1.642,1.6526,1.6714,1.6814,1.6854,1.6881,1.7174,1.7295,1.7315,1.7508,1.7582,1.7582,1.7582,1.7582,1.7582,1.7582,1.7582,1.7582,1.7582,1.7582,1.7786,1.8708,1.8603,1.8708,2.0436,2.0641,2.0538,2.1448,2.2055,2.2567,2.3484,2.4097,2.4609,2.5538,2.5323,2.5128,2.5635,2.4609,2.3791,2.4304,2.3692,2.3692,2.543,2.5742,2.5742,2.5742,2.5869,2.6074,2.6357,2.665,2.6612,2.6175,2.5603,2.527,2.527,2.527,2.5049,2.4599,2.4599,2.4378,2.3822,2.2814,2.2363,2.2363,2.1373,2.0938,2.0938,2.0938,2.1934,1.3414,1.3373,0.0,1.3474,1.2906,0.0,1.2098,0.0,1.1182,0.0,0.0,0.0,0.0,0.0,0.0,0.0,0.0,0.0,0.0,1.0624,0.0,0.0,0.0,0.0,0.0,1.1496,1.155,1.2225,1.2278,1.2759,1.3868,1.4289,1.4903,1.5798,1.5832,1.5832,1.5832,1.5832,1.5832,1.5832,1.5832,1.5925,1.6112,1.6112,1.6219,1.64,1.6506,1.6553,1.6573,1.6867,1.6987,1.7021,1.7315,1.7428,1.7442,1.7542,1.7582,1.7582,1.7582,1.7582,1.7582,1.7582,1.7582,1.7687,1.8199,1.7996,1.7891,1.922,1.922,1.9117,2.0025,2.0641,2.1143,2.2064,2.2667,2.3384,2.4716,2.4609,2.4402,2.4913,2.3899,2.2976,2.2976,2.2257,2.2265,2.3998,2.4304,2.4304,2.4304,2.4304,2.4405,2.4674,2.4831,2.4827,2.4738,2.4048,2.369,2.3813,2.3822,2.3599,2.3039,2.3039,2.2822,2.2266,2.1259,2.0809,2.0809,1.9809,1.9366,1.9366,1.9366,2.0371]}]]